GFSGL_850_spd_003.txt.gz
Wind_Speed
25 27 32 31 17 13 18 19 20 26 29 28 23 24 24 24 23 25 25 25 25 24 22 20 21 21 24 28 29 29 27 22 22 27 25 21 22 23 21 15 15 15 16
29 31 29 25 19 23 30 26 24 25 22 17 20 23 23 23 24 23 23 24 22 16 16 21 24 31 32 24 24 26 26 26 24 23 24 20 17 15 15 12 14 14 13
30 31 29 26 23 29 26 21 18 17 21 19 16 19 23 25 26 27 27 26 23 25 29 32 32 29 30 30 25 25 25 19 18 20 23 18 16 14 17 14 11 14 17
35 34 35 36 26 21 16 15 12 18 20 17 16 19 26 26 28 30 28 28 30 32 34 32 34 34 32 30 28 24 25 27 30 27 26 26 25 20 18 19 18 12 16
33 32 35 34 27 21 26 15 14 20 14 14 18 23 24 26 29 28 28 30 33 35 38 39 37 32 24 21 24 24 23 25 26 27 30 30 30 32 29 23 20 19 14
35 36 37 34 30 30 22 18 9 9 13 18 22 22 23 24 27 30 30 30 35 36 31 36 33 23 17 19 21 21 21 17 19 20 23 25 26 25 26 27 27 23 22
32 36 28 28 33 29 15 16 15 14 13 20 20 19 21 28 25 26 32 35 31 29 32 31 27 22 22 24 25 25 24 22 21 22 24 25 27 25 24 25 27 28 25
34 32 33 31 34 24 10 11 17 15 17 18 18 19 25 22 27 28 31 31 31 29 29 29 26 24 23 23 24 24 25 28 27 26 26 30 29 30 23 21 21 23 25
28 33 36 25 21 16 13 17 14 14 17 18 20 23 25 27 29 31 30 29 25 30 26 31 26 26 23 20 22 22 22 22 19 18 18 21 21 23 24 24 26 26 29
30 34 33 27 22 23 17 13 11 12 18 18 20 22 26 28 29 28 27 25 25 27 32 32 21 17 18 18 18 20 23 22 22 22 23 22 23 25 21 22 23 21 24
31 32 26 21 19 18 17 11 15 19 16 18 22 24 24 29 26 29 28 25 27 31 30 23 21 21 21 20 22 22 20 17 17 19 20 21 20 21 23 24 26 31 30
31 29 23 20 15 14 14 17 19 16 17 20 22 26 28 26 24 25 25 27 24 22 22 21 17 20 18 21 12 12 14 13 10 9 9 9 10 11 10 10 13 15 18
35 28 20 14 14 16 16 13 15 17 17 21 25 27 27 26 25 27 23 20 20 21 19 15 16 19 15 10 11 12 10 9 6 6 8 9 10 10 12 13 13 14 15
27 19 15 14 15 13 16 19 17 15 20 23 24 24 23 25 26 29 25 23 23 19 15 15 17 13 11 14 13 9 9 9 7 7 8 6 6 5 5 5 8 8 9
22 20 14 15 14 12 14 13 15 18 21 21 21 19 22 24 27 22 22 22 20 18 14 15 17 16 14 16 16 12 12 12 8 6 5 6 5 5 3 3 5 6 7
20 15 15 15 12 11 12 15 17 19 20 16 17 18 20 22 26 23 21 19 15 17 14 13 16 17 15 14 13 13 15 15 9 8 7 7 6 6 6 4 4 3 3
16 16 17 16 11 14 17 19 22 15 14 15 16 18 21 21 26 25 22 20 18 14 14 13 15 16 16 14 12 12 15 16 9 8 7 8 7 7 6 6 4 5 4
15 15 15 18 17 16 15 14 13 15 15 14 15 17 19 20 25 23 19 20 22 16 14 13 14 16 16 14 13 11 11 11 10 8 8 9 9 8 8 7 6 5 4
12 12 17 18 19 13 12 12 14 14 13 13 12 16 18 17 23 18 18 20 22 20 16 13 13 15 16 15 13 10 11 11 10 6 8 8 8 8 9 7 7 6 6
11 11 13 15 19 16 12 13 14 13 13 12 12 15 16 18 20 20 22 20 21 19 15 14 14 15 15 15 14 13 13 13 10 6 6 7 6 8 10 9 8 7 8
12 16 19 19 20 12 13 14 13 14 12 11 13 14 16 17 18 19 20 24 21 18 15 14 15 14 14 15 15 14 14 14 12 9 4 5 5 5 7 7 7 7 7
16 18 20 18 11 11 11 12 15 11 11 13 13 16 15 16 17 19 21 22 21 18 17 14 14 15 15 15 15 14 14 13 12 10 7 6 5 3 5 4 6 7 7
16 14 12 14 13 11 11 12 13 11 11 12 13 14 16 17 17 19 20 19 20 19 19 16 14 14 13 14 15 15 15 14 14 13 10 9 8 6 5 7 6 8 8
11 11 12 13 11 11 12 12 12 13 13 12 12 13 15 15 17 18 19 19 20 21 20 17 16 15 14 13 12 13 14 14 13 12 11 11 10 8 6 6 3 7 10
15 15 14 14 14 12 13 13 13 13 13 13 13 14 16 17 17 18 19 19 19 20 19 18 18 15 14 14 12 12 12 13 13 13 11 10 10 8 8 7 7 7 9
19 18 19 19 18 16 16 16 14 14 17 14 14 15 15 16 16 16 18 18 18 19 19 20 19 16 15 15 13 12 11 11 11 12 12 11 10 8 7 8 7 7 8

GFSGL_850_spd_006.txt.gz
Wind_Speed
21 23 26 29 32 32 26 21 24 22 24 25 25 24 22 20 18 19 21 23 24 26 21 17 19 23 28 32 33 30 26 25 28 29 20 16 16 14 15 11 9 16 16
22 24 24 26 29 32 29 29 34 27 26 15 23 24 21 19 22 22 23 26 26 25 26 26 30 34 37 32 30 31 29 25 23 24 17 16 17 16 14 13 10 8 15
29 30 34 32 28 30 30 28 18 13 14 20 15 18 17 21 22 23 24 24 23 23 27 29 32 35 39 39 36 32 31 26 22 23 24 22 22 18 18 17 12 7 8
28 32 36 37 32 25 24 18 19 31 17 12 16 15 21 21 22 24 23 24 24 25 28 34 34 32 32 29 24 24 23 24 25 25 26 21 23 26 22 22 25 18 9
30 34 32 35 31 29 27 29 25 16 10 8 13 18 19 21 22 22 25 23 26 33 33 28 30 28 28 17 17 16 17 17 17 17 19 18 20 22 23 24 25 26 21
32 32 31 32 33 31 31 27 16 12 8 10 17 19 21 20 22 20 23 29 30 29 30 29 26 28 23 20 21 24 21 21 18 16 17 18 19 19 21 22 23 23 25
29 31 34 35 36 31 25 16 18 12 18 12 17 19 18 19 19 25 29 29 29 28 28 28 26 27 23 21 21 20 20 19 19 21 24 22 21 21 21 20 20 20 21
31 33 32 33 33 26 20 23 19 13 12 14 16 17 16 21 25 28 28 27 27 28 27 27 28 28 21 19 18 19 19 18 18 18 18 20 21 22 22 22 22 20 20
31 32 30 30 29 21 17 17 13 17 10 14 15 15 19 23 28 29 28 28 26 26 28 28 22 20 16 17 17 17 17 17 17 16 16 17 18 17 16 16 17 18 21
31 29 30 31 23 20 16 17 13 8 15 13 13 15 20 25 28 27 26 27 27 28 25 22 19 18 17 18 18 18 23 23 19 19 22 23 22 22 19 19 18 17 17
25 28 32 27 19 14 11 8 11 16 14 11 12 18 23 26 25 24 26 22 20 22 22 19 16 16 18 20 19 19 14 15 16 17 16 14 16 20 23 24 26 27 28
28 32 26 18 14 12 15 17 14 9 8 11 15 20 23 23 23 27 23 17 16 19 19 15 17 19 16 11 11 12 13 13 12 10 8 7 7 8 9 11 12 14 16
32 25 21 17 14 13 11 12 11 9 11 16 19 20 19 21 22 26 23 21 18 17 16 15 17 15 12 13 14 11 9 8 8 9 8 8 8 8 7 10 12 13 12
25 22 20 14 15 14 11 12 10 11 15 17 18 16 17 19 22 25 26 22 19 18 16 14 15 15 13 13 12 10 10 10 9 9 8 7 6 4 3 4 6 8 10
18 19 16 13 13 13 10 10 13 15 17 16 13 14 16 18 22 23 21 20 17 18 15 12 15 17 16 14 11 13 13 12 10 7 6 6 5 4 2 0 1 4 7
18 16 13 13 12 10 12 14 16 17 13 11 13 14 15 16 21 21 21 18 20 17 14 14 16 16 16 15 13 11 12 13 10 9 7 7 7 7 5 3 2 2 0
23 16 11 11 12 11 14 17 19 9 8 10 13 14 16 16 20 20 19 18 19 18 15 14 15 16 16 15 14 12 13 12 9 8 7 7 6 6 6 5 2 1 2
14 11 8 13 15 15 14 14 12 13 13 12 12 13 14 15 18 20 20 18 19 19 17 15 15 16 16 16 16 14 13 11 8 7 7 7 5 5 5 6 6 3 1
11 11 12 14 14 16 17 14 11 13 11 12 13 12 13 15 16 17 19 20 21 20 16 16 15 16 16 16 15 14 13 12 9 4 6 6 5 7 5 5 6 6 5
11 14 14 12 15 17 16 13 12 13 12 13 11 11 13 14 14 15 19 19 20 19 16 14 15 15 15 15 14 14 12 12 10 4 3 5 4 5 6 5 5 5 7
12 13 14 16 19 20 15 14 13 12 11 8 11 11 12 13 14 15 16 18 18 19 17 15 14 14 14 14 14 14 13 12 11 8 6 6 5 3 3 4 5 7 8
12 15 17 21 16 15 12 13 13 12 11 10 11 11 12 12 14 14 16 18 18 18 18 16 15 15 14 14 14 14 14 12 11 10 8 8 7 6 5 6 6 7 9
15 15 15 15 14 18 14 12 12 12 12 11 11 11 14 13 13 15 17 17 16 16 17 17 15 15 14 14 13 12 13 13 13 13 11 10 9 8 7 7 9 7 10
18 15 14 13 13 14 12 12 13 14 14 15 12 13 14 13 15 15 15 15 17 16 16 16 16 15 15 14 12 12 12 11 12 12 12 11 10 9 8 7 8 9 10
19 18 17 17 16 18 18 17 15 16 16 17 16 16 16 16 15 15 15 14 15 14 14 14 15 16 15 14 12 12 12 11 11 11 11 11 10 10 9 9 8 7 8
18 20 21 21 20 21 24 21 19 18 19 17 19 17 17 17 17 14 14 13 14 14 14 16 15 16 16 14 13 12 11 11 11 11 11 9 8 9 8 8 8 8 8

GFSGL_850_spd_009.txt.gz
Wind_Speed
15 21 24 25 30 32 30 29 26 23 19 22 22 11 20 15 16 19 20 21 22 24 23 22 22 24 27 29 30 31 32 29 30 30 26 22 18 15 16 9 7 8 10
21 26 26 31 33 31 27 22 22 20 26 26 30 27 12 16 16 19 21 23 23 25 24 24 27 31 34 36 36 37 33 29 30 31 23 19 14 10 13 18 9 6 9
23 26 31 35 31 31 29 22 21 23 24 30 27 16 12 16 18 20 22 24 25 25 24 28 34 36 33 31 31 30 26 24 25 27 26 23 20 21 20 17 20 20 11
26 31 34 30 30 30 29 23 22 25 27 19 15 12 12 19 20 21 23 23 23 23 30 33 31 29 30 28 30 23 18 18 15 19 22 24 20 19 23 23 22 22 21
28 30 28 30 31 29 28 24 20 18 18 17 13 9 16 18 20 20 21 22 26 30 32 29 27 27 27 25 22 24 23 25 20 17 11 15 16 17 18 18 19 21 26
28 27 27 29 30 28 26 21 17 17 20 14 15 17 16 19 18 19 21 26 29 29 30 29 27 29 24 27 24 21 20 20 20 21 21 19 12 12 13 15 17 17 21
24 25 29 28 27 29 26 20 18 21 18 11 15 15 16 17 19 21 25 28 28 29 29 27 28 28 27 23 19 17 18 17 19 20 22 21 21 19 18 19 18 19 20
21 27 27 28 29 29 23 17 13 14 13 15 11 13 16 19 21 24 27 26 25 26 26 26 24 22 21 19 20 20 16 16 15 14 16 19 19 18 21 21 20 20 22
26 28 25 27 32 25 22 19 17 16 13 10 12 13 18 19 23 26 25 27 29 26 21 21 19 18 16 19 19 19 20 20 21 21 21 20 16 17 14 14 15 15 16
26 24 25 32 26 21 17 14 9 8 11 10 15 15 17 20 23 22 24 26 25 22 21 18 15 15 18 20 21 20 22 22 16 16 17 16 19 23 21 20 18 14 18
23 23 26 27 21 17 13 16 18 18 17 11 10 14 18 20 20 21 24 23 20 20 20 18 17 18 18 16 15 15 16 17 18 18 14 12 9 13 19 23 24 23 23
23 27 25 23 20 16 15 13 11 10 9 9 12 16 17 17 17 21 22 20 17 17 19 17 19 18 15 15 16 14 14 12 11 10 10 11 9 8 8 10 14 18 22
29 28 21 19 18 14 15 13 10 7 8 11 14 15 13 14 16 20 20 21 20 17 18 16 17 18 16 15 13 11 13 12 12 12 11 10 9 8 6 7 10 11 12
26 19 17 17 14 14 14 12 8 9 12 14 14 12 11 13 15 20 19 21 22 18 18 16 16 16 15 13 10 11 14 11 11 11 10 9 8 6 5 3 5 7 9
22 17 17 19 10 13 11 8 12 14 16 13 10 10 11 13 15 18 17 19 20 20 18 16 16 17 17 15 12 12 14 12 10 10 10 9 8 6 4 1 0 4 7
22 19 18 18 8 9 10 12 15 18 12 10 10 10 10 11 14 17 17 17 18 19 18 17 17 17 18 18 17 14 13 13 10 11 9 8 8 8 7 5 3 3 2
21 20 13 11 8 10 12 13 16 18 9 11 11 10 10 11 13 14 15 16 17 18 17 17 16 17 18 17 17 15 15 13 10 8 9 7 6 6 6 6 4 1 1
19 12 10 9 12 15 14 13 15 15 12 12 10 10 10 11 12 12 14 16 16 17 16 16 16 16 17 17 17 16 15 13 8 5 7 7 7 6 6 6 6 4 2
18 14 13 14 15 13 14 16 15 14 14 13 12 11 10 11 10 12 12 14 15 15 15 15 15 16 16 15 15 15 15 14 13 6 6 6 6 6 5 6 6 6 6
19 15 15 12 11 15 18 19 15 14 15 14 12 9 10 10 10 10 11 13 14 13 14 14 14 14 15 14 14 14 14 13 12 9 7 7 7 6 6 7 8 8 9
19 16 15 14 16 17 18 17 13 14 14 10 12 11 11 11 10 10 11 13 13 12 12 12 14 14 14 13 13 13 13 13 12 11 9 9 8 7 7 8 8 9 11
20 21 17 18 18 19 19 16 17 15 15 13 12 12 11 12 12 11 12 13 12 11 11 11 12 13 13 13 12 12 12 12 11 10 10 9 9 9 8 8 8 9 10
26 23 21 17 17 17 18 19 16 15 16 15 14 15 16 15 14 13 13 12 11 11 11 11 11 12 13 13 13 12 11 11 11 10 11 10 9 9 9 8 10 9 10
23 18 19 19 17 17 17 14 15 16 17 18 17 16 17 18 16 16 15 13 13 13 11 11 11 12 12 13 13 13 12 12 11 10 10 10 10 10 9 8 9 9 9
22 19 18 21 21 20 20 21 21 18 20 20 21 20 20 20 20 19 17 16 13 12 11 11 12 12 13 13 13 13 12 11 11 10 11 11 10 10 9 9 9 9 9
21 20 20 21 23 24 25 25 24 24 23 23 24 23 22 23 21 21 18 15 13 12 11 12 13 13 13 14 13 11 11 11 11 10 10 10 10 9 8 8 8 9 9

GFSGL_850_spd_012.txt.gz
Wind_Speed
16 18 21 23 28 31 29 31 28 20 18 23 23 22 22 18 13 11 15 17 19 20 22 24 24 23 27 30 34 35 34 33 36 40 36 34 29 21 21 23 14 6 9
17 19 21 25 26 29 30 29 25 19 18 20 22 22 24 25 13 13 17 20 22 25 26 27 27 28 34 34 32 31 32 31 30 33 31 30 26 19 19 19 13 20 10
16 18 22 24 27 29 30 27 24 18 17 20 23 25 20 14 11 16 19 22 23 26 25 27 31 33 34 31 30 31 31 27 22 20 25 25 24 22 23 25 20 18 18
17 19 21 25 28 30 29 27 24 20 20 20 19 17 16 11 13 18 21 21 24 24 27 31 33 32 31 30 30 30 25 26 26 28 25 23 21 21 25 22 22 25 24
18 21 22 26 29 29 28 28 24 18 16 19 20 14 11 16 18 17 19 21 25 29 32 32 31 30 27 26 26 27 29 27 26 24 24 25 21 15 21 18 20 23 23
22 22 23 28 27 27 29 27 22 16 18 19 14 13 14 18 15 16 21 25 29 32 31 31 31 29 27 24 26 23 20 22 25 25 25 24 24 24 16 16 14 16 20
24 21 25 27 26 29 29 24 21 18 15 14 12 16 16 13 15 19 23 28 29 27 29 28 26 24 22 21 19 18 21 20 17 19 21 23 23 22 22 23 20 18 20
21 23 27 24 26 32 28 23 21 20 18 18 18 12 11 14 19 21 27 26 25 27 25 22 22 21 18 16 24 22 20 19 20 19 20 20 19 19 22 22 23 24 24
23 26 24 22 27 30 25 20 17 15 13 11 12 9 17 16 20 24 24 23 24 24 21 19 19 18 17 20 23 23 20 18 17 20 20 19 20 23 17 15 18 20 21
22 23 23 24 28 27 22 16 16 19 18 17 13 13 12 17 21 20 20 22 23 23 20 19 17 17 18 19 19 22 20 20 20 19 18 18 18 20 23 26 23 15 15
22 25 26 27 26 23 21 17 17 16 14 13 13 11 16 18 17 17 19 21 21 22 21 21 18 17 18 18 17 18 18 20 17 14 13 12 12 12 13 18 26 26 23
26 27 28 26 20 20 18 16 15 14 12 10 11 15 16 15 15 16 18 19 18 20 20 19 18 19 21 20 17 15 16 17 15 14 13 13 11 11 11 11 12 19 23
26 25 25 20 17 16 14 15 14 12 10 12 16 16 14 12 14 16 18 17 18 19 19 18 17 19 19 18 15 14 16 15 13 13 12 11 11 10 8 8 10 11 11
24 23 20 17 16 17 13 13 10 10 13 16 17 14 11 11 13 15 17 17 18 19 19 18 16 17 16 16 15 13 14 14 12 13 13 12 10 8 6 6 6 6 8
23 21 17 17 17 18 11 9 10 13 15 17 12 11 11 10 11 13 15 16 17 19 18 17 15 16 18 18 17 15 14 12 10 11 11 11 10 9 9 7 3 3 7
22 19 23 17 13 14 10 9 12 14 15 13 12 12 11 11 11 12 13 14 16 17 16 16 16 17 18 19 19 18 16 13 9 11 11 10 10 11 10 8 7 6 4
19 19 18 13 9 11 10 13 14 13 14 14 14 12 11 10 10 11 11 13 15 16 15 14 15 16 17 18 18 18 18 17 12 9 10 11 10 10 10 9 6 4 3
19 18 18 15 13 14 17 16 15 16 16 15 13 11 10 10 10 10 11 12 14 16 14 14 13 14 15 16 17 17 16 15 13 8 8 9 10 9 8 8 8 8 6
20 20 19 18 17 17 17 15 17 18 17 15 14 13 11 9 10 10 10 12 13 14 13 13 13 13 13 14 15 16 16 16 15 11 9 9 8 7 7 8 8 8 8
20 22 21 19 18 15 15 17 19 19 17 15 15 14 11 12 11 10 11 12 14 14 13 13 13 13 13 12 13 13 14 14 14 12 10 10 9 9 8 8 8 9 10
25 24 22 21 21 19 18 19 19 18 16 16 16 13 15 14 12 12 13 13 13 14 13 13 12 12 12 12 12 12 12 13 13 13 13 11 11 9 8 9 9 10 10
21 21 25 26 24 23 21 20 21 19 19 19 18 15 15 16 16 15 16 16 14 14 13 13 13 12 12 12 12 12 12 11 12 12 11 12 11 11 10 9 8 9 8
24 23 24 24 21 22 22 21 19 19 20 20 19 19 18 19 19 19 17 16 16 15 14 14 13 13 13 13 12 12 12 11 12 11 11 10 10 10 10 10 9 9 8
24 23 22 22 20 19 22 20 20 19 18 19 21 22 22 22 19 19 19 19 17 16 16 14 14 13 13 13 13 13 12 11 11 11 11 11 10 10 9 9 9 8 8
23 23 21 20 19 19 21 24 24 25 25 26 25 24 26 24 24 23 22 20 20 18 16 15 14 14 13 13 13 13 12 11 10 10 10 10 10 10 9 8 8 7 7
22 21 20 20 19 20 23 25 27 27 27 28 29 29 27 27 28 26 26 24 21 19 16 15 15 15 14 13 13 13 11 10 9 9 9 9 9 9 8 8 7 7 8

GFSGL_850_spd_018.txt.gz
Wind_Speed
1 4 5 10 14 17 17 16 17 19 18 18 17 16 17 19 23 21 21 20 15 16 17 18 20 22 22 23 24 26 28 29 35 43 33 31 29 28 26 25 23 24 21
6 6 8 12 16 12 13 16 17 18 18 18 17 16 17 19 22 23 18 13 14 18 19 20 21 23 24 25 26 27 29 30 30 37 32 30 27 27 28 26 24 21 21
8 8 8 10 11 12 14 17 17 18 18 17 17 17 17 19 20 16 12 12 15 17 15 17 22 24 25 25 25 27 27 26 24 28 33 28 27 24 25 23 22 21 21
9 9 9 11 12 14 15 17 18 19 19 17 16 17 18 16 13 12 12 13 14 11 14 17 22 21 21 22 24 23 23 22 23 26 28 25 24 23 21 20 20 17 18
12 10 12 13 14 15 16 18 19 20 18 17 17 16 14 11 13 14 11 10 11 15 17 19 18 20 29 22 18 19 19 20 20 22 25 23 23 21 20 20 21 18 19
13 12 14 16 15 16 18 17 18 19 18 16 16 16 13 11 20 15 11 10 15 16 18 17 17 18 16 21 19 20 16 20 23 24 25 25 25 22 18 19 19 16 16
14 16 19 17 17 17 17 17 18 18 17 14 14 12 12 9 12 10 15 16 17 16 15 15 16 15 19 17 18 19 21 20 22 22 24 23 24 22 20 20 19 18 17
16 20 20 16 16 17 16 17 18 17 14 13 13 11 8 9 13 16 16 19 16 13 14 14 15 16 16 20 18 19 19 19 20 21 20 22 22 21 20 18 19 20 19
17 19 15 17 15 16 17 17 18 16 14 13 12 10 8 9 14 15 20 19 14 15 13 13 15 14 16 17 18 20 19 19 18 21 23 23 20 21 21 18 19 18 20
18 16 17 15 15 16 17 17 14 13 13 11 11 10 13 12 16 18 19 16 14 14 13 13 16 20 20 17 17 17 18 18 20 21 18 17 16 16 15 15 17 18 18
15 16 16 15 15 17 15 12 11 12 12 12 14 14 14 14 17 19 18 16 14 15 13 14 13 20 20 19 19 14 18 20 18 17 16 14 13 13 13 13 14 15 16
16 17 17 16 15 14 12 11 13 12 11 11 13 13 11 15 17 18 15 15 16 17 14 14 17 19 18 18 16 18 18 16 15 14 14 14 14 14 13 13 13 13 14
17 18 15 13 14 12 12 13 14 12 11 10 9 10 12 14 13 14 13 15 16 15 15 16 17 17 17 15 17 17 16 13 12 12 13 14 14 14 14 15 10 11 12
17 14 13 15 16 15 13 14 13 13 11 9 11 12 13 13 12 11 11 10 13 13 13 16 16 15 15 16 13 13 12 13 11 12 12 14 14 14 15 13 9 7 7
14 12 13 13 14 14 14 13 12 12 12 11 11 12 14 13 12 14 13 11 11 13 17 13 12 12 11 11 11 11 11 13 11 10 11 12 13 13 14 14 11 9 4
15 14 12 14 12 14 13 13 13 14 17 17 17 17 16 16 15 15 14 14 15 15 14 11 12 12 12 11 11 11 11 12 13 11 10 11 12 12 13 13 11 10 9
16 16 14 14 15 14 15 15 13 14 15 18 18 17 17 16 15 14 14 14 16 15 11 12 12 12 12 11 10 10 11 12 14 12 10 10 11 11 11 11 11 10 9
17 18 17 14 15 17 16 16 16 16 18 18 17 18 17 17 15 15 15 16 14 15 14 11 12 12 11 11 10 10 11 12 11 12 11 10 10 10 10 10 9 10 9
19 16 17 21 22 22 22 20 19 18 19 17 15 16 17 16 17 17 17 17 15 14 13 13 13 12 11 10 10 11 12 11 11 12 10 10 10 9 9 9 9 9 9
16 17 18 18 19 20 20 21 20 21 21 19 17 15 13 17 20 17 17 18 19 17 15 14 13 12 11 10 10 10 10 9 9 10 10 10 9 9 8 8 8 8 8
17 18 21 22 18 18 19 21 21 22 23 24 19 19 18 16 19 18 18 20 21 19 18 17 15 14 13 12 10 9 9 9 10 10 9 9 9 8 9 8 7 8 7
24 26 26 24 23 22 21 20 21 23 22 24 25 21 20 20 22 21 22 22 22 21 20 19 19 15 13 12 11 10 10 10 10 9 9 9 8 7 7 7 7 7 7
24 25 25 23 22 22 21 21 22 21 21 22 25 23 21 22 21 21 22 23 24 23 23 23 22 22 19 17 15 14 11 10 10 11 10 9 7 6 6 6 6 6 6
21 24 25 25 23 21 22 21 21 20 20 19 20 23 24 25 26 27 26 25 25 26 26 25 24 23 21 19 17 14 12 12 12 11 9 9 8 6 5 6 5 6 5
25 22 23 20 21 21 21 21 21 20 18 17 19 22 24 25 26 28 28 28 31 29 29 28 27 24 22 21 18 15 13 12 12 11 10 9 8 7 6 5 5 5 5
21 20 20 20 17 18 20 19 19 20 20 20 20 22 23 25 25 26 26 25 26 30 32 31 29 26 24 22 20 17 14 12 12 11 10 9 8 7 6 6 5 4 5

GFSGL_850_spd_021.txt.gz
Wind_Speed
5 1 7 6 6 5 8 10 11 13 14 15 16 17 16 16 18 20 23 22 21 20 15 15 16 16 18 20 24 26 28 29 34 37 36 34 31 29 29 29 30 30 30
6 9 9 8 7 9 10 11 13 14 15 16 17 16 17 18 18 18 22 19 15 14 13 15 17 18 21 24 26 26 27 28 31 36 37 33 30 28 29 28 27 24 26
11 10 11 11 11 11 12 13 14 15 16 17 17 17 18 16 21 16 17 15 13 13 13 14 17 19 23 24 22 23 25 26 27 29 34 31 30 28 27 25 24 24 23
10 13 13 13 13 13 14 14 15 16 17 17 17 18 18 18 16 14 12 12 12 13 11 13 18 21 20 18 22 20 20 22 23 24 27 27 26 25 25 26 24 22 23
14 14 14 14 14 14 15 16 16 17 16 17 17 18 18 17 13 10 12 11 11 12 15 18 19 20 26 26 22 19 18 19 20 22 25 28 25 26 24 27 24 20 20
15 14 14 14 14 15 16 17 17 16 17 17 17 16 15 12 14 16 13 9 11 15 18 18 16 17 16 21 19 22 22 20 22 25 25 27 27 25 24 26 24 21 22
13 13 14 14 15 15 16 17 17 17 17 17 15 13 12 11 15 13 11 14 12 15 16 15 15 14 17 16 18 22 21 21 24 26 25 24 25 23 24 24 21 20 21
11 12 13 13 16 15 15 16 17 17 17 15 14 13 11 13 15 15 13 15 13 13 13 13 13 14 15 22 23 19 19 19 19 20 22 26 26 26 25 24 23 23 22
10 11 12 13 14 16 16 16 17 17 16 15 14 12 12 14 17 18 15 15 13 13 12 12 13 14 16 22 22 19 19 19 17 21 24 26 23 20 18 19 19 20 21
9 9 14 13 13 16 16 16 16 15 13 15 13 12 12 14 19 19 16 16 12 12 12 11 15 21 23 22 21 20 19 19 22 22 19 18 17 17 19 16 15 17 17
12 14 13 13 14 15 15 15 14 13 13 13 14 12 11 14 15 18 18 16 11 12 11 11 10 20 20 20 19 18 18 25 21 17 18 16 16 16 15 14 15 17 18
15 15 13 14 14 13 15 15 14 15 14 13 14 15 13 14 17 20 18 14 14 15 14 11 14 18 19 18 17 17 20 16 17 17 15 14 15 16 15 15 15 16 17
16 14 13 13 13 14 16 16 17 15 14 13 12 12 12 14 15 16 17 16 15 14 13 13 17 17 16 15 14 18 18 14 15 15 14 14 16 17 17 20 17 13 12
13 12 12 14 16 17 14 15 15 14 14 14 12 12 14 12 11 14 16 15 15 16 12 15 19 13 15 16 15 12 13 14 15 14 15 15 15 16 17 16 18 22 10
15 15 15 16 14 18 15 16 15 14 14 13 14 14 15 18 15 17 15 14 15 15 18 19 12 12 12 11 12 12 12 12 13 14 14 14 15 14 15 16 16 17 15
15 16 14 14 16 16 17 18 17 18 16 20 23 24 24 22 19 18 18 17 17 17 17 12 11 13 12 12 12 12 12 12 13 12 12 13 14 14 14 15 15 14 15
15 15 15 16 16 17 19 20 20 18 19 20 21 22 22 22 20 18 17 16 16 18 17 11 13 14 12 11 11 12 12 12 14 12 12 12 13 13 14 13 13 13 12
15 16 17 17 21 21 20 22 21 22 23 23 22 21 21 20 20 19 17 17 18 18 15 14 13 12 12 11 11 11 12 11 10 11 10 11 12 11 11 12 12 12 12
17 16 22 20 20 22 25 25 22 23 23 25 24 22 20 19 18 17 18 21 18 18 16 15 14 15 15 13 13 14 13 12 11 10 9 11 11 11 10 10 11 11 11
18 21 23 25 26 28 28 24 25 24 24 25 25 23 19 18 20 20 20 20 21 21 20 19 18 16 16 16 15 14 11 11 11 10 10 9 10 9 10 10 9 10 10
23 25 27 29 30 29 28 28 24 26 27 27 25 25 25 21 22 20 22 22 21 21 21 21 21 20 20 20 17 14 12 10 11 11 9 8 9 7 9 9 10 8 8
27 28 27 27 27 28 28 27 28 24 25 25 25 24 26 26 26 23 22 23 24 24 24 23 21 21 22 21 16 16 14 13 11 10 9 9 7 7 7 7 9 9 8
29 26 26 26 27 29 28 28 26 24 25 25 24 23 23 26 26 23 23 22 21 23 25 26 26 25 24 25 24 20 16 13 12 12 10 8 7 6 7 6 7 8 8
23 24 25 24 25 25 25 26 25 23 23 23 21 21 21 22 23 24 23 24 25 27 27 26 28 30 27 24 25 22 19 16 15 13 10 9 8 6 6 5 4 8 7
27 28 29 24 22 23 25 22 23 24 21 19 19 20 20 20 21 22 23 24 25 25 27 29 31 31 27 26 26 23 20 17 14 13 12 9 9 8 6 5 5 3 6
35 31 29 22 21 21 22 24 26 22 21 21 23 23 22 23 24 25 25 26 27 27 27 27 27 31 31 28 26 25 23 21 16 14 12 11 9 7 5 6 6 4 3

GFSGL_850_spd_027.txt.gz
Wind_Speed
23 20 18 14 13 13 12 11 11 13 15 17 19 18 18 17 16 19 19 21 23 21 21 16 13 13 13 10 11 16 20 24 28 32 36 37 38 39 39 38 30 27 25
27 21 16 13 14 13 11 11 13 13 15 20 20 20 20 16 16 20 22 22 21 17 16 14 14 9 12 14 18 22 25 26 32 36 36 35 35 33 28 27 25 24 27
28 22 17 14 14 13 10 14 14 16 18 20 20 21 20 17 18 20 20 12 15 16 16 17 17 15 17 19 22 25 28 32 29 26 31 30 26 24 24 22 23 27 27
27 20 18 13 14 13 19 16 16 17 21 22 23 25 18 18 19 20 21 19 18 15 15 16 14 16 18 20 24 29 28 28 25 28 29 25 25 24 23 26 29 29 32
26 19 16 14 14 19 14 15 13 20 20 24 22 19 20 22 21 22 23 18 18 17 14 14 16 18 21 24 25 25 27 26 28 30 27 27 28 28 27 28 29 34 40
28 20 14 10 12 13 12 12 14 21 21 20 20 20 22 23 22 25 22 16 15 14 16 17 19 23 23 21 22 24 24 27 29 24 25 26 27 22 23 30 36 36 34
22 12 16 19 16 11 9 8 18 22 23 19 21 23 24 22 21 21 20 19 18 17 18 17 18 21 20 21 22 25 23 24 21 21 21 24 28 28 30 33 24 26 28
14 22 19 13 10 9 5 11 16 23 20 21 24 24 23 22 19 20 20 19 19 18 18 18 18 18 18 21 23 23 24 22 19 15 20 27 29 24 18 19 23 28 28
24 21 14 7 3 4 9 13 20 21 26 23 19 21 20 19 18 17 19 19 19 20 19 18 16 17 19 21 23 25 25 20 17 16 16 16 14 12 13 17 21 21 27
14 13 12 5 5 7 11 18 19 24 16 19 19 20 20 22 22 23 23 21 20 18 19 17 16 18 19 20 23 24 21 17 17 16 19 16 10 12 13 14 17 21 25
7 3 8 6 6 13 16 16 16 21 24 24 18 20 23 25 23 20 19 19 18 17 18 15 18 18 18 20 21 17 14 15 18 18 23 19 15 15 15 14 13 18 25
15 8 3 7 14 14 12 17 21 22 19 17 19 18 21 23 23 20 19 18 19 18 17 15 16 17 14 17 13 11 13 15 18 20 22 23 22 17 16 16 16 16 19
3 6 11 12 11 13 18 19 17 17 18 21 23 22 19 22 22 21 18 18 19 18 17 16 17 13 16 13 12 13 13 16 18 19 22 23 21 16 17 18 15 15 15
9 12 12 12 14 14 15 15 15 16 19 24 26 21 23 21 20 22 20 19 17 19 18 18 19 18 19 15 13 14 14 15 17 19 21 24 17 17 17 13 15 17 19
13 13 13 13 14 15 16 16 15 17 21 24 24 22 20 23 24 23 23 21 21 22 20 21 23 22 21 17 14 15 13 14 18 21 22 22 18 18 16 12 13 16 17
15 15 15 16 16 17 18 17 17 22 24 24 26 25 23 23 23 26 28 28 24 21 23 24 24 24 22 17 14 15 13 14 18 21 23 18 16 16 16 12 12 13 14
19 18 18 19 20 20 21 21 28 27 23 24 20 21 22 23 21 23 24 26 24 23 26 25 25 24 22 18 15 15 15 17 19 22 23 16 13 13 13 13 13 12 12
24 25 26 27 25 24 25 26 26 29 33 34 26 20 19 19 21 21 23 25 25 26 27 26 25 23 19 18 15 16 16 18 20 22 16 12 11 14 12 11 13 13 12
23 27 29 30 30 30 31 31 32 34 30 32 30 25 21 21 22 21 21 26 28 28 26 25 23 20 18 16 17 18 19 19 20 21 14 14 13 15 12 9 11 12 11
24 23 25 29 33 35 33 35 35 32 31 29 31 31 29 22 23 22 24 26 32 27 25 23 21 20 19 20 19 19 21 21 23 22 17 15 16 14 11 8 9 12 13
28 28 27 29 33 35 37 38 34 34 28 28 32 25 23 24 23 24 25 25 28 30 23 22 21 20 19 20 22 24 23 22 21 21 16 15 16 11 9 7 7 10 13
25 29 31 31 32 31 33 38 42 36 24 25 25 24 19 20 21 22 22 24 25 28 28 22 23 22 21 20 21 24 25 23 21 19 17 15 13 12 10 8 7 10 11
30 33 34 34 31 32 33 39 42 30 23 21 21 20 19 18 17 17 17 19 20 31 29 21 20 21 21 22 23 23 24 23 21 19 19 17 14 12 11 10 8 9 8
24 22 23 25 27 31 29 30 25 31 16 13 15 11 6 8 11 12 14 16 16 15 20 19 16 16 18 19 21 24 26 24 22 21 20 17 14 13 13 11 9 9 8
25 23 24 25 27 23 21 17 15 9 6 9 12 13 14 14 16 18 21 21 18 12 9 10 13 17 19 20 20 20 19 23 24 22 20 17 15 13 13 11 10 9 8
23 22 23 24 24 23 22 19 17 15 14 13 13 14 15 16 18 19 19 20 20 20 21 23 23 20 18 20 19 19 19 17 25 25 21 18 17 14 13 13 12 10 8

GFSGL_850_spd_033.txt.gz
Wind_Speed
30 27 30 29 29 30 30 29 28 24 21 17 17 11 10 13 15 18 17 16 16 18 19 22 22 20 19 20 21 19 17 18 23 30 31 32 33 31 31 29 27 26 25
32 30 26 25 27 28 30 28 24 22 18 17 13 10 10 13 17 20 17 17 18 18 18 21 22 18 18 20 19 17 20 20 22 30 34 32 32 30 30 28 26 24 23
33 28 25 27 27 29 28 25 25 23 19 15 15 7 10 15 19 20 20 17 19 18 18 18 21 18 19 18 19 20 20 23 25 27 30 32 32 30 29 28 26 25 25
29 27 27 28 29 29 27 25 23 17 16 15 9 7 11 20 21 19 18 19 18 18 18 19 19 18 18 20 21 22 24 24 23 25 29 30 30 29 28 28 32 31 32
30 30 29 31 30 26 25 21 17 19 15 10 9 8 18 22 21 18 20 18 18 18 18 18 19 18 18 20 22 22 22 21 22 26 28 30 29 28 27 29 30 30 24
31 30 31 29 24 21 20 24 20 19 13 10 14 23 17 22 17 19 18 18 18 18 19 18 19 19 21 22 22 21 20 20 23 25 28 28 27 26 27 26 25 25 28
33 31 31 27 25 25 24 22 18 11 5 16 24 15 21 21 21 20 18 19 19 20 20 20 20 20 21 21 21 20 19 21 23 26 26 23 24 23 25 26 22 23 25
28 28 27 27 24 21 20 16 7 9 21 26 13 19 23 22 18 17 19 19 20 21 21 22 20 20 19 20 19 20 21 21 22 22 20 19 19 22 21 22 22 25 29
23 21 20 19 17 11 6 9 19 23 13 13 19 19 21 22 21 19 17 18 21 22 22 22 21 18 18 20 19 20 21 21 21 16 16 16 17 17 20 22 23 24 30
19 20 17 8 4 7 13 17 15 10 14 15 18 21 24 24 22 20 19 21 22 22 22 22 21 19 19 18 19 19 21 19 16 15 15 15 15 16 20 18 19 21 24
15 13 12 16 16 16 11 10 12 13 14 18 22 22 22 20 20 20 20 23 24 23 23 24 22 21 20 19 18 19 18 17 16 16 16 15 16 19 21 19 18 19 21
9 12 13 8 8 10 11 12 13 15 19 21 23 24 21 21 22 21 21 23 25 29 28 24 23 22 22 20 19 17 17 17 18 17 16 16 18 20 22 21 20 16 16
3 3 6 9 11 13 15 16 18 19 22 23 25 25 25 23 25 25 23 22 26 31 33 27 25 26 24 23 21 19 17 17 17 17 17 16 19 21 23 22 19 15 16
5 8 10 12 14 15 17 19 21 22 24 26 26 26 27 29 26 24 24 25 26 27 29 28 33 33 25 25 23 22 20 18 19 18 17 18 19 22 24 20 20 19 19
8 10 11 13 15 17 19 21 23 25 27 30 29 29 30 30 26 26 26 28 27 28 27 26 25 27 26 29 26 24 23 20 20 18 17 18 19 22 22 17 17 17 16
14 16 18 21 22 24 26 29 27 28 29 30 32 32 33 32 31 30 27 27 26 24 24 27 26 28 28 29 27 24 23 22 19 18 15 16 17 21 18 16 15 15 17
18 20 23 25 27 29 30 32 37 41 35 34 33 35 38 39 37 29 28 26 24 24 28 28 28 31 28 29 24 23 23 20 17 19 15 14 16 18 16 15 15 15 16
20 22 24 26 28 29 30 31 30 31 37 41 39 38 33 29 29 27 27 27 30 28 27 29 30 29 31 30 23 22 21 20 20 21 17 14 15 16 16 16 15 15 15
25 26 28 28 28 28 30 30 31 31 32 33 35 35 32 34 26 28 25 27 28 29 27 27 26 30 27 27 24 22 21 21 21 21 18 15 15 16 16 16 14 13 14
26 26 28 28 28 28 28 28 28 28 29 31 31 33 34 32 37 34 26 19 23 24 23 23 24 25 26 25 22 22 21 21 21 21 18 16 15 16 15 15 13 13 11
27 27 27 26 26 25 25 24 23 24 25 27 28 30 31 34 29 27 22 20 20 19 19 21 22 23 24 23 21 23 22 21 22 21 17 15 16 16 14 14 12 12 11
25 25 25 25 25 25 24 23 23 23 24 25 24 21 15 11 9 11 13 15 16 12 12 16 19 20 19 19 20 22 22 20 20 19 18 16 16 16 15 13 11 10 10
24 24 24 24 24 24 23 23 23 23 24 24 25 26 24 23 18 13 6 4 5 10 13 13 15 16 19 19 16 16 20 19 19 18 19 19 19 18 17 14 12 10 8
23 23 24 24 24 24 23 24 24 24 24 25 25 25 25 26 26 25 23 22 19 15 16 19 20 19 12 13 14 18 18 17 17 17 18 18 18 19 18 15 13 10 8
22 22 23 23 23 24 23 23 24 25 25 26 26 25 25 25 25 25 25 25 24 22 19 19 19 18 21 17 13 13 14 12 13 16 17 18 20 19 20 16 13 11 10
22 22 22 22 22 22 23 24 24 25 26 26 26 25 25 24 24 25 24 23 23 21 19 18 16 17 17 18 21 18 17 18 18 19 19 18 17 20 22 18 15 13 12

GFSGL_850_spd_036.txt.gz
Wind_Speed
25 25 28 29 28 27 28 24 26 29 31 24 22 18 11 10 9 8 13 14 12 11 13 14 15 17 17 16 16 18 19 20 24 28 26 26 29 29 29 29 28 28 28
21 26 28 29 27 24 22 25 28 30 26 22 17 12 12 10 7 10 17 14 15 14 15 16 16 17 18 16 18 18 20 21 24 26 29 30 30 29 29 29 27 25 25
22 25 26 27 24 22 23 26 27 27 22 18 12 11 13 8 7 15 18 17 17 18 18 16 16 17 18 18 17 19 21 21 22 27 29 29 30 28 30 29 27 28 27
23 25 25 26 23 26 27 27 25 21 20 19 14 14 11 8 17 16 20 20 19 20 19 18 17 17 18 18 18 20 20 22 22 24 25 27 29 29 28 29 30 28 28
25 25 26 27 27 27 27 25 24 21 22 21 18 16 11 22 24 17 21 19 21 21 20 19 18 18 19 18 19 20 21 21 20 21 24 26 29 29 27 26 28 30 28
25 24 28 28 29 27 25 24 26 29 26 24 20 14 26 25 15 19 21 21 22 22 22 20 19 19 20 20 21 21 21 20 20 21 24 26 27 26 24 25 26 27 25
23 26 27 27 24 21 20 19 20 22 23 20 15 22 27 19 18 23 24 24 22 22 24 21 21 21 21 21 21 21 21 19 20 22 25 25 24 21 22 24 25 25 26
18 20 21 21 20 18 19 20 19 12 10 17 24 26 15 19 21 21 22 22 23 23 24 23 23 24 23 21 20 21 20 20 21 23 24 21 20 19 20 22 26 28 29
10 12 12 14 17 18 16 15 13 21 23 25 20 16 20 21 23 23 23 23 23 22 23 25 25 25 23 21 21 21 21 21 20 22 20 18 17 17 19 22 24 25 30
6 10 12 13 11 12 13 17 21 17 16 15 17 18 21 24 22 22 20 22 24 24 25 28 27 25 24 23 23 21 22 20 19 19 17 16 16 16 18 19 21 23 25
5 4 5 9 15 17 13 11 11 13 15 17 19 21 24 24 24 23 21 22 23 26 26 28 30 27 28 24 24 24 22 18 19 18 17 16 15 15 17 18 19 19 22
1 3 6 6 6 8 10 11 14 16 19 21 24 26 25 25 25 25 24 25 24 24 29 30 30 30 32 27 26 26 22 20 20 19 18 17 16 16 18 20 20 18 18
3 3 4 7 9 11 13 15 17 19 23 25 26 29 31 28 27 25 26 26 24 25 27 28 28 29 31 32 30 28 24 22 22 21 21 19 16 17 19 22 20 18 18
3 5 8 10 12 14 16 18 21 22 24 26 28 31 33 33 30 29 27 25 26 26 26 28 29 28 29 26 32 33 27 23 22 22 22 19 17 16 18 21 21 19 19
8 10 12 15 17 20 21 23 25 26 26 29 32 34 36 39 38 35 33 33 32 29 27 27 27 28 30 26 25 29 28 24 24 23 22 20 17 16 16 19 17 17 18
12 14 17 21 23 25 28 31 29 30 31 30 30 29 34 34 36 35 33 37 38 29 26 28 27 27 27 27 27 28 25 27 25 24 23 21 18 16 15 15 16 17 17
16 19 21 24 26 27 29 31 36 36 32 31 30 27 25 30 30 30 29 30 29 23 26 29 29 27 26 29 27 31 27 23 22 23 24 22 18 16 14 14 15 16 16
18 19 21 23 25 26 26 27 28 31 36 37 32 29 29 29 30 31 31 28 25 25 27 27 28 28 27 25 26 27 24 22 20 22 23 22 19 16 13 13 14 15 15
20 22 23 24 24 25 26 27 27 27 28 30 33 33 32 33 33 31 27 25 30 28 27 23 23 23 23 24 23 23 24 22 21 21 22 22 20 17 12 13 13 13 13
21 22 24 24 25 25 26 27 27 26 27 28 28 28 31 33 35 27 22 26 24 24 21 23 21 19 19 21 23 23 24 22 22 22 21 21 19 17 13 12 12 12 11
22 23 24 24 24 25 25 25 25 25 26 27 27 27 28 29 29 28 25 14 10 9 10 14 15 15 17 18 20 22 22 21 22 21 20 19 19 18 14 13 11 11 10
22 22 23 24 24 24 24 24 24 25 26 27 28 27 27 27 27 27 26 25 23 21 14 6 7 10 13 17 18 19 17 18 21 20 20 20 19 18 16 15 12 10 9
21 21 21 22 23 23 23 23 24 25 26 26 27 28 28 27 27 26 26 25 25 25 24 21 17 11 12 15 16 16 19 17 17 20 19 19 19 19 17 16 13 11 8
21 21 21 22 22 22 23 23 23 24 25 26 27 27 27 27 26 26 27 26 26 24 23 22 21 19 17 17 17 15 15 15 14 16 19 19 21 21 20 18 16 12 9
20 20 20 21 22 23 23 23 24 24 25 26 26 26 26 26 26 26 26 26 27 26 24 21 19 18 17 16 15 15 14 13 14 15 16 19 20 20 19 20 18 14 11
19 19 20 21 22 23 24 24 25 25 25 26 26 26 26 26 26 26 26 26 26 25 24 22 18 16 15 14 14 13 14 14 13 12 14 13 15 17 18 21 21 16 13

GFSGL_850_spd_039.txt.gz
Wind_Speed
25 23 25 19 20 23 24 27 27 29 34 34 32 26 21 16 11 8 6 11 15 13 12 12 13 13 15 15 15 16 15 17 19 20 19 18 25 27 25 27 29 29 29
18 17 17 17 19 22 23 25 25 28 33 33 28 23 15 14 13 10 11 19 12 15 14 15 14 15 15 16 16 17 17 16 18 22 20 19 21 22 26 28 27 27 27
15 17 20 22 24 25 23 20 22 27 30 31 27 22 20 18 14 14 16 16 15 18 18 18 18 17 17 17 17 18 18 20 22 22 23 20 20 18 20 22 22 25 23
19 20 21 21 18 19 18 20 20 24 25 28 24 20 18 21 17 16 25 20 18 22 22 22 21 20 18 18 18 19 20 22 20 21 21 20 19 18 20 20 21 20 22
13 14 14 14 15 16 18 18 18 20 24 25 26 25 25 20 17 26 25 18 22 23 23 24 23 22 20 19 20 20 22 22 19 19 20 19 19 18 19 18 20 21 21
8 9 11 12 15 18 18 17 17 20 25 26 24 19 21 28 29 30 19 20 23 24 26 26 25 24 22 21 21 21 23 22 21 18 18 19 19 19 17 17 19 19 23
6 9 11 13 15 16 16 19 20 21 25 22 22 29 32 30 27 19 20 24 26 26 26 26 27 27 23 23 24 24 24 23 23 20 20 19 20 18 16 17 17 20 23
3 4 6 7 10 11 13 15 15 17 16 25 22 25 24 26 19 19 21 26 28 28 27 26 27 27 27 25 26 26 25 25 23 22 23 22 22 20 18 16 19 21 22
4 2 1 3 5 7 9 11 9 17 15 18 23 20 20 18 16 21 25 25 25 25 26 27 26 26 29 28 29 29 27 26 23 21 23 22 21 19 18 16 18 21 23
9 8 6 3 1 4 6 12 15 15 14 15 16 17 19 20 22 24 24 27 28 27 27 28 29 29 31 30 31 30 30 27 23 22 22 21 19 19 17 16 16 19 20
9 6 3 3 7 9 7 6 7 10 13 15 18 19 22 24 26 25 26 27 29 29 30 29 28 29 30 29 32 33 35 26 25 23 22 20 19 16 15 14 15 17 18
5 2 1 1 2 4 6 8 11 14 17 19 22 25 26 26 26 27 27 28 28 31 33 31 27 26 28 31 32 35 33 31 29 26 23 22 20 17 15 15 16 18 18
4 2 1 4 6 8 10 12 14 17 20 23 26 29 31 31 32 30 29 29 29 32 33 31 29 27 27 30 31 31 29 36 32 29 25 23 20 17 17 19 20 20 19
2 2 5 7 9 11 13 16 18 20 22 25 26 28 32 34 31 26 31 31 33 34 33 34 33 30 28 29 30 30 26 29 35 34 25 22 20 19 18 18 19 16 15
2 5 7 10 13 15 17 19 20 20 20 22 23 24 27 31 30 30 30 30 29 33 34 30 32 30 28 27 26 24 23 25 30 33 28 24 22 20 19 18 18 17 14
6 8 11 14 16 18 20 21 21 22 22 21 20 20 20 23 30 33 35 35 33 28 27 31 31 29 27 26 25 23 21 23 29 28 31 27 24 21 19 18 17 16 13
9 11 14 16 18 20 22 24 26 25 25 24 22 22 22 25 26 28 31 31 29 29 28 26 26 25 25 26 25 22 20 23 22 28 26 25 24 22 21 18 16 14 12
11 13 15 17 19 20 22 23 24 25 27 26 26 26 27 27 26 28 33 29 21 19 18 22 23 24 24 25 24 23 19 19 21 20 23 23 24 23 22 19 16 13 11
12 15 16 17 18 20 21 22 23 24 26 27 28 28 29 29 28 25 25 27 25 18 16 18 22 25 18 20 20 17 18 19 20 19 23 23 22 22 22 19 16 13 12
14 16 16 17 18 19 20 22 23 24 25 26 27 29 32 32 31 30 26 24 23 23 24 19 13 9 15 18 14 16 17 18 20 22 22 25 22 22 22 19 16 13 11
15 16 16 17 18 19 20 21 22 22 23 25 25 25 26 28 29 27 26 24 23 22 23 22 22 18 8 8 13 13 15 17 17 17 19 24 21 22 22 20 16 13 11
15 15 16 17 18 18 19 20 20 21 22 24 25 25 25 25 26 26 26 24 23 22 21 21 21 20 19 17 9 9 12 15 15 16 15 22 20 21 22 21 18 15 12
14 15 15 16 17 18 18 19 20 21 21 22 24 25 25 25 25 25 26 26 25 23 22 21 21 20 20 19 17 13 14 16 16 16 14 19 21 23 23 21 20 17 13
15 15 15 16 17 17 18 18 19 20 21 22 24 24 25 25 26 25 25 26 26 25 23 21 21 21 21 20 18 16 16 15 15 14 14 15 22 22 23 21 20 17 14
14 15 15 16 17 17 17 18 19 20 21 23 24 24 25 25 26 26 26 26 26 26 25 22 21 21 20 20 16 16 15 15 13 12 13 14 20 24 24 23 21 19 17
15 15 16 16 17 17 18 19 20 21 22 23 24 24 25 26 26 26 26 26 27 26 25 22 21 19 19 18 15 13 13 12 12 10 10 14 17 23 25 23 22 22 19

GFSGL_850_spd_042.txt.gz
Wind_Speed
18 26 28 25 23 20 18 18 18 20 21 26 27 33 32 28 24 20 11 13 10 19 12 13 13 13 13 14 15 16 17 17 21 22 19 19 20 22 21 22 23 24 24
15 17 15 16 17 19 19 20 21 21 22 26 29 33 31 27 22 17 16 14 15 16 14 16 17 15 16 16 17 19 19 19 22 25 22 21 22 22 22 22 21 22 23
12 14 16 18 21 21 21 21 21 18 17 25 28 29 24 20 16 16 20 15 23 17 18 19 20 20 20 19 20 20 20 20 21 22 24 22 22 21 22 22 21 21 20
13 15 16 17 15 14 14 13 14 14 17 23 27 25 23 20 22 24 20 25 24 24 21 21 23 24 23 22 22 22 21 22 22 22 23 23 21 20 20 22 22 20 21
8 8 9 9 8 9 8 10 12 15 17 20 21 22 24 27 25 25 28 31 28 22 21 22 23 25 27 26 25 23 22 22 22 22 23 22 22 20 20 21 22 20 21
5 5 4 5 6 7 9 11 12 13 14 16 22 27 26 28 31 33 32 34 31 22 22 22 23 26 30 30 30 28 26 24 24 23 24 23 22 20 20 20 20 20 22
5 3 2 3 4 6 7 8 10 11 13 14 21 22 21 27 32 28 29 28 22 21 22 23 23 23 28 26 27 30 29 28 30 26 25 24 22 20 20 20 19 20 22
7 6 5 4 2 1 1 2 3 5 8 9 10 15 20 21 23 22 22 22 23 23 23 23 24 25 25 27 25 27 25 25 27 29 27 23 21 19 18 18 18 20 20
12 11 11 10 8 7 5 3 1 1 6 10 13 17 18 18 17 17 19 24 23 24 23 24 24 24 25 29 33 29 29 29 27 31 30 27 27 27 24 20 18 18 21
13 13 12 10 8 6 2 5 7 8 8 8 8 10 14 17 19 20 22 26 25 26 26 25 26 29 26 29 33 33 31 30 28 27 27 28 27 26 23 22 17 18 19
12 9 6 3 2 2 3 2 2 4 7 9 13 14 16 17 20 23 23 25 26 29 30 30 27 28 31 28 29 34 36 31 27 31 28 22 19 18 18 18 17 18 19
7 6 4 5 4 2 2 4 6 7 9 11 13 15 15 16 19 21 25 26 28 30 33 34 33 33 33 30 29 32 32 33 32 33 33 27 22 20 19 18 18 19 19
8 8 6 3 2 2 3 5 5 7 9 11 13 14 15 16 20 24 23 23 26 30 31 35 38 36 35 36 35 33 31 32 31 32 30 32 30 20 17 17 17 18 18
9 6 4 1 2 4 5 6 7 10 11 13 13 14 16 16 17 23 28 30 31 33 32 33 35 37 37 31 35 35 29 27 27 29 30 28 28 21 17 16 15 16 16
7 5 2 1 2 4 6 8 9 10 14 15 15 16 16 16 21 25 27 29 32 36 37 36 36 33 30 28 29 26 25 21 21 22 24 27 28 22 19 15 16 15 16
5 3 0 2 4 4 5 5 14 12 13 14 15 17 19 21 24 26 28 29 31 32 28 24 28 29 31 29 28 20 18 18 19 19 23 27 26 22 20 16 16 15 15
4 1 2 3 5 6 7 7 7 10 17 18 19 19 22 23 26 27 28 29 25 27 18 17 19 23 23 21 24 20 20 18 18 17 21 21 25 25 23 18 16 15 14
2 2 3 5 6 7 8 9 9 10 12 12 15 21 23 23 24 24 26 25 21 19 19 20 21 21 22 22 22 20 17 17 17 18 18 20 21 24 23 19 17 16 14
1 4 5 6 7 8 10 10 11 12 13 13 15 15 21 24 25 22 21 17 19 19 19 19 20 21 21 20 13 19 18 15 15 17 18 17 18 24 22 18 16 16 14
3 6 7 7 8 9 11 11 12 13 14 13 14 16 22 26 21 19 18 17 17 18 19 20 20 20 20 21 20 6 6 14 13 14 16 18 18 23 21 18 18 17 12
5 7 8 8 9 10 11 12 13 14 15 14 14 17 22 23 18 17 17 17 17 18 19 19 20 20 19 19 19 18 15 7 9 12 14 17 17 23 22 18 19 17 13
6 7 8 9 10 11 11 13 14 15 15 14 16 18 22 18 17 17 17 17 18 18 18 19 21 20 20 20 20 19 18 17 9 9 12 16 13 20 21 18 20 18 13
8 8 9 10 11 12 12 13 14 15 16 16 18 19 19 18 19 18 18 18 19 21 20 21 21 22 21 20 20 19 19 18 17 14 14 13 16 18 21 20 21 18 15
9 9 10 11 12 12 13 14 15 16 17 17 18 17 18 19 18 19 19 20 22 22 22 23 24 22 21 22 21 20 20 20 19 18 15 15 15 16 22 21 21 19 16
10 11 11 12 13 13 13 14 15 16 16 17 17 17 18 19 19 19 19 22 23 24 25 25 23 22 23 22 21 20 20 20 18 16 16 15 15 16 22 22 21 20 18
12 12 13 13 12 13 14 15 15 16 17 17 18 18 19 19 20 21 23 23 24 26 25 23 22 21 21 21 20 18 18 19 17 14 14 14 14 15 19 23 23 23 21

GFSGL_850_spd_045.txt.gz
Wind_Speed
27 21 28 32 24 21 21 17 19 24 24 23 26 28 27 28 28 26 21 17 16 19 16 17 15 17 19 19 18 18 18 18 23 24 21 20 21 21 23 25 22 24 26
24 20 25 26 21 23 20 18 20 20 20 22 22 25 24 27 24 22 20 17 21 18 17 16 14 19 21 21 21 20 20 21 23 26 25 24 24 23 24 24 25 24 25
18 17 19 19 19 20 20 20 19 18 21 20 21 22 27 24 22 23 20 24 23 22 21 17 20 20 24 25 24 24 23 24 24 25 27 26 25 24 24 24 24 24 26
16 16 14 15 17 15 14 14 13 13 16 17 18 21 22 20 21 25 23 24 20 27 25 23 22 23 25 26 27 28 26 28 27 27 28 27 26 25 23 25 26 24 24
13 12 12 10 8 6 3 4 6 8 10 12 13 16 18 19 22 22 22 18 26 31 28 29 23 22 24 29 31 31 28 29 28 28 28 27 27 26 24 24 24 25 26
13 11 10 9 8 9 9 8 6 6 8 7 8 8 10 13 15 22 17 21 31 30 30 23 21 24 27 29 31 32 39 38 34 32 30 29 29 27 24 23 23 24 27
14 13 12 10 9 8 6 4 3 2 2 2 3 5 7 7 13 15 22 26 27 27 22 21 23 24 26 27 29 33 34 35 38 42 38 33 31 28 25 23 23 24 26
15 13 11 10 8 7 7 6 5 4 2 1 2 4 8 12 15 19 20 22 21 20 21 23 25 27 27 28 30 32 33 33 34 34 37 39 36 29 25 23 22 22 24
14 13 12 11 11 11 9 6 5 4 4 5 5 8 11 15 12 14 17 18 19 22 23 24 26 28 30 31 33 36 38 38 36 34 36 34 35 30 31 24 25 21 26
15 14 13 11 10 9 7 6 3 3 1 0 1 3 7 9 12 16 19 20 23 24 24 26 28 31 33 34 35 36 36 37 36 33 31 32 35 40 39 38 31 25 23
15 14 11 9 6 5 7 6 5 3 2 3 5 5 6 8 8 17 22 24 25 29 32 34 34 34 33 36 36 35 39 37 35 36 36 29 32 28 26 27 26 22 21
13 9 9 10 9 7 6 4 2 1 1 3 5 6 6 6 11 19 23 26 28 29 32 33 32 34 37 40 42 44 40 36 34 34 35 36 33 30 31 25 25 23 20
12 12 10 9 7 6 4 2 1 1 2 4 6 6 7 9 9 18 23 26 28 30 32 34 36 38 38 39 37 36 36 35 38 37 35 33 33 32 29 31 27 22 20
13 11 10 9 6 5 4 2 1 1 3 5 6 7 9 11 11 23 26 27 28 30 32 36 36 35 31 30 32 32 29 28 33 32 25 27 27 28 28 27 23 20 20
12 10 9 8 6 4 3 3 3 8 8 9 10 11 14 15 19 22 25 27 28 29 31 30 27 27 28 30 30 29 29 30 26 22 21 23 24 24 26 27 26 21 19
12 10 9 7 6 4 3 5 8 9 9 10 12 13 14 18 19 21 23 25 24 24 23 23 25 25 26 25 24 24 26 27 20 17 20 21 21 22 24 23 24 22 18
11 9 8 5 4 4 2 2 2 12 14 16 17 16 17 18 20 22 24 23 20 20 16 19 22 23 24 24 24 27 28 18 18 18 19 18 18 21 23 25 26 23 19
10 9 6 3 3 2 3 4 4 6 6 6 12 17 20 19 20 21 21 19 15 15 16 18 21 23 23 23 24 23 24 21 17 17 17 18 18 20 23 24 26 24 18
7 5 4 5 6 6 6 6 6 7 7 8 9 10 15 22 21 18 18 14 16 17 17 18 19 22 23 23 22 22 23 21 14 18 16 15 17 17 21 24 25 22 18
4 4 4 5 6 6 6 6 6 7 7 8 9 11 15 21 19 14 15 15 16 17 18 19 19 21 23 22 22 22 22 21 18 11 16 15 15 17 19 22 24 20 19
6 5 6 6 7 8 8 8 8 8 8 9 9 12 21 20 14 15 15 15 17 18 18 20 21 21 22 22 21 21 21 20 18 17 13 5 12 16 17 21 24 21 19
6 7 7 8 8 10 10 10 10 9 9 10 11 12 17 14 14 15 15 16 18 19 18 20 21 21 21 21 21 21 21 20 20 16 17 14 6 13 16 19 22 22 20
7 8 8 9 10 12 10 10 9 9 10 11 12 13 13 13 14 15 16 17 18 20 21 20 21 22 22 20 20 21 20 20 20 20 21 20 16 13 13 17 21 22 20
8 9 10 10 12 11 9 11 10 11 12 12 12 13 13 14 15 16 17 18 19 19 21 21 23 24 21 22 22 21 22 22 21 22 22 21 20 16 14 16 21 23 20
10 11 11 11 11 9 10 10 11 11 12 12 13 13 14 14 15 16 17 18 20 20 22 25 22 21 23 23 22 20 19 20 21 21 21 21 20 18 17 15 21 24 21
11 11 11 11 9 10 11 11 11 12 13 13 14 14 14 15 16 16 18 19 19 24 25 22 22 21 21 20 19 18 19 19 20 19 19 20 19 16 14 15 20 24 21

GFSGL_850_spd_048.txt.gz
Wind_Speed
34 39 43 45 40 34 32 31 27 22 22 23 22 25 25 25 29 31 30 26 22 22 23 17 18 20 18 19 20 23 25 25 27 28 24 22 23 22 21 23 26 28 33
32 35 30 31 38 32 31 27 23 21 21 21 22 22 23 26 31 31 27 21 23 26 20 17 16 15 16 19 23 25 29 28 29 32 30 30 29 28 29 30 29 30 32
26 29 20 21 28 25 24 22 21 21 22 23 19 20 22 25 26 24 20 22 26 22 20 18 18 18 20 21 25 28 30 30 31 31 33 32 30 28 30 28 29 28 29
19 22 24 25 29 25 24 21 20 21 19 18 19 21 22 22 23 22 21 21 22 21 20 20 24 23 24 24 27 29 29 31 33 34 35 35 33 32 29 28 29 28 28
19 22 24 25 19 18 16 15 17 18 17 16 17 16 15 17 17 14 14 17 19 20 19 22 29 25 22 20 24 29 32 36 38 35 32 32 31 30 28 27 24 23 26
20 20 18 15 13 10 10 9 10 11 10 8 7 8 9 9 9 11 10 15 14 19 23 30 26 18 18 23 26 29 31 35 38 40 43 41 38 32 27 26 25 26 29
20 19 18 18 18 18 15 13 11 9 8 7 7 6 6 6 7 7 8 11 18 23 24 22 20 21 22 27 31 33 35 35 35 40 43 43 43 43 42 38 30 27 31
19 19 18 17 15 14 13 12 11 10 8 7 7 6 4 6 7 9 13 17 17 17 16 17 22 25 26 27 31 35 38 39 40 36 39 41 41 39 40 37 33 35 29
19 17 16 15 15 14 14 12 10 8 9 11 9 6 6 6 6 9 13 15 16 18 21 24 25 28 29 31 33 36 39 42 42 43 40 41 38 39 35 35 33 33 35
19 18 17 16 16 15 14 14 11 10 7 7 6 5 1 5 8 12 15 19 21 25 27 28 30 32 33 34 38 42 45 45 41 38 38 38 36 35 38 38 32 34 38
21 20 20 19 16 12 9 10 11 11 10 12 10 8 7 10 12 15 17 20 25 28 30 32 34 35 35 35 36 40 43 45 45 47 50 43 34 35 35 33 29 30 33
23 20 16 13 12 13 14 14 13 10 9 6 7 6 7 10 12 18 21 21 22 26 29 31 33 34 34 34 33 32 30 30 35 37 37 37 34 35 31 28 29 28 27
18 17 17 16 15 14 12 12 11 9 11 11 9 8 8 11 15 19 19 20 23 25 27 29 30 31 30 28 29 28 30 30 29 29 31 32 31 29 29 26 25 28 31
19 17 17 16 14 14 11 11 13 13 10 8 8 9 11 12 17 18 20 22 23 25 27 28 28 26 27 28 29 28 26 23 29 34 32 28 26 22 23 22 24 30 30
19 18 18 17 13 15 14 11 10 7 7 8 10 10 12 13 16 18 20 22 23 24 26 25 23 23 30 29 29 28 27 31 29 28 32 30 20 19 23 21 21 24 24
22 20 17 18 15 8 6 7 7 7 8 8 9 10 12 14 14 17 18 19 20 20 21 20 20 25 27 29 28 29 28 28 28 29 20 16 19 19 18 20 22 24 24
22 18 16 14 13 13 9 6 6 9 10 10 12 13 11 14 14 16 19 19 16 14 15 17 20 23 25 27 27 27 29 28 26 26 22 21 18 18 17 17 21 23 22
16 16 13 10 8 7 7 8 10 11 10 11 12 14 20 22 17 18 19 17 15 14 13 16 19 22 23 25 27 25 26 28 27 24 21 17 16 16 15 17 20 23 24
17 12 9 7 3 5 8 8 9 9 9 10 9 9 15 23 21 17 11 15 16 16 17 19 20 21 23 24 25 25 25 26 26 25 23 21 12 14 15 15 16 21 22
9 4 2 5 7 8 8 8 9 10 10 10 11 13 20 23 22 15 13 16 16 17 20 23 21 22 23 23 23 24 24 25 24 24 23 22 15 7 14 14 17 19 25
6 5 6 6 7 8 8 9 10 11 11 11 11 16 21 22 19 12 16 16 17 20 22 20 23 22 22 23 23 24 23 25 23 21 23 22 21 14 4 9 16 19 23
1 4 6 8 9 10 9 10 12 12 12 12 13 15 18 18 15 17 17 17 20 21 19 22 23 22 21 23 25 23 23 25 23 23 23 22 21 18 12 9 12 16 21
5 7 8 9 9 11 10 10 12 12 14 16 15 14 15 16 18 19 18 20 20 21 23 22 22 21 23 25 20 20 23 24 25 23 23 24 21 20 16 16 14 14 19
6 7 8 10 12 12 10 13 14 11 13 14 14 15 15 17 18 18 19 20 22 23 23 21 22 26 22 21 22 22 21 19 20 23 24 25 23 20 19 17 17 13 16
9 11 12 11 11 11 12 12 12 15 15 16 16 16 18 16 17 18 20 20 23 23 21 24 25 21 22 21 19 18 18 20 21 21 21 22 22 20 19 18 16 15 16
10 10 12 12 11 12 13 14 15 14 16 17 17 19 17 17 19 20 19 20 20 23 25 23 20 19 18 18 19 19 19 20 20 19 19 21 21 20 17 17 16 16 15

GFSGL_850_spd_051.txt.gz
Wind_Speed
48 50 49 47 45 40 35 28 27 30 31 31 24 20 22 27 28 28 27 29 30 31 26 22 21 16 21 19 18 22 25 25 31 36 33 29 28 27 28 31 30 30 32
43 46 48 49 36 46 43 39 30 26 26 22 20 22 24 27 28 28 28 30 30 28 23 19 15 20 14 13 17 23 26 27 30 37 40 37 33 34 36 35 34 35 35
38 42 43 36 29 39 32 30 30 30 27 23 22 23 24 25 23 25 27 27 27 22 15 15 18 14 15 19 20 23 25 27 29 35 39 37 37 35 35 35 35 35 36
34 33 28 26 25 23 23 24 23 24 24 22 22 22 21 23 23 23 24 20 18 13 14 19 19 14 23 23 25 24 25 26 27 31 35 38 37 35 34 36 38 37 35
27 26 25 21 21 20 23 23 21 20 20 22 22 21 21 20 19 18 16 14 10 14 20 18 14 20 26 19 17 19 23 28 31 35 39 41 43 42 40 39 39 35 32
26 27 27 26 27 26 24 23 21 21 22 22 20 19 16 15 13 13 12 10 13 15 14 16 18 27 17 16 19 23 26 29 32 33 36 37 40 41 42 43 39 34 29
28 29 30 29 27 23 19 20 19 20 19 18 17 16 14 13 13 12 12 10 10 12 15 20 19 15 16 23 26 29 30 31 33 35 38 41 41 41 40 41 40 39 37
25 26 23 21 21 20 18 16 15 15 15 15 15 15 15 12 12 11 10 10 13 15 14 15 17 20 24 29 33 35 38 39 41 40 39 41 40 40 38 38 39 38 39
25 24 23 23 23 23 22 19 17 17 16 15 14 13 12 11 9 10 11 11 13 13 14 17 21 23 26 28 32 35 39 40 39 40 41 40 42 40 40 34 36 35 36
26 25 23 23 22 21 19 18 17 16 14 12 12 12 14 14 13 12 12 12 13 15 17 19 21 23 25 25 27 30 36 36 37 39 38 39 38 36 36 41 27 33 33
24 23 23 22 20 19 18 17 15 16 16 17 17 14 12 11 12 13 14 14 15 18 20 21 23 24 25 25 24 24 25 29 31 30 32 33 31 31 29 26 27 32 31
26 25 24 22 21 17 16 19 19 19 18 18 18 16 15 14 15 15 14 16 17 19 21 23 23 23 24 24 23 23 24 25 25 24 26 31 35 32 29 25 26 26 27
27 26 24 21 20 19 21 22 23 22 21 19 18 16 15 15 16 15 16 17 18 20 21 21 21 21 21 23 24 26 27 25 26 29 29 30 31 33 26 22 20 18 22
27 25 24 22 22 22 23 24 23 21 19 18 17 17 16 16 16 17 17 18 18 19 20 19 19 19 21 24 26 26 25 24 24 28 28 30 32 29 25 22 20 19 19
26 25 26 27 28 27 25 22 20 18 16 16 15 15 15 16 17 16 18 17 17 19 19 19 19 21 24 26 26 27 26 25 25 26 25 28 27 26 22 16 18 18 19
27 26 25 24 23 22 21 20 16 13 13 13 14 14 14 15 14 14 15 15 15 17 17 18 19 21 23 25 27 29 29 27 26 26 25 24 24 20 20 18 17 18 20
29 27 25 23 20 17 14 12 11 9 8 6 7 9 10 12 10 11 14 14 14 16 15 16 18 21 24 25 26 28 29 27 26 26 25 24 25 19 16 19 17 17 18
25 23 23 20 16 14 11 9 7 5 6 8 10 11 13 12 13 14 16 16 16 15 15 17 19 22 24 25 26 26 27 26 26 26 23 23 23 26 14 17 16 14 19
18 17 17 16 12 8 7 7 8 11 11 10 10 13 15 15 16 18 19 17 17 17 18 19 20 23 24 24 25 25 24 25 25 25 23 22 22 22 21 10 12 12 13
13 12 9 11 15 11 7 7 9 11 12 12 12 15 17 19 22 20 16 16 16 17 18 20 23 23 23 25 25 25 24 25 24 24 22 22 22 21 20 16 7 9 11
12 15 12 8 6 6 9 10 11 14 13 13 14 16 18 19 18 16 14 16 18 20 21 24 24 24 25 24 23 24 26 24 23 23 23 23 22 20 19 18 12 9 11
6 5 4 4 6 7 8 10 12 12 14 15 15 16 17 19 18 17 17 19 20 21 23 23 24 25 24 22 24 25 22 23 24 23 22 21 21 21 20 18 16 12 12
0 2 4 5 7 9 10 12 13 13 15 15 16 17 16 16 17 18 19 20 21 22 23 25 25 24 20 24 22 20 22 22 19 18 22 23 23 21 19 18 16 15 14
3 4 5 8 10 11 11 12 12 14 13 15 16 16 17 18 19 20 21 22 23 24 25 25 22 22 24 21 20 18 17 17 18 21 21 22 23 22 20 19 17 15 15
6 6 7 7 9 10 10 11 12 13 15 17 18 19 19 20 21 22 22 23 25 26 25 21 21 22 19 18 17 16 16 17 19 20 21 22 23 22 20 19 17 16 14
8 7 9 10 9 10 12 14 14 15 17 18 19 20 21 22 21 23 24 24 24 23 22 22 21 19 16 16 15 16 17 18 17 16 17 20 21 21 20 19 17 17 16

GFSGL_850_spd_054.txt.gz
Wind_Speed
46 43 45 49 50 52 47 41 39 32 35 31 32 29 28 27 27 25 25 26 25 27 28 28 26 23 17 20 22 25 23 26 33 35 34 32 32 32 30 32 34 34 37
42 28 42 47 54 56 51 37 37 33 33 34 28 27 26 26 24 23 24 26 27 27 27 25 23 18 18 18 16 17 19 22 28 34 33 34 34 34 35 32 33 37 42
47 41 40 44 46 46 25 40 45 45 33 36 29 28 24 23 23 25 26 27 27 25 23 21 19 16 18 19 16 19 23 26 27 31 36 36 37 32 33 35 37 37 40
53 47 41 41 43 43 42 43 40 40 40 34 28 24 23 23 25 25 27 26 22 20 20 19 17 20 21 16 21 22 19 20 22 27 32 36 37 36 36 36 39 38 39
54 46 42 39 40 39 38 37 45 33 29 26 25 25 24 24 25 25 22 20 20 19 18 17 18 20 14 18 22 16 18 22 26 29 33 36 38 38 37 37 36 36 38
45 43 39 40 38 35 32 29 33 30 29 27 25 26 25 24 22 19 19 19 19 18 16 17 19 16 18 24 20 21 22 26 30 32 33 36 40 39 39 37 36 36 39
36 36 38 37 33 31 32 31 30 28 26 25 25 24 22 19 18 18 19 18 17 14 16 17 17 21 25 23 23 24 26 29 33 37 41 41 44 42 40 41 38 36 40
33 37 38 38 36 35 31 26 24 24 24 24 23 22 21 20 19 18 17 16 15 17 18 20 22 23 22 24 27 29 30 31 31 33 34 37 38 39 37 40 41 46 50
31 33 35 35 34 29 26 23 23 22 23 23 22 21 20 20 18 17 18 19 18 18 18 19 19 20 23 25 27 29 30 30 28 28 28 28 29 27 26 30 31 29 34
27 28 28 27 25 23 21 22 21 21 20 20 20 19 18 18 19 19 18 17 17 16 16 18 19 20 21 23 25 27 29 29 31 32 33 31 29 27 24 21 25 27 28
21 23 25 24 22 20 21 20 20 21 21 21 21 20 20 21 20 19 17 17 16 16 17 18 18 19 21 22 23 23 25 29 31 33 36 35 32 29 28 24 22 25 25
24 25 24 22 23 22 21 22 22 23 23 23 22 22 22 20 18 18 18 17 16 17 17 17 18 19 21 22 21 22 24 27 28 31 32 33 32 31 30 29 23 22 22
24 23 24 23 21 20 20 22 22 22 23 25 24 23 22 21 19 18 16 16 16 16 17 18 19 19 18 18 19 21 22 23 25 27 29 29 28 28 29 30 23 21 18
22 22 21 20 21 20 22 24 23 24 24 22 22 22 21 19 18 16 15 15 16 17 17 16 17 17 17 18 19 20 20 21 23 24 25 27 27 26 25 21 21 19 21
20 22 23 23 22 23 22 21 21 22 20 19 18 17 17 17 16 16 15 17 18 18 17 17 17 18 18 19 21 22 22 22 23 23 23 24 24 24 25 19 17 17 19
25 24 23 23 24 23 23 23 21 18 16 15 14 15 15 16 17 18 17 18 17 17 16 17 18 19 20 21 23 25 25 24 23 23 23 23 23 23 24 24 16 15 20
24 26 25 24 24 23 21 18 17 14 14 13 13 15 15 16 15 13 14 12 13 15 16 17 18 19 21 22 23 25 26 25 24 23 23 22 22 22 21 23 18 13 20
26 26 25 23 22 19 14 11 9 7 8 10 12 11 13 13 15 16 15 16 16 17 18 18 19 20 21 23 24 25 26 26 24 24 22 22 22 23 21 20 21 13 15
27 24 22 20 17 12 9 10 15 16 13 12 11 14 17 16 17 17 19 20 18 18 18 18 19 21 22 24 24 25 26 25 24 24 22 21 20 22 19 19 18 17 5
19 16 15 14 13 14 17 15 15 13 11 12 13 13 14 15 17 18 19 18 17 18 19 20 21 22 24 24 24 25 24 24 23 23 22 21 19 19 19 18 18 20 11
10 11 10 10 10 9 8 8 8 8 9 11 12 14 16 17 18 18 19 18 18 19 21 22 22 23 24 24 23 23 23 24 21 21 21 20 19 19 18 19 18 16 15
6 6 6 6 5 5 6 7 7 9 10 11 12 14 16 18 19 19 18 18 19 20 21 22 23 24 25 24 23 25 25 23 21 20 19 19 20 19 18 18 17 17 15
5 3 2 1 3 5 6 6 7 9 11 13 14 15 16 16 17 18 19 20 21 22 23 24 25 25 23 21 23 22 22 21 19 18 21 21 22 20 19 19 19 17 16
4 3 3 4 5 6 7 7 8 10 10 10 12 14 16 17 18 19 20 22 24 24 25 26 26 25 22 22 19 18 18 18 19 20 20 22 22 21 20 19 18 17 16
5 5 4 5 6 7 7 8 10 11 13 15 16 17 18 19 20 21 22 23 24 26 25 24 24 22 22 21 19 17 18 19 19 18 17 18 20 19 19 19 18 17 15
6 7 7 7 8 9 10 11 12 13 14 15 15 16 19 21 21 22 24 26 25 24 23 23 22 21 20 18 17 16 17 17 17 15 15 18 20 20 19 19 17 17 16

GFSGL_850_spd_057.txt.gz
Wind_Speed
44 45 47 47 43 45 48 44 42 41 40 36 31 35 32 36 42 36 32 27 25 26 27 29 29 27 26 23 23 21 20 22 25 27 28 26 27 28 27 27 30 33 36
51 46 47 52 54 51 50 47 35 38 42 42 36 42 30 35 39 37 30 27 30 26 27 27 28 23 20 22 21 19 20 21 25 29 29 29 28 28 31 33 33 31 33
52 51 53 53 53 55 53 52 42 40 40 46 36 36 36 34 32 33 27 27 25 26 27 27 22 20 21 22 19 20 22 24 26 28 29 28 28 29 32 34 36 38 38
56 54 53 56 56 49 47 47 43 44 49 41 39 39 34 32 32 27 27 27 27 27 25 23 22 21 21 21 22 23 24 25 23 23 26 28 30 32 35 38 42 42 43
49 51 55 56 55 47 41 38 37 36 37 39 38 38 38 31 29 27 27 28 28 26 23 20 21 20 22 23 25 23 23 22 23 25 27 31 34 37 39 41 43 47 50
44 47 48 51 49 51 40 39 37 38 41 37 34 34 30 30 29 28 28 28 25 22 22 23 21 22 22 22 22 23 22 23 24 28 31 35 37 39 40 40 41 43 44
40 44 47 45 44 44 42 38 38 40 36 34 33 28 29 29 30 29 26 22 21 22 22 22 24 23 23 21 23 23 22 24 27 31 33 34 35 33 34 35 34 35 40
35 37 41 43 43 44 42 41 40 33 29 31 31 28 28 28 25 24 23 22 22 22 22 23 22 22 23 22 23 23 25 26 27 28 28 29 30 29 29 30 32 36 38
31 33 34 37 40 39 35 34 30 31 31 28 25 27 27 25 25 23 23 23 22 22 21 22 22 23 23 22 24 25 26 26 27 27 28 28 27 26 24 26 29 30 36
32 32 32 33 31 29 28 27 29 25 25 28 26 25 24 23 23 20 19 20 20 20 20 20 19 19 21 23 24 25 25 26 26 27 27 28 28 27 24 22 25 27 28
30 25 23 22 22 23 26 27 27 26 24 25 25 24 21 19 19 19 19 18 19 19 18 18 19 20 21 22 25 23 23 25 25 26 27 28 28 27 25 22 23 26 28
22 21 21 24 27 27 27 26 23 23 25 26 25 24 22 21 21 21 21 19 18 17 17 18 18 19 21 22 22 21 22 23 24 25 26 28 28 28 28 26 26 25 26
22 23 24 24 23 21 22 23 24 23 24 24 23 23 23 23 23 21 19 16 15 16 17 17 18 20 20 18 19 21 22 23 25 26 27 28 28 29 28 28 27 24 22
21 21 21 21 21 20 20 20 21 22 22 21 22 23 20 20 18 17 16 15 15 15 16 17 17 18 19 20 20 20 21 23 24 25 26 27 28 28 27 25 28 28 24
20 20 21 21 21 22 20 19 19 19 18 17 18 18 19 18 17 16 14 14 15 16 17 18 18 17 18 19 20 20 21 22 23 24 25 26 27 27 26 24 24 26 23
20 21 22 22 22 20 21 21 19 16 18 17 16 16 17 16 14 16 16 15 19 20 16 15 16 17 17 18 19 21 22 23 23 23 24 24 25 26 26 25 23 24 25
19 22 22 22 22 22 21 22 24 20 17 15 13 12 12 14 17 14 13 15 15 11 13 14 15 16 17 18 20 21 22 23 24 23 23 23 24 24 24 24 23 23 24
24 26 26 25 22 21 20 17 14 10 8 7 11 14 14 12 13 12 13 14 13 13 14 14 15 18 20 20 21 23 23 24 23 23 22 22 22 24 24 22 21 21 23
21 21 20 21 19 17 15 13 11 11 12 12 11 12 12 11 11 11 11 12 14 14 15 17 19 19 21 22 22 23 24 23 23 23 23 22 21 22 22 21 21 18 20
14 15 13 12 12 10 9 9 9 9 9 10 10 10 10 11 12 13 15 16 16 17 17 17 19 20 21 22 23 23 23 22 22 23 23 22 20 19 20 21 21 20 18
11 11 8 8 7 6 6 6 6 6 6 6 7 8 10 13 14 15 16 16 16 17 17 18 19 21 22 24 24 24 23 22 23 22 22 21 20 20 19 19 19 19 19
8 8 7 6 5 4 3 2 3 3 4 6 8 9 11 13 14 14 15 15 16 17 19 20 22 23 24 25 25 24 23 23 21 20 20 20 20 20 19 19 19 18 18
8 7 6 4 3 2 2 2 3 4 5 7 8 9 11 11 13 14 15 16 18 20 21 23 24 25 26 25 23 23 24 22 20 19 20 21 21 20 19 19 19 19 17
7 6 5 4 4 4 4 4 5 5 5 7 9 11 13 15 16 17 18 20 21 22 23 24 25 26 25 24 21 21 21 21 20 19 20 22 21 18 18 19 18 18 18
7 6 6 6 5 6 6 7 7 8 9 10 12 13 15 16 17 19 20 20 22 23 23 23 24 24 24 24 21 20 19 19 19 19 20 20 19 18 18 19 19 18 17
8 8 7 7 7 7 8 8 9 10 12 13 14 15 17 18 18 19 20 22 24 24 24 23 23 23 22 21 19 19 17 17 17 18 19 19 19 19 19 20 19 19 18

GFSGL_850_spd_060.txt.gz
Wind_Speed
35 34 35 38 38 39 41 42 44 44 43 39 35 35 36 32 31 31 31 36 38 35 30 27 27 26 27 26 26 27 24 24 25 25 23 24 25 26 25 23 24 25 27
37 38 40 41 42 41 44 45 47 46 45 42 41 42 37 38 36 33 35 36 36 31 31 30 28 27 27 26 28 25 24 24 24 23 24 26 28 27 23 24 24 25 28
41 42 44 43 42 50 52 53 51 50 46 38 44 44 39 38 39 34 33 32 29 31 30 33 27 30 30 28 24 24 23 22 21 22 26 26 23 22 24 26 28 30 32
47 46 47 46 47 48 51 47 47 48 49 39 45 47 43 37 38 33 31 29 27 28 30 27 31 33 28 27 24 24 24 22 22 23 24 22 22 24 28 31 34 33 36
39 46 50 52 48 49 52 53 49 45 41 40 49 54 51 44 40 34 32 29 27 27 30 33 32 26 24 24 25 24 24 24 24 23 22 23 25 28 30 32 35 37 37
32 34 36 42 47 54 55 53 50 47 44 42 45 46 39 37 36 32 32 27 26 27 32 31 27 26 25 26 26 22 22 22 23 20 22 25 27 29 30 31 33 36 38
31 32 34 36 37 39 44 50 51 48 47 43 40 37 31 30 29 27 26 28 29 31 28 25 26 25 25 26 22 22 21 22 20 22 24 25 27 27 29 31 31 33 35
33 32 32 33 35 35 35 38 40 40 42 38 33 32 32 27 27 27 31 33 28 24 24 24 24 25 25 22 20 20 21 21 21 23 24 24 25 25 26 28 31 34 37
34 32 30 31 32 32 33 35 35 32 32 30 30 28 25 30 30 32 29 25 23 22 22 22 23 23 23 19 18 21 20 21 22 22 23 24 24 24 23 25 27 29 37
31 29 28 28 28 29 29 31 30 30 29 28 26 27 26 24 24 23 22 21 21 21 22 22 21 19 17 17 19 20 20 21 22 22 21 21 22 22 22 22 24 27 29
28 26 25 22 20 18 18 20 22 23 25 25 25 23 23 22 21 21 19 18 17 18 18 18 17 16 17 18 19 19 20 22 22 23 23 23 23 23 22 21 20 22 26
21 19 16 14 13 13 16 20 23 27 28 25 23 23 22 21 19 18 17 16 15 16 16 15 15 15 17 18 18 19 21 22 21 22 24 24 24 23 23 23 22 22 23
14 14 15 14 15 17 19 23 25 23 20 20 21 21 21 19 18 17 17 17 16 15 14 13 13 15 16 17 16 19 21 21 22 22 23 24 24 25 26 25 24 24 26
13 14 15 16 15 15 16 16 16 17 17 16 17 17 17 17 18 19 18 17 15 13 13 13 13 12 13 15 18 18 19 20 21 22 23 25 27 26 26 25 26 26 28
14 15 16 16 17 16 14 11 9 9 8 9 12 13 17 18 18 18 15 13 13 12 11 11 12 14 16 16 17 17 19 20 20 23 25 26 26 26 25 25 24 25 25
15 16 16 16 16 16 16 16 15 14 14 15 16 19 20 16 15 14 12 11 13 13 13 14 16 15 15 15 18 19 19 22 22 22 24 25 25 25 25 24 24 23 24
16 16 18 18 19 20 20 19 22 20 15 11 10 11 10 9 10 10 11 11 13 18 18 16 15 17 18 17 19 21 21 22 23 24 24 23 23 24 25 24 23 23 23
19 21 21 23 23 22 19 16 12 11 13 13 11 10 10 10 12 13 14 15 12 12 13 13 14 15 17 18 19 20 21 22 23 24 22 21 21 23 23 23 22 22 23
18 18 16 16 15 14 12 10 8 6 5 5 6 5 5 5 6 6 7 8 10 11 12 12 14 15 16 18 19 21 22 23 23 22 20 20 20 22 22 21 21 21 22
17 17 16 16 14 12 10 8 6 5 5 5 4 3 5 6 8 9 10 11 11 11 11 12 14 16 17 18 20 22 23 23 21 20 20 20 19 19 20 20 20 21 20
17 16 13 12 11 9 7 6 5 4 4 4 3 3 5 7 8 10 10 11 11 12 13 13 15 17 19 21 22 23 24 23 21 20 21 20 19 19 18 19 20 20 19
13 12 10 10 9 7 6 5 4 3 2 1 1 3 6 8 8 9 9 10 12 13 15 17 19 21 22 23 25 25 26 23 20 19 19 18 18 18 18 18 18 17 17
12 11 10 9 8 7 6 5 4 3 2 2 3 5 6 8 9 10 12 14 16 18 20 21 23 24 24 25 25 24 24 22 20 19 19 19 19 19 18 17 17 17 17
11 10 9 8 7 6 6 5 5 4 4 4 6 8 9 11 12 13 14 16 18 19 20 22 23 24 25 24 23 22 22 21 20 19 19 20 20 19 17 17 16 17 18
9 8 7 7 6 7 6 5 5 6 6 7 8 10 11 12 13 15 16 17 19 21 22 23 23 23 23 23 22 20 19 19 18 18 18 19 20 19 17 17 18 18 17
8 7 7 7 7 7 7 7 7 7 8 9 11 11 12 13 15 17 19 20 21 21 22 21 21 20 21 21 20 19 18 17 16 15 17 18 19 18 17 18 18 19 19

GFSGL_850_spd_063.txt.gz
Wind_Speed
30 31 34 37 39 41 44 45 47 47 49 51 51 50 46 42 39 38 41 39 32 36 32 34 34 29 29 27 28 26 25 25 26 26 22 22 22 23 24 25 25 23 22
32 32 33 35 39 42 42 41 43 43 43 44 45 45 44 41 40 38 37 34 37 33 30 27 31 30 30 29 28 28 27 27 27 25 23 23 21 22 25 23 21 21 22
36 36 38 39 40 40 42 44 45 44 43 43 43 44 44 41 42 43 39 42 40 37 31 30 33 33 34 32 29 29 27 28 26 25 22 21 21 22 21 20 20 22 23
41 42 42 43 43 43 41 43 47 47 44 43 44 44 46 45 47 42 43 38 38 38 34 30 32 33 34 30 30 32 29 28 23 22 21 20 20 21 20 22 23 24 23
36 41 44 45 45 43 43 45 47 45 45 43 43 44 47 48 50 47 38 33 33 33 29 31 29 30 28 31 31 29 27 25 23 21 21 19 19 19 20 22 24 24 25
30 31 33 37 39 43 45 46 47 48 46 45 45 45 45 43 41 42 41 40 39 33 32 30 28 30 31 28 27 25 24 23 22 21 21 18 20 22 22 22 23 23 19
31 31 32 31 32 32 33 37 43 46 46 46 44 43 45 42 37 36 28 28 34 30 31 30 32 31 29 27 25 25 24 24 22 20 18 20 20 21 22 22 23 24 24
36 33 33 31 30 29 29 29 30 34 36 36 36 35 36 35 33 29 30 30 27 31 31 31 31 29 25 25 24 25 25 22 19 17 19 20 20 20 21 23 24 25 28
36 35 32 29 27 27 27 27 28 27 28 28 30 31 30 31 26 29 29 30 32 31 29 26 24 23 23 24 24 22 20 18 16 18 18 18 19 19 21 21 22 25 27
35 34 29 26 26 25 23 20 19 23 25 26 25 27 26 27 30 29 31 34 32 28 23 23 22 21 20 20 20 18 15 14 16 16 16 16 15 17 18 21 24 24 25
30 25 23 22 21 20 16 16 17 18 23 24 24 25 25 22 24 24 22 24 23 23 21 21 20 19 18 17 14 12 14 15 15 15 15 15 16 18 19 20 20 26 28
20 19 18 17 15 12 12 11 14 16 20 21 23 23 22 23 20 17 17 13 14 13 15 15 16 15 13 10 12 13 14 13 13 15 15 18 19 19 19 23 27 28 27
13 13 14 14 12 11 10 11 16 18 21 23 24 25 24 22 20 18 16 15 13 12 12 12 11 10 10 11 12 11 12 15 16 18 20 18 18 22 28 27 26 25 26
9 12 11 8 9 9 9 10 13 16 17 18 17 18 20 20 19 18 17 17 16 15 13 12 9 7 9 11 12 15 18 18 16 17 19 22 23 25 24 25 25 25 27
7 7 6 8 9 10 11 12 12 13 11 11 13 13 15 19 18 17 16 16 14 11 8 6 6 8 11 15 18 18 16 16 20 21 21 23 23 24 23 22 23 24 24
5 9 10 11 11 12 15 17 17 13 12 12 13 15 16 12 13 13 11 9 9 7 7 9 12 14 16 16 15 16 19 20 20 22 22 22 22 22 23 22 22 21 22
11 13 14 14 16 16 18 19 19 15 14 11 10 11 9 10 9 8 6 6 8 9 10 12 13 13 13 14 15 16 17 19 20 21 21 21 22 22 22 21 20 20 20
12 17 17 17 16 16 16 18 18 19 20 19 15 10 8 5 2 6 8 8 7 8 8 8 9 10 11 13 14 16 17 19 20 21 21 22 21 20 20 19 18 19 19
11 13 14 17 18 20 19 18 18 17 15 13 10 7 5 4 3 1 1 4 5 6 7 7 8 10 12 14 16 18 19 20 22 22 22 21 19 20 21 19 18 20 21
20 20 20 21 19 17 16 13 12 12 11 9 7 5 2 1 2 3 5 5 5 6 7 8 10 12 14 16 18 20 20 20 20 19 19 19 19 19 19 17 16 17 18
21 19 17 16 14 14 12 11 9 9 8 7 6 3 1 2 3 4 6 6 6 7 8 9 12 14 17 19 20 20 22 23 23 23 21 19 18 17 16 15 16 16 17
16 15 14 14 12 12 11 9 9 8 7 5 4 2 1 3 3 4 5 7 8 10 12 15 17 19 21 22 24 25 25 25 23 21 19 18 17 14 14 15 16 16 15
14 13 13 12 11 10 10 9 8 7 5 4 2 1 3 4 5 6 8 10 12 14 16 17 18 19 21 22 23 23 24 23 22 20 18 16 14 14 15 16 15 15 14
12 11 11 11 9 8 8 7 6 5 3 3 3 4 5 6 7 9 10 12 13 14 16 17 18 19 20 20 20 20 21 21 20 19 17 17 17 16 16 16 15 15 16
10 10 9 9 8 8 7 6 5 5 5 5 5 6 6 7 8 10 11 13 14 15 16 17 18 18 18 18 18 19 19 19 18 17 16 16 15 15 16 17 16 16 16
9 9 9 9 8 8 8 7 7 7 7 6 6 6 7 8 10 11 12 13 15 15 16 16 16 17 18 19 19 18 17 16 15 14 14 14 15 15 16 16 16 17 17

GFSGL_850_spd_066.txt.gz
Wind_Speed
31 32 34 39 40 44 42 43 44 44 46 44 46 46 42 40 39 38 37 35 34 39 38 37 34 32 36 38 38 31 33 33 31 21 25 26 26 24 24 26 26 24 19
32 32 34 34 36 41 45 46 48 56 49 49 52 47 45 44 45 44 46 42 47 43 40 38 35 33 32 36 25 31 37 38 32 28 30 26 26 24 26 24 24 22 21
33 34 35 37 39 43 45 44 44 44 45 46 44 48 53 55 53 50 50 50 47 46 41 41 41 43 39 31 34 41 42 37 33 33 29 28 28 26 26 27 25 23 21
35 35 36 38 41 41 41 41 43 45 45 49 48 46 45 43 41 45 47 49 50 47 48 45 45 39 39 40 37 45 38 37 34 35 30 27 24 24 25 22 19 17 19
34 37 41 41 39 38 39 39 41 43 44 43 44 47 45 43 44 45 44 45 49 48 46 45 41 41 41 40 35 36 38 37 38 33 28 27 25 24 22 14 15 16 17
34 36 36 37 38 41 41 41 40 41 42 41 41 42 44 45 48 49 47 42 44 45 46 46 43 38 40 36 35 37 36 40 37 33 28 25 23 19 17 15 14 14 15
33 34 34 33 34 35 35 36 39 40 39 41 42 39 40 41 47 48 44 42 39 37 38 40 44 39 40 36 37 37 35 34 28 26 25 21 17 16 16 16 15 14 15
35 33 33 33 33 30 29 30 30 30 32 34 33 33 34 35 39 37 34 33 36 36 36 36 38 36 39 41 39 38 34 30 27 24 19 17 15 18 18 17 17 19 20
34 36 34 31 31 30 30 28 25 25 27 27 27 26 26 25 26 27 30 36 35 35 36 34 35 36 36 32 29 26 25 25 21 17 15 11 15 18 19 19 17 14 17
27 26 26 28 29 29 27 27 29 26 25 21 20 22 27 28 28 28 29 30 31 33 32 31 27 27 25 25 23 23 22 18 14 11 12 14 14 17 17 17 16 18 16
21 23 22 23 24 23 27 28 24 21 20 21 24 25 26 27 28 29 29 30 31 32 30 26 25 22 22 23 21 18 14 10 7 8 12 15 15 15 16 19 22 20 18
18 20 22 23 26 25 24 21 19 20 23 21 23 23 22 22 21 20 18 17 19 22 23 23 23 23 18 16 14 10 6 4 8 12 13 14 17 20 23 22 21 24 26
10 13 15 17 17 18 19 19 19 19 21 19 21 21 20 20 20 17 14 14 16 19 17 18 17 15 13 10 5 6 7 10 12 14 17 19 20 19 20 25 28 27 28
6 10 13 15 17 16 16 16 16 17 18 18 19 18 18 18 17 16 17 17 18 17 17 16 13 11 9 8 8 8 10 14 16 16 16 16 19 21 21 21 23 22 23
10 11 12 11 11 12 12 11 11 11 10 13 15 17 20 20 19 17 16 16 15 13 11 9 8 6 2 3 7 11 12 12 11 14 15 16 17 15 15 18 19 18 18
10 12 14 15 15 15 15 14 14 11 11 11 13 14 17 14 17 16 13 10 8 6 6 3 2 3 4 5 5 5 6 9 11 13 14 14 13 14 15 16 16 16 18
6 8 14 16 18 20 19 18 19 18 17 15 13 12 11 15 14 12 10 7 4 2 1 1 2 3 5 6 7 6 6 10 14 10 10 12 13 14 15 16 16 16 18
4 8 8 10 15 17 19 23 24 26 27 26 22 20 16 13 10 7 4 3 3 2 1 1 1 1 1 1 3 4 6 8 9 11 11 13 14 15 16 17 17 18 19
9 12 14 16 18 21 22 23 22 23 23 22 19 15 12 9 7 7 6 5 5 5 5 4 2 1 2 3 6 6 9 10 12 14 13 14 14 15 16 17 17 18 19
22 22 23 24 24 22 21 21 19 18 18 16 13 11 8 6 5 4 4 4 4 4 4 2 2 4 4 6 8 10 11 12 14 14 15 15 15 16 16 16 16 18 18
23 20 19 21 21 18 17 16 15 14 13 12 11 9 7 5 5 4 5 4 3 4 3 3 5 7 8 9 11 11 12 14 14 15 15 15 15 15 15 15 16 17 17
16 16 15 17 17 15 15 14 13 12 11 9 8 6 4 4 5 4 4 4 6 6 7 7 7 8 9 10 11 12 12 13 13 14 14 14 14 14 14 15 15 16 16
14 14 14 15 14 13 12 12 11 10 9 9 8 6 5 4 5 4 5 6 7 8 10 10 11 12 11 13 14 12 12 12 13 13 13 13 13 13 14 15 15 15 16
11 11 11 11 11 10 11 11 10 9 9 8 7 6 5 5 4 5 5 7 8 9 11 12 13 14 15 15 15 15 14 14 15 15 14 13 14 13 13 14 15 15 16
10 10 10 10 10 9 10 9 8 7 7 6 6 6 5 5 5 5 7 9 10 11 13 14 14 15 15 16 16 17 17 18 17 16 15 15 14 14 14 14 15 15 15
11 10 10 10 10 10 9 9 8 7 6 5 5 5 5 5 6 8 9 11 12 13 14 15 16 16 17 16 17 17 17 17 16 15 14 14 12 12 12 13 15 15 16

GFSGL_850_spd_069.txt.gz
Wind_Speed
27 27 31 36 37 39 37 39 37 41 49 50 50 50 49 50 53 49 47 44 41 40 39 39 38 39 39 36 38 39 33 39 37 38 32 33 32 27 35 29 30 30 29
28 29 30 32 35 39 40 40 39 39 40 44 43 44 48 47 47 48 46 45 45 43 42 38 42 44 39 37 36 38 36 31 31 38 40 42 38 41 36 28 30 28 25
30 31 32 34 35 40 43 42 40 41 40 43 43 48 47 47 47 47 47 48 47 46 44 43 47 51 45 43 42 44 45 41 39 42 43 42 41 39 32 31 33 30 26
32 33 35 39 41 42 41 40 44 44 44 47 47 48 47 48 48 47 47 47 48 47 47 47 53 55 52 50 52 49 51 48 46 46 47 45 45 41 35 34 31 27 24
33 34 39 41 39 35 39 41 43 44 47 45 46 48 51 50 50 50 49 49 50 50 50 55 57 56 55 54 48 49 47 48 51 49 49 47 45 41 38 34 28 22 17
36 42 37 37 38 40 41 42 42 44 46 48 48 47 49 51 53 54 52 47 46 46 48 47 45 45 49 51 46 44 47 44 49 46 48 50 49 42 30 24 22 21 17
38 36 37 39 40 42 41 41 43 45 44 48 49 48 50 50 51 51 50 48 48 44 46 50 50 51 44 38 41 44 42 39 40 43 45 44 38 27 23 19 19 19 19
32 34 36 38 41 40 39 42 42 42 44 45 45 45 43 44 43 44 43 43 46 50 52 54 50 46 42 40 39 39 41 39 38 36 34 29 19 17 13 13 16 17 19
29 35 34 37 38 39 41 43 42 41 41 41 39 38 39 39 38 38 38 42 44 45 46 47 46 44 42 40 39 40 38 30 24 18 18 18 18 14 10 13 17 15 20
25 28 27 31 34 35 37 37 37 35 34 32 34 34 36 36 38 38 36 37 40 40 40 41 41 38 35 32 28 29 28 25 22 17 14 12 9 7 11 12 17 20 18
17 21 22 25 28 30 29 29 29 32 36 35 35 34 32 31 34 35 34 33 32 32 33 32 29 27 22 19 18 20 18 16 11 9 7 5 9 12 15 16 18 19 20
16 20 23 22 26 28 30 34 34 34 33 33 32 29 30 30 28 28 27 26 22 21 21 19 16 14 15 17 17 15 12 10 5 5 5 9 11 10 11 13 18 21 22
7 10 17 21 23 26 29 30 27 27 27 29 29 24 23 19 17 17 13 10 10 13 15 17 18 18 17 15 12 8 6 4 6 7 7 9 12 15 17 19 20 21 22
6 4 7 12 18 21 21 21 23 25 22 21 20 18 19 15 13 12 11 12 14 18 21 20 18 13 8 5 3 1 4 5 6 8 11 10 13 15 15 14 16 16 17
12 5 1 5 7 9 11 10 10 13 14 15 15 15 15 15 16 14 15 18 18 17 16 14 10 7 4 2 2 4 5 5 5 10 11 11 13 13 13 13 14 16 17
19 18 14 3 8 9 9 9 8 6 6 6 11 14 17 17 19 19 18 15 14 13 10 9 9 7 5 3 1 2 4 5 8 10 10 10 11 12 12 13 14 16 16
5 5 2 3 3 7 17 20 24 22 19 19 18 19 21 22 20 18 17 15 12 10 10 10 9 7 4 3 2 3 3 8 10 6 8 10 11 12 14 14 15 16 17
7 6 5 8 9 13 15 19 24 28 30 31 27 24 21 19 17 15 14 10 10 9 8 7 6 5 4 3 2 0 2 5 6 9 11 12 13 14 15 15 15 17 18
15 17 18 19 20 21 20 21 22 24 26 25 21 19 16 15 15 15 12 9 9 9 7 5 4 4 2 1 3 5 8 7 10 10 11 12 13 14 16 17 17 18 19
23 24 23 24 25 23 22 22 20 20 21 20 18 14 10 8 10 10 10 9 8 8 7 4 4 3 3 3 5 7 7 8 10 11 13 14 14 14 15 16 16 17 17
18 18 18 18 19 17 17 17 15 15 14 13 13 11 8 9 9 8 8 7 6 5 4 4 5 5 5 5 6 6 7 8 9 10 11 12 13 13 14 14 15 16 17
14 15 14 15 14 14 15 14 14 14 14 11 10 9 8 7 8 7 7 7 7 5 4 4 4 4 5 6 7 7 7 9 9 10 10 11 12 12 13 14 14 15 16
12 13 13 13 12 12 12 12 12 11 10 8 8 7 7 6 6 6 6 6 6 6 7 6 6 6 6 8 9 8 8 8 9 10 11 12 12 11 12 13 14 15 16
13 13 12 12 12 12 11 11 11 10 9 8 8 8 7 6 6 7 7 7 6 6 7 8 8 9 10 10 9 10 9 12 14 15 13 12 11 11 11 12 13 14 16
12 12 12 11 10 10 10 10 9 9 8 8 7 6 6 5 5 6 6 6 7 7 8 9 8 9 11 13 14 13 14 15 16 16 15 14 12 12 11 12 13 15 16
12 12 11 10 10 10 9 8 8 8 7 7 6 5 5 5 5 6 6 7 9 10 9 10 11 13 14 13 13 14 15 16 16 14 14 13 12 9 9 11 14 15 16

GFSGL_850_spd_072.txt.gz
Wind_Speed
25 25 34 43 39 36 35 37 46 40 39 44 54 56 54 51 46 47 50 51 51 47 42 42 42 47 46 43 42 42 43 41 41 41 41 41 38 37 37 47 44 40 42
30 25 24 31 41 40 41 44 43 42 48 46 45 48 54 56 55 54 56 55 55 57 52 47 47 45 42 43 45 45 45 44 40 47 47 46 44 39 38 42 42 42 43
30 30 28 27 33 41 44 44 44 40 40 40 42 49 52 54 56 55 55 58 57 51 49 48 47 45 44 45 48 50 51 48 48 49 49 46 48 42 41 45 45 49 42
33 34 35 35 34 35 39 41 44 43 42 42 43 42 47 51 54 54 55 56 55 53 51 50 49 47 47 48 52 55 54 52 52 53 52 50 49 50 46 47 52 52 44
33 35 38 38 37 36 36 40 41 43 46 46 44 46 45 46 48 47 47 49 49 50 51 52 52 52 52 52 56 57 54 54 54 49 48 49 51 51 50 53 55 53 41
35 38 35 36 37 41 41 41 42 45 46 47 49 51 49 51 54 54 54 52 51 50 51 52 50 50 52 55 57 54 49 48 55 53 50 47 50 49 51 51 44 35 29
35 36 37 37 38 40 41 42 46 48 47 50 52 51 53 54 55 55 54 52 51 48 47 47 48 49 52 55 52 49 48 54 58 56 49 46 46 43 39 35 30 33 29
30 34 35 35 38 37 37 42 44 44 46 48 50 50 49 52 50 49 50 50 51 53 54 51 48 48 49 51 49 49 52 53 45 48 43 41 35 30 28 26 22 21 18
13 25 31 32 35 36 39 42 42 41 41 43 43 41 43 48 44 47 45 45 44 47 49 48 47 49 51 52 53 51 43 38 33 31 26 19 15 17 18 18 14 9 7
11 12 7 28 33 35 37 39 39 39 41 37 37 40 42 42 44 43 41 40 42 44 46 48 50 51 49 44 38 32 28 24 18 15 14 16 16 14 9 5 6 8 14
14 15 14 12 18 31 33 34 34 36 37 40 40 40 39 39 40 41 39 40 41 42 43 41 39 38 36 30 21 18 20 20 16 14 10 7 2 2 2 4 8 11 12
18 16 18 18 15 17 19 26 31 34 38 38 38 39 40 40 41 41 42 42 39 37 36 28 23 17 11 10 14 16 16 15 12 6 5 1 1 2 4 6 10 14 16
18 15 15 14 15 14 9 15 18 23 27 32 35 35 34 32 30 32 34 25 26 20 18 14 12 11 14 17 16 15 11 8 6 4 4 2 1 6 10 11 14 16 18
23 24 27 23 14 8 8 6 10 16 20 22 22 24 24 20 17 5 13 14 12 14 19 20 21 22 19 14 10 9 8 6 4 3 1 3 5 8 10 11 13 15 18
11 13 18 21 20 16 11 10 11 7 9 12 10 8 10 16 13 15 14 16 19 20 22 21 17 15 17 12 8 6 6 4 3 3 4 5 6 8 9 11 12 14 17
10 11 11 10 11 12 12 10 15 21 13 13 15 12 18 19 20 22 26 24 21 18 16 16 15 13 11 10 8 5 4 5 5 6 6 6 8 9 11 13 14 14 16
7 9 10 9 12 15 16 16 22 25 25 33 31 31 28 24 22 21 20 20 17 12 14 14 13 11 8 6 4 3 5 5 4 5 7 9 11 12 13 13 12 13 15
12 12 13 15 16 18 21 24 25 24 28 30 26 28 24 23 21 18 16 12 15 12 12 12 10 8 7 4 2 2 3 6 9 10 10 9 9 9 11 12 13 15 18
19 21 20 19 20 21 21 22 24 25 25 24 20 20 18 16 15 14 12 12 12 11 10 8 7 5 4 2 2 4 5 6 6 5 7 9 12 12 10 11 13 14 15
20 22 20 20 20 21 19 19 19 18 19 17 15 14 11 9 11 12 12 11 11 10 8 6 4 2 1 0 2 4 5 6 7 8 9 9 9 9 9 11 11 13 14
17 17 17 17 18 16 15 14 14 14 15 15 16 12 10 10 11 10 9 9 7 6 4 3 1 2 3 3 3 4 5 5 5 6 6 8 10 8 7 8 11 13 14
15 14 14 15 15 16 16 14 14 14 13 12 11 9 8 8 8 8 7 6 5 3 1 2 1 3 4 4 4 4 4 4 6 8 9 8 7 6 7 9 11 13 13
12 11 12 13 12 11 12 12 12 11 10 8 7 6 7 6 5 6 6 6 5 5 5 4 2 3 5 4 4 4 5 8 10 11 12 12 9 6 8 9 9 11 12
9 10 11 11 10 10 9 9 9 9 8 8 9 9 10 9 8 8 7 5 3 3 5 6 7 7 8 7 8 8 9 10 10 11 13 12 11 9 8 8 7 8 12
10 11 11 11 11 10 9 8 8 8 7 6 5 5 4 2 2 4 5 6 7 7 7 6 7 8 9 10 10 10 9 11 12 13 13 13 12 11 8 4 6 11 14
9 9 9 8 7 6 6 5 5 5 3 3 2 3 2 3 4 2 8 7 6 6 6 7 9 10 10 9 11 11 12 13 14 13 12 12 11 8 5 5 9 13 12

GFSGL_850_spd_078.txt.gz
Wind_Speed
32 32 31 32 31 29 30 32 35 37 42 46 48 47 46 45 42 43 44 45 44 45 46 44 44 41 41 43 41 45 48 47 48 50 50 50 51 49 47 45 43 44 45
24 28 33 32 33 33 33 30 32 37 39 45 46 52 50 49 49 49 50 46 46 48 48 48 51 49 48 48 49 51 51 50 51 52 54 54 54 51 51 48 45 43 44
22 24 27 30 36 36 35 37 36 36 38 39 44 49 56 56 54 52 51 51 53 53 54 55 56 53 53 52 53 55 56 55 55 55 58 57 57 57 53 48 46 45 47
22 24 25 27 30 31 34 38 39 37 39 41 43 44 47 56 58 59 58 57 56 57 56 57 58 58 58 56 55 56 57 57 59 58 55 53 55 50 51 53 52 52 52
24 24 25 24 25 26 28 31 36 41 42 43 44 45 47 48 50 51 51 52 53 55 57 61 64 64 64 63 61 63 63 59 59 58 50 48 48 48 50 51 54 54 55
28 28 27 27 28 29 30 30 31 33 36 42 44 45 46 49 50 49 49 50 52 54 56 55 56 59 61 61 61 60 60 59 59 55 53 51 53 53 56 57 57 55 53
21 26 23 23 27 31 30 31 34 35 35 36 39 41 46 48 49 50 50 49 49 49 50 51 52 55 56 57 57 56 56 54 55 56 59 58 59 58 56 56 57 56 51
6 15 20 23 22 25 30 34 36 36 37 36 37 37 39 42 43 45 46 45 48 49 50 50 51 52 52 52 50 51 50 53 55 59 63 67 66 62 50 47 40 40 36
11 6 2 8 15 23 27 29 31 35 40 42 41 40 39 39 44 46 44 46 50 51 50 51 55 55 55 55 55 55 55 57 60 62 64 68 64 60 51 33 26 24 23
13 12 7 3 3 6 10 20 29 33 34 34 35 39 40 41 45 46 47 47 51 52 52 54 56 59 59 56 56 58 59 60 59 51 44 44 32 18 12 12 13 15 16
16 15 12 10 9 8 8 10 13 19 26 30 35 37 40 43 45 48 49 48 50 50 54 56 58 60 59 59 57 54 50 45 29 20 18 15 13 12 10 9 10 9 9
15 15 17 17 16 11 9 7 8 12 12 14 19 24 28 29 36 38 44 46 42 37 36 26 18 19 22 26 27 26 20 21 21 18 14 11 12 9 9 6 5 3 2
14 14 14 14 14 14 11 8 4 2 4 7 9 11 12 12 15 18 18 16 15 12 10 3 1 1 3 5 16 21 20 16 14 13 13 14 12 7 5 1 1 2 3
15 15 15 15 15 14 13 13 12 11 9 7 6 5 5 6 7 8 8 4 7 5 10 13 15 19 22 23 19 16 17 15 14 12 10 8 6 3 1 2 4 4 5
10 10 11 13 16 18 18 19 18 16 13 13 13 13 13 16 17 15 14 15 17 20 20 20 18 20 21 19 18 14 14 12 8 9 5 3 1 1 2 4 6 8 7
6 7 8 9 11 15 18 20 19 20 19 19 21 20 22 21 20 18 17 17 16 15 17 20 21 20 19 16 14 11 9 7 7 7 5 1 2 2 3 4 6 6 7
9 9 10 10 12 14 16 19 22 22 23 24 22 21 19 17 15 13 12 12 12 11 15 17 16 15 13 12 11 8 8 5 5 5 3 3 4 4 5 5 5 5 7
14 12 12 12 13 14 15 17 17 18 19 19 17 16 14 12 11 10 9 8 11 11 13 13 12 10 9 7 6 5 4 3 4 5 5 4 4 5 5 6 7 8 8
14 14 13 13 13 13 13 13 14 14 14 14 12 11 11 7 6 6 5 7 10 11 11 10 9 7 6 5 4 3 3 3 4 4 5 5 7 7 6 6 6 6 5
12 12 11 11 11 10 10 10 10 9 9 8 8 9 7 4 4 7 7 7 7 7 6 5 5 3 3 3 3 3 4 4 4 5 5 5 6 6 6 5 6 8 9
8 7 7 7 7 7 7 7 7 6 7 7 7 6 5 4 5 5 5 5 4 4 4 3 3 3 2 2 2 3 2 3 4 4 5 6 6 6 7 7 7 8 9
4 5 5 5 6 5 6 5 6 5 5 5 5 5 5 4 5 5 5 5 4 3 2 2 3 2 2 2 3 4 4 3 3 4 4 5 6 6 7 7 7 7 6
3 3 3 4 4 4 4 4 4 4 5 5 5 6 6 7 7 6 5 4 4 3 3 4 5 5 5 5 4 5 6 5 5 5 5 5 6 6 6 6 6 5 4
2 2 2 3 2 2 3 4 4 4 4 4 4 5 6 7 8 7 7 6 6 7 6 6 5 6 7 7 8 8 7 6 6 6 6 6 6 6 6 6 6 6 6
3 3 3 4 3 3 3 3 2 2 3 3 5 6 6 7 6 5 6 6 6 6 6 7 6 6 6 6 6 6 6 7 7 7 8 7 6 6 6 6 7 6 6
3 2 2 2 1 1 1 1 2 3 4 5 6 8 9 10 10 10 8 9 9 10 11 12 12 11 10 9 8 7 8 8 8 8 8 7 7 7 6 6 6 7 7

GFSGL_850_spd_081.txt.gz
Wind_Speed
25 28 25 24 23 21 21 22 22 22 26 30 33 41 40 38 35 34 35 35 37 40 41 43 43 42 43 41 42 43 46 44 47 50 48 51 51 49 46 46 48 50 49
22 25 26 25 24 25 24 24 23 26 27 31 33 38 41 42 42 42 42 42 45 46 47 47 47 45 46 46 48 49 51 49 52 55 54 55 56 54 54 54 55 54 53
20 21 23 26 26 27 25 23 24 24 27 30 32 36 38 44 45 46 46 46 48 48 47 48 48 48 50 51 52 52 52 51 53 56 59 58 60 60 60 58 58 56 53
18 20 22 24 24 25 27 28 28 28 28 30 32 34 36 40 45 48 49 49 50 51 51 51 52 53 53 53 54 56 58 58 58 58 59 61 60 59 58 57 57 54 53
17 18 19 20 22 23 24 26 29 30 32 33 33 36 38 40 43 46 49 53 55 56 57 56 56 58 58 58 58 61 61 61 61 59 52 51 52 50 49 51 54 52 54
13 15 17 19 20 22 24 26 29 30 30 30 35 38 39 42 44 44 45 46 48 52 56 56 55 54 56 56 57 58 58 56 57 57 55 51 51 50 51 51 54 53 49
16 15 17 17 18 20 23 26 30 32 32 34 34 35 37 38 41 42 43 44 45 48 49 50 51 53 53 53 54 52 51 52 55 58 61 58 57 57 54 51 50 54 54
14 14 14 13 14 18 21 22 22 24 30 36 37 38 37 38 40 40 40 42 44 45 47 48 49 48 49 49 49 50 49 48 52 53 58 61 63 63 62 59 57 53 51
11 8 6 8 9 10 13 14 21 26 28 31 30 34 38 39 42 42 42 43 45 45 45 45 53 55 54 54 54 55 56 57 57 57 58 60 61 65 65 68 64 57 39
15 12 7 3 2 4 5 5 9 14 20 22 28 32 35 39 41 42 45 46 47 48 48 52 55 58 58 57 58 55 53 56 53 50 47 51 50 40 26 20 19 21 21
17 16 14 12 9 6 5 4 4 4 4 7 13 21 23 27 31 38 41 43 41 39 42 42 42 50 56 58 59 51 42 39 36 19 8 10 8 7 7 5 6 7 2
13 11 12 12 12 10 8 5 5 3 1 1 3 7 11 13 17 20 21 19 16 18 22 24 27 30 26 25 28 22 14 16 12 9 9 10 9 8 11 10 8 7 6
10 11 14 14 13 11 9 9 7 6 5 5 4 5 6 8 10 12 12 11 8 4 1 1 1 2 4 5 11 15 15 13 13 11 13 12 10 8 7 6 5 6 4
8 9 10 11 12 13 13 14 11 11 10 10 10 11 11 10 11 12 12 11 10 11 12 12 11 13 16 18 17 16 16 16 14 14 13 10 7 4 3 5 6 6 6
8 9 10 10 12 13 13 14 14 15 12 12 13 13 13 15 14 11 12 12 12 12 12 14 16 17 17 17 17 17 15 13 11 10 8 6 6 6 7 8 7 7 6
8 8 9 11 12 14 15 17 16 14 13 14 14 14 17 15 11 12 11 11 9 9 9 13 15 14 14 13 13 12 10 9 9 7 6 6 6 6 6 7 7 7 7
11 10 10 10 11 12 14 15 16 16 15 17 17 16 14 12 10 10 9 7 7 5 9 12 12 11 12 10 9 8 8 7 6 6 5 6 7 7 7 8 8 8 7
13 12 11 11 11 11 12 13 13 12 13 15 14 12 11 9 8 7 6 5 5 7 9 9 9 8 8 7 7 7 7 6 6 6 6 6 6 6 6 7 8 8 8
13 13 11 11 11 11 11 11 10 10 10 11 10 8 8 6 4 3 4 3 5 6 6 5 6 5 5 5 6 6 5 5 6 6 7 7 7 8 8 8 8 8 7
9 9 8 7 8 8 7 7 7 7 7 6 6 8 7 4 3 5 5 5 5 5 5 5 5 4 5 5 5 5 6 6 6 7 7 8 7 7 6 7 7 7 8
5 4 4 3 4 4 4 5 6 6 6 6 7 6 6 6 6 5 5 5 5 5 4 5 4 5 5 5 5 5 5 6 6 6 7 7 7 8 8 8 8 8 8
3 3 2 3 4 4 4 5 5 5 6 6 6 6 6 6 6 6 6 6 6 6 5 5 6 6 6 5 5 6 6 7 8 8 8 8 8 8 7 8 9 9 9
3 3 2 3 4 4 4 5 5 6 7 7 7 7 7 7 7 6 6 5 6 6 6 7 7 7 7 8 8 8 9 9 8 8 8 9 10 10 10 10 9 10 9
4 4 5 5 5 5 5 5 6 6 7 7 7 8 8 8 8 8 7 6 6 6 6 7 8 9 9 9 9 10 10 10 9 10 10 11 11 11 10 9 9 8 8
6 6 5 5 5 5 5 5 5 6 6 7 8 9 9 10 10 11 10 9 10 11 11 11 11 11 11 11 11 11 12 12 12 12 12 11 11 10 10 10 9 9 9
6 5 5 5 5 5 5 5 6 6 7 7 8 8 9 9 10 10 10 10 11 11 11 11 11 11 11 12 12 12 12 13 12 12 12 12 11 10 10 10 10 10 10

GFSGL_850_spd_084.txt.gz
Wind_Speed
20 20 16 15 15 13 11 11 12 16 22 25 26 29 33 30 30 35 41 41 38 39 35 41 43 38 40 39 43 41 43 42 42 45 44 47 44 38 44 49 48 47 47
16 16 17 14 14 14 14 12 11 11 14 17 21 22 27 32 31 32 35 38 38 37 39 38 41 38 40 40 41 43 44 46 48 50 54 51 51 50 50 49 53 55 55
13 15 18 16 14 13 14 15 14 13 13 15 17 20 21 25 33 34 35 36 38 37 36 37 39 41 44 44 46 48 49 50 53 58 58 54 57 56 57 57 58 59 59
10 11 12 14 14 15 14 15 15 14 15 15 16 19 22 26 31 34 37 39 40 41 42 43 45 46 48 49 49 49 49 51 53 55 55 57 58 60 57 59 62 61 63
11 10 10 10 11 13 13 13 15 17 19 20 19 20 21 23 25 27 30 34 38 41 44 46 48 49 50 51 51 52 53 53 56 56 50 49 54 56 57 55 53 57 57
11 10 11 11 12 13 14 16 17 18 20 20 20 22 25 28 29 29 32 34 36 39 42 44 47 48 50 51 54 55 56 55 55 56 55 49 50 52 51 48 51 48 50
15 14 13 11 11 12 13 15 17 18 19 22 24 25 26 26 29 31 30 31 35 38 41 45 46 46 46 47 47 47 46 46 50 52 55 55 57 56 53 53 52 52 53
16 14 12 12 14 15 15 16 15 16 19 20 21 22 24 30 32 32 33 34 36 37 39 40 42 44 45 47 47 48 47 48 52 52 53 60 62 63 57 52 48 43 43
10 7 7 8 7 8 10 12 15 19 20 21 22 22 24 28 30 31 31 33 35 36 39 41 43 45 47 49 50 50 46 50 54 54 56 58 59 61 62 62 58 51 45
13 9 6 4 4 4 3 3 5 9 14 16 18 22 26 27 30 33 35 35 34 33 37 39 43 46 46 48 50 45 44 37 38 37 33 27 26 30 31 27 25 21 17
17 15 13 11 9 8 6 3 0 2 3 5 7 8 10 14 16 21 25 25 26 23 24 25 28 35 39 42 37 30 19 19 21 23 21 16 8 2 2 3 2 1 2
16 14 13 13 13 11 9 6 5 3 2 2 1 2 4 6 8 9 9 7 6 8 8 8 9 12 15 14 14 12 7 10 13 11 11 9 10 11 10 9 9 8 7
10 10 12 12 12 12 10 9 7 6 5 5 4 4 5 6 7 10 10 10 8 5 5 5 7 8 9 10 13 11 11 9 9 10 11 11 12 12 10 9 9 8 7
9 10 12 12 11 12 9 9 8 9 10 10 10 10 9 10 11 12 11 11 11 11 11 9 9 9 11 14 13 13 13 12 12 12 12 11 9 7 7 8 8 8 9
11 11 11 13 15 16 17 18 17 17 14 13 14 13 13 15 17 15 13 13 12 12 10 11 12 13 14 15 14 14 13 11 10 10 8 7 7 8 9 9 8 7 7
9 9 10 12 13 15 16 17 16 15 13 15 17 17 18 16 12 11 11 11 10 9 6 9 11 11 11 12 11 11 10 9 9 9 9 9 8 8 7 7 7 7 7
12 12 11 11 12 12 13 12 12 12 12 14 14 14 13 12 10 9 9 7 7 5 5 9 9 9 9 8 8 7 8 8 8 7 7 7 7 7 7 8 8 7 7
13 13 11 11 11 10 10 11 10 8 8 9 10 8 8 7 6 5 4 4 4 5 6 7 7 7 6 7 7 7 7 7 7 8 7 8 7 8 8 7 7 7 8
12 12 10 9 9 8 7 7 5 5 5 6 6 5 6 6 5 3 3 1 4 5 6 5 5 5 6 6 7 7 7 7 8 8 8 8 8 7 8 8 8 8 8
9 9 6 5 6 5 4 3 4 4 5 5 4 6 6 5 2 2 3 3 4 4 4 4 5 5 5 6 6 6 7 7 7 8 9 8 8 8 8 8 8 8 10
7 5 4 3 3 4 4 3 4 4 5 5 6 6 5 4 4 4 4 4 4 4 5 5 5 5 6 6 6 7 7 8 9 9 9 9 9 9 9 10 10 10 10
5 5 5 5 5 4 4 5 5 6 6 7 8 7 7 5 5 5 5 5 6 6 6 6 6 6 7 7 7 7 8 9 9 9 9 9 10 10 10 10 10 11 10
6 5 5 4 4 4 5 5 5 5 6 6 6 5 5 5 5 5 6 6 6 7 7 7 8 8 9 9 9 9 10 10 10 10 10 11 11 11 11 10 10 10 10
5 5 4 4 3 3 4 4 4 5 5 5 5 5 5 5 6 6 6 6 7 7 7 8 9 10 10 10 11 11 12 12 11 12 12 12 13 12 11 11 11 10 9
5 4 4 3 3 3 2 3 3 4 4 5 6 7 7 7 8 9 9 8 8 9 10 10 11 11 12 12 13 13 14 15 15 14 14 14 13 12 12 11 11 10 10
4 3 3 3 4 3 4 4 5 5 6 7 7 8 8 9 9 10 11 11 11 12 12 12 12 12 12 13 14 14 15 15 15 15 15 15 15 13 12 11 11 10 10

GFSGL_850_spd_087.txt.gz
Wind_Speed
20 20 18 16 14 11 12 13 12 17 22 30 32 35 36 33 33 32 40 47 41 45 43 43 44 42 37 37 38 42 40 38 39 42 40 44 42 42 41 43 42 41 38
19 18 16 13 14 13 12 12 12 13 15 18 21 26 27 31 31 29 29 46 45 41 38 42 42 45 43 39 42 44 44 45 44 47 41 44 45 45 47 50 50 51 52
16 17 19 16 14 14 14 14 13 12 13 16 18 20 21 19 22 26 28 28 34 39 36 38 37 37 41 41 40 43 41 42 45 49 49 48 47 43 53 54 54 54 54
15 16 17 16 15 14 14 13 13 12 12 12 14 15 17 17 18 20 27 27 28 31 34 37 38 38 37 37 37 40 42 46 47 47 48 51 51 53 47 47 49 52 55
13 14 14 12 13 13 12 13 14 13 12 11 11 12 13 15 17 19 23 27 30 33 36 38 40 40 40 39 40 42 41 43 45 45 43 43 47 51 47 47 45 53 52
11 11 11 13 14 14 13 12 12 12 13 13 14 13 13 14 16 18 20 23 26 29 31 32 34 35 38 40 41 43 46 48 50 50 49 47 49 51 52 53 52 47 48
15 13 12 11 12 13 13 13 12 12 13 13 14 15 14 19 21 21 22 24 25 25 26 27 29 31 32 32 33 34 38 38 41 46 53 51 47 40 43 47 50 51 47
14 12 11 12 12 11 12 13 13 14 15 15 17 18 22 25 25 24 24 24 25 25 31 33 34 35 37 38 38 38 39 42 43 45 46 48 51 52 53 52 45 42 39
13 9 9 9 9 9 10 9 11 12 13 15 17 18 19 22 25 25 25 24 25 27 29 33 35 36 37 38 38 39 39 38 37 35 34 37 40 42 40 38 36 34 33
14 11 10 9 8 6 6 5 6 8 8 9 10 12 14 16 20 24 25 24 23 25 27 29 32 33 34 37 36 33 30 26 25 23 23 24 27 25 21 16 13 13 14
17 15 14 14 13 11 10 9 7 7 7 7 5 3 2 4 7 9 9 9 11 14 15 15 16 17 19 17 15 12 13 13 13 12 10 5 2 5 7 8 8 6 3
17 16 17 16 14 13 11 11 10 9 8 8 6 5 5 5 7 6 5 3 3 5 4 2 4 8 8 8 5 5 4 3 3 3 5 5 7 8 10 11 11 10 9
9 11 13 12 11 11 10 10 9 9 8 8 7 8 8 9 10 11 10 9 7 4 5 7 10 10 10 11 13 10 8 7 6 6 7 8 9 9 9 8 8 8 8
12 15 15 15 15 14 13 12 11 12 11 11 11 11 12 12 12 12 12 11 11 10 12 11 10 10 11 12 11 10 10 10 8 8 8 8 8 7 7 8 9 9 8
13 15 16 18 19 19 19 19 18 18 15 14 15 14 14 15 16 15 14 13 13 12 10 10 10 11 11 11 11 10 9 8 6 6 5 4 4 5 6 6 6 6 6
14 15 16 17 17 18 18 18 18 16 13 14 15 14 15 14 11 10 9 9 9 8 5 7 9 9 9 9 8 7 6 5 5 5 5 5 5 5 5 5 5 6 6
16 16 15 15 15 15 16 16 16 15 13 13 13 12 11 11 9 8 8 6 5 5 2 5 6 6 7 7 7 7 7 7 7 6 6 6 6 6 5 6 6 6 6
16 15 13 14 14 13 14 13 12 11 10 9 9 9 8 7 6 5 4 5 3 2 4 5 6 6 6 6 7 7 7 7 7 7 7 6 6 6 6 6 6 6 6
12 13 12 11 11 10 9 8 8 8 7 6 6 6 6 6 6 4 4 2 2 3 4 4 5 6 6 6 7 7 7 8 8 8 8 7 7 6 7 7 7 7 7
10 10 9 8 7 6 6 6 7 6 6 5 5 5 5 5 4 3 3 3 3 4 4 5 5 5 6 6 7 8 8 8 8 8 8 8 8 7 7 7 7 7 7
8 7 6 6 5 5 5 5 4 4 4 4 4 4 3 3 3 3 3 4 4 4 4 5 5 6 6 7 8 8 9 9 9 9 9 9 8 8 8 8 8 8 7
6 5 5 4 4 3 3 3 3 4 4 5 5 5 6 4 4 4 4 4 5 5 5 6 6 6 7 7 8 8 9 10 10 10 9 9 10 10 9 9 8 7 7
5 4 3 3 3 3 3 3 4 4 4 5 4 4 4 4 5 5 5 5 5 5 6 6 7 8 8 8 8 9 10 10 10 10 11 11 11 10 10 9 9 8 8
5 4 4 4 3 3 3 3 4 4 4 4 4 4 4 5 5 5 6 6 6 6 7 8 8 8 8 9 9 10 10 10 11 11 11 12 12 12 11 10 10 9 9
5 4 4 3 3 3 3 3 3 4 4 5 5 6 6 6 7 7 7 7 7 7 7 7 8 8 9 9 10 10 11 12 12 12 13 13 12 12 12 11 10 10 10
5 4 4 4 4 4 4 4 5 6 7 7 7 7 7 7 8 8 8 8 7 7 7 8 8 9 9 10 11 12 12 13 13 13 13 13 13 13 12 12 11 10 9

GFSGL_850_spd_090.txt.gz
Wind_Speed
21 20 18 17 14 13 13 11 16 19 26 34 29 32 32 30 31 31 28 32 41 36 36 39 37 44 39 36 35 36 37 37 34 36 27 27 27 33 40 44 44 41 41
22 21 19 17 14 13 14 12 13 16 20 30 38 40 34 32 37 33 32 31 39 41 31 38 39 44 40 37 38 40 41 39 43 49 49 50 51 48 46 43 44 39 39
25 19 21 18 18 15 14 15 15 13 14 15 22 36 33 34 34 34 30 31 32 43 43 43 43 43 39 40 42 49 46 47 46 42 46 39 39 37 40 41 41 40 40
23 18 20 18 18 17 17 16 15 15 16 17 17 19 19 24 25 26 27 30 28 29 40 44 39 40 43 40 40 39 43 43 43 41 43 44 44 47 39 40 42 41 43
17 18 19 18 16 17 17 17 17 15 14 14 15 17 18 18 19 21 22 27 27 27 27 32 37 40 39 37 38 37 33 32 34 35 36 40 43 41 38 39 40 46 47
19 18 16 16 15 13 14 15 17 17 17 16 16 17 17 18 21 21 19 21 25 28 29 29 32 34 35 36 37 36 36 38 38 37 38 42 45 45 47 49 49 44 42
22 21 20 20 19 18 18 17 15 14 13 14 14 14 19 21 20 21 21 22 21 22 24 26 28 29 31 31 32 33 33 35 38 41 48 49 43 34 33 36 39 38 36
20 20 19 17 17 19 19 19 20 19 19 19 19 21 22 23 22 22 22 23 24 25 26 28 29 30 31 31 32 34 36 38 39 42 41 41 40 39 37 37 35 34 39
20 17 16 16 16 16 17 18 18 18 19 19 19 20 20 21 21 21 22 24 26 28 32 33 33 33 33 34 33 34 33 34 37 34 34 36 34 35 34 31 28 25 23
21 18 15 14 13 12 13 14 14 15 16 16 16 15 16 14 16 17 18 17 18 20 21 22 23 23 25 27 26 27 27 26 23 18 18 18 18 18 14 12 10 9 10
25 19 18 18 14 12 13 13 13 13 12 12 11 10 7 5 4 3 4 7 9 10 9 8 8 9 8 7 7 8 10 10 9 9 9 7 6 6 6 6 6 5 3
23 21 21 20 17 16 15 15 15 14 13 13 12 12 11 10 8 6 4 2 2 2 1 1 4 5 5 4 4 8 6 3 2 1 1 2 3 5 6 7 7 6 5
18 18 21 17 15 15 14 15 15 14 13 13 11 12 12 12 12 10 9 8 7 7 8 11 11 10 10 11 12 9 7 5 4 3 4 5 5 5 6 7 7 6 6
21 21 21 18 16 16 15 14 15 14 13 13 13 15 15 14 14 13 12 12 12 12 14 13 11 10 9 10 9 8 6 6 5 4 4 4 5 5 6 7 6 6 5
18 18 18 18 19 18 18 20 18 17 14 14 14 14 14 16 17 14 13 12 13 12 11 10 9 8 9 9 8 6 5 4 4 5 5 6 6 7 7 7 6 6 5
16 16 15 15 17 16 17 18 18 16 15 16 16 16 16 16 13 11 11 11 10 8 5 7 7 7 7 7 6 5 4 4 5 5 6 6 6 7 6 7 6 6 5
15 15 14 14 14 14 11 10 14 15 13 13 13 12 11 10 8 7 8 6 4 4 4 6 6 6 6 6 6 5 5 5 5 5 5 5 5 6 7 7 7 7 6
15 14 14 14 13 13 10 9 10 9 9 10 9 8 7 7 5 4 4 4 4 3 6 7 7 6 6 6 5 5 5 5 5 5 5 5 6 6 6 6 6 6 6
12 12 12 11 11 9 8 8 8 9 9 8 8 7 6 6 6 5 4 4 6 6 6 6 6 6 6 5 5 5 5 6 6 6 6 6 7 7 6 6 6 10 8
10 10 9 8 8 8 8 8 7 7 6 6 5 5 6 5 4 5 5 6 6 6 6 6 6 5 5 5 5 5 6 7 7 7 7 7 7 6 6 7 7 7 8
8 7 7 7 6 6 6 6 5 5 5 6 6 6 5 5 6 6 6 6 6 6 6 6 5 4 4 5 5 6 6 7 7 7 7 8 8 7 8 8 8 8 8
6 6 6 5 5 4 4 4 5 5 5 5 6 6 5 6 6 6 6 5 5 4 4 4 3 3 4 4 5 5 6 7 8 8 8 8 9 9 9 8 9 9 9
5 5 4 4 4 4 5 5 5 5 5 5 5 5 5 6 6 5 5 4 4 4 4 4 4 5 5 6 6 6 6 7 8 9 9 9 9 9 10 9 9 9 9
5 5 5 4 3 4 4 5 5 4 4 4 5 5 5 5 5 5 5 6 6 6 6 6 6 6 6 7 7 7 8 9 10 10 10 11 10 11 10 10 9 10 10
5 5 4 4 4 4 4 4 4 4 4 4 5 5 5 5 6 6 7 7 7 7 7 7 7 7 8 8 8 8 9 10 10 11 11 11 11 12 11 11 11 10 10
5 4 4 4 4 4 4 4 4 4 5 5 5 5 5 6 7 8 8 8 7 7 7 8 8 8 8 9 9 9 10 10 11 11 12 12 12 12 11 11 11 10 9

GFSGL_850_spd_093.txt.gz
Wind_Speed
18 18 18 16 15 12 12 10 9 11 16 21 19 25 36 40 40 45 40 34 31 28 27 29 36 32 32 30 31 28 30 25 25 25 29 35 34 31 28 33 34 33 40
18 18 17 15 14 15 13 11 9 9 15 23 18 19 25 26 25 26 25 24 25 26 31 40 41 38 37 35 38 37 33 31 31 33 37 40 41 43 44 44 45 46 51
19 19 16 15 13 13 13 12 12 12 19 25 23 21 22 22 25 25 26 30 26 26 25 36 37 35 33 38 38 39 40 35 35 40 45 41 50 48 43 39 41 42 43
17 18 15 15 13 13 13 12 13 13 15 17 27 28 27 28 27 26 31 30 27 28 25 26 28 32 36 38 42 38 41 39 40 46 45 46 46 44 40 42 42 41 42
18 15 15 14 15 14 15 15 13 11 12 14 15 14 21 28 28 28 29 33 29 28 27 30 31 40 37 36 38 38 39 40 42 44 42 38 39 37 35 33 33 36 41
17 15 15 13 15 15 15 15 17 16 17 15 14 14 15 21 21 21 22 22 24 25 25 27 23 23 26 34 39 37 38 38 33 33 29 28 34 35 40 42 44 41 35
21 20 20 20 19 18 16 15 15 15 15 19 18 17 21 23 21 20 18 17 20 21 25 26 26 27 26 28 29 31 34 37 42 42 43 43 42 38 33 29 26 32 33
22 22 22 21 19 18 16 18 17 19 19 19 20 20 20 20 20 20 19 23 22 21 23 25 27 28 30 32 33 35 38 40 39 39 37 38 35 32 35 31 30 31 31
19 20 20 21 21 19 18 18 18 18 17 19 19 20 20 20 19 19 21 23 26 28 29 27 27 30 32 33 33 30 29 27 30 33 31 27 24 27 21 19 16 17 17
16 16 18 18 19 19 19 19 18 19 21 21 21 19 19 18 21 22 23 23 26 28 28 28 31 32 32 31 27 26 22 19 15 12 11 11 12 9 9 9 8 8 9
21 18 20 18 19 16 15 16 15 15 15 15 13 11 9 8 9 9 9 11 12 13 12 9 8 7 6 7 9 10 9 7 5 4 4 4 4 4 4 4 4 4 3
25 22 27 26 29 25 21 21 22 16 17 17 16 15 13 11 10 8 7 7 8 6 7 6 6 6 5 6 7 9 8 6 3 1 1 1 2 2 3 4 4 4 3
23 22 24 23 25 21 23 23 24 15 19 17 15 14 14 14 12 11 7 6 5 5 9 11 12 11 12 11 11 9 7 6 4 3 4 4 4 5 6 8 9 9 10
25 25 22 20 20 19 17 17 16 13 13 12 12 12 11 10 12 12 13 13 13 13 13 12 11 9 9 9 9 8 7 6 6 6 6 6 6 7 8 8 7 8 6
22 24 24 25 25 25 24 22 19 18 14 13 12 12 12 14 14 11 10 12 12 12 11 10 10 9 9 9 7 7 7 7 7 7 6 6 7 6 7 8 8 6 6
22 23 19 19 21 26 24 24 24 20 17 16 16 15 15 15 13 12 10 9 7 6 7 9 10 10 10 9 8 7 6 6 6 6 6 5 6 7 7 7 7 6 6
18 17 16 16 18 20 19 17 17 16 15 14 13 12 11 11 10 8 8 6 5 5 8 9 9 9 9 8 8 7 7 6 5 5 5 6 7 7 7 8 8 7 8
15 15 15 14 15 16 15 13 12 10 11 12 11 9 8 6 5 4 5 4 5 5 8 8 8 8 7 6 5 5 4 5 5 6 5 6 5 7 7 7 8 9 8
13 14 13 13 13 13 12 11 10 10 9 8 7 7 5 4 3 2 2 6 8 8 8 7 7 7 7 6 6 6 5 5 5 6 6 6 7 7 7 8 8 9 10
13 13 12 12 12 11 11 9 8 8 6 5 4 5 7 5 6 6 6 8 8 8 8 6 6 5 5 6 6 4 4 5 5 6 6 7 7 6 7 8 8 9 9
11 11 11 10 10 9 8 8 7 6 7 6 7 7 9 7 7 8 8 8 8 7 6 5 5 5 5 5 4 5 4 5 6 6 6 7 8 8 8 7 8 9 10
9 9 9 8 8 8 8 7 7 7 7 7 7 8 9 6 6 6 5 6 5 4 5 3 3 3 2 2 3 4 5 5 6 6 6 7 7 7 8 8 9 10 10
9 8 8 8 8 8 7 6 6 6 6 6 5 4 4 4 4 4 4 3 4 4 2 2 2 2 3 4 4 4 4 5 6 8 7 7 7 8 8 8 9 9 10
8 7 7 7 6 5 5 5 7 6 4 4 4 4 4 4 4 4 4 4 3 4 5 4 5 5 6 5 6 4 8 7 8 9 9 9 8 9 9 9 8 9 10
6 6 5 5 4 4 4 3 3 3 3 2 2 2 2 2 3 3 5 6 5 5 6 5 6 7 8 7 8 8 7 8 9 9 10 10 9 10 9 9 10 10 10
4 4 3 2 2 2 2 2 3 3 3 3 3 3 3 3 4 4 6 7 7 7 7 7 8 8 7 7 9 8 9 10 10 10 11 11 9 8 9 10 10 9 10

GFSGL_850_spd_096.txt.gz
Wind_Speed
26 23 21 18 20 18 16 15 14 14 13 13 14 20 33 33 41 38 38 48 45 38 35 34 33 35 33 30 28 27 27 20 17 22 19 17 17 19 21 26 28 32 31
22 21 16 19 17 13 15 10 10 9 7 9 11 16 30 36 36 34 42 38 40 39 36 33 30 33 32 29 28 31 34 34 31 29 31 30 30 30 32 35 37 37 40
19 17 16 16 17 14 13 10 8 8 9 14 12 9 18 25 39 42 46 43 39 33 32 26 27 30 33 35 34 34 32 29 30 32 35 32 35 36 36 38 42 40 36
19 14 16 15 14 12 11 10 9 9 12 16 15 11 14 18 21 24 30 39 29 30 29 26 28 32 38 38 39 39 37 38 34 33 34 38 39 41 40 38 37 31 35
13 15 15 14 11 10 11 9 9 9 12 17 18 17 15 16 17 21 21 22 23 28 26 24 23 20 23 31 33 35 38 35 35 33 37 40 40 39 35 30 28 30 30
17 17 16 15 13 14 15 12 10 11 10 11 12 16 16 22 24 24 22 24 28 30 30 27 22 22 28 32 30 30 31 30 28 29 32 34 39 32 26 27 30 29 32
20 19 20 19 20 18 19 20 20 16 16 17 19 21 21 19 17 20 20 19 20 20 25 25 22 26 24 24 26 31 33 34 35 36 37 38 33 36 34 32 35 36 32
20 21 18 16 18 20 19 18 20 19 19 17 15 17 18 18 17 16 18 18 18 21 20 21 23 23 24 29 30 29 31 33 34 36 36 34 32 32 32 29 28 26 26
16 18 17 18 19 20 24 22 22 21 21 19 18 16 13 13 13 16 17 20 22 19 18 20 22 23 25 24 25 27 27 27 27 28 28 28 24 27 27 22 19 18 18
14 15 14 13 15 15 15 16 16 18 21 20 19 17 18 18 18 19 20 21 23 23 22 23 25 23 23 25 22 19 18 15 15 17 12 10 9 7 5 6 8 9 10
18 17 18 16 13 13 15 17 19 19 19 17 14 12 11 11 13 15 15 16 17 16 12 8 7 9 9 12 11 11 11 10 7 6 5 3 0 1 0 0 1 2 2
22 26 24 24 24 25 24 22 20 21 21 20 19 20 19 16 12 11 10 10 11 10 11 11 11 7 4 4 6 10 9 8 5 3 3 3 3 4 3 3 2 2 3
28 24 27 25 21 21 22 25 23 23 24 20 21 24 22 21 21 14 15 12 11 13 16 16 14 13 12 12 12 10 7 7 6 6 7 7 6 4 4 4 5 6 7
30 30 27 24 22 20 20 19 16 21 21 17 21 21 20 20 18 17 20 21 21 19 18 17 15 14 12 12 11 10 9 8 9 9 9 7 5 4 4 4 2 4 1
26 27 29 27 27 26 26 26 22 23 20 19 20 21 22 21 20 16 16 17 16 15 13 13 12 12 11 10 10 9 8 7 7 6 5 4 4 2 5 4 3 2 1
23 22 20 21 23 23 23 24 23 21 20 20 19 19 20 20 16 14 13 14 12 10 10 11 11 11 10 8 7 7 6 5 5 3 3 3 4 5 4 5 3 2 3
19 18 19 19 18 18 18 19 18 18 18 17 15 15 14 13 10 9 10 9 10 8 10 12 11 10 8 7 5 4 4 4 3 3 3 3 3 3 4 4 9 6 4
18 17 17 17 16 16 15 15 12 13 15 17 15 13 11 9 9 9 8 6 9 9 9 9 9 7 5 4 3 3 3 2 2 3 3 3 2 3 6 4 6 10 8
15 15 15 14 13 12 12 11 10 8 8 9 11 11 9 6 5 4 4 6 8 8 7 6 6 5 3 3 3 5 4 3 2 3 4 4 3 2 4 5 6 8 5
15 14 13 11 10 11 10 9 8 8 8 7 6 7 8 4 5 4 5 6 6 7 6 4 3 3 3 4 4 1 2 4 3 3 5 5 3 2 5 3 6 7 6
11 10 8 7 9 10 10 9 9 10 10 10 9 8 8 6 5 5 5 5 5 5 4 2 1 0 1 2 2 4 3 5 5 4 5 4 2 3 5 3 5 6 8
9 10 10 11 11 8 8 7 6 6 6 8 8 7 6 5 4 4 4 4 2 1 2 2 3 2 2 2 2 3 6 7 6 5 4 4 2 4 6 2 4 7 7
6 6 4 2 6 4 5 1 5 5 5 4 4 4 5 3 1 2 2 1 3 2 2 3 4 5 5 3 4 6 6 6 7 7 5 6 5 7 7 5 5 5 8
4 3 4 7 5 3 4 5 7 5 2 3 4 6 5 5 4 7 7 3 3 5 5 5 3 4 4 6 7 9 7 6 7 8 8 8 7 8 7 6 7 6 9
4 3 3 5 4 2 2 3 3 1 1 2 3 3 3 3 6 7 9 8 4 5 6 6 6 8 6 7 8 6 6 6 7 8 8 9 8 6 6 7 8 9 6
8 6 4 3 4 3 3 3 3 5 4 4 4 5 5 5 7 9 9 10 7 6 6 7 9 6 6 9 9 7 7 8 9 9 9 9 9 8 9 9 9 7 5

GFSGL_850_spd_099.txt.gz
Wind_Speed
23 24 26 28 28 24 21 19 21 22 21 21 22 27 28 31 35 33 39 33 35 48 45 53 48 43 39 33 31 25 20 22 21 17 22 20 19 20 16 15 14 19 25
22 23 26 26 22 18 16 18 18 17 16 17 19 20 23 28 30 40 41 34 35 42 47 52 42 43 38 37 34 30 24 20 19 18 20 18 19 18 20 22 24 26 29
14 18 21 17 18 16 14 12 11 11 12 13 11 11 15 23 31 31 34 34 35 41 43 42 39 37 38 41 37 36 32 32 35 32 30 26 26 27 28 27 28 29 34
12 13 14 14 15 15 12 10 9 9 9 12 10 6 9 14 27 37 38 34 40 42 43 35 33 37 35 31 31 37 37 35 34 35 34 31 31 30 29 31 32 29 26
9 11 11 12 12 10 9 8 9 9 9 12 11 8 9 9 14 32 32 29 31 39 36 34 34 28 25 30 34 37 33 34 35 34 36 35 33 30 30 29 32 27 26
10 11 12 13 12 10 10 8 8 8 9 11 14 14 14 11 12 12 14 24 30 30 26 26 27 24 29 28 24 27 29 30 32 33 33 31 30 30 29 31 32 24 27
10 14 15 15 10 18 15 15 15 15 14 14 15 18 18 16 17 17 16 17 21 24 24 25 28 27 24 27 24 25 28 27 28 27 28 26 27 31 31 22 22 25 26
7 11 15 15 16 19 19 16 13 11 14 19 19 20 20 18 13 16 21 21 24 27 29 31 32 29 26 29 29 31 30 31 32 32 32 35 36 38 36 33 29 23 23
11 10 9 15 17 17 15 19 17 15 13 13 14 14 14 15 14 13 15 20 21 23 24 23 24 23 21 25 28 31 32 33 32 32 30 28 26 26 25 23 22 20 18
21 14 12 9 13 18 18 17 16 15 15 14 14 13 12 11 14 13 16 21 23 20 18 18 21 20 22 21 19 18 19 17 14 14 11 10 9 8 8 9 10 10 11
20 19 16 16 18 16 19 18 17 17 16 15 13 12 10 8 9 12 15 18 19 20 17 14 12 12 16 14 13 15 15 15 11 8 6 5 5 4 3 1 2 3 3
24 25 26 23 20 20 20 22 21 20 21 22 21 20 17 16 13 11 9 11 13 12 14 15 13 9 10 9 11 12 13 12 9 8 6 5 4 4 4 3 2 1 0
25 26 26 25 22 23 24 24 22 19 20 23 24 26 27 24 23 19 18 17 16 18 20 20 20 17 17 18 18 16 14 12 10 10 10 8 7 6 4 3 1 0 2
31 30 27 26 24 25 24 26 24 22 22 21 20 24 25 22 23 22 21 21 20 21 20 19 17 15 14 15 13 11 11 12 11 11 10 8 5 5 3 1 1 1 3
23 26 27 27 27 26 26 28 24 24 24 24 22 21 21 20 19 17 14 15 14 14 14 16 15 14 15 14 12 11 10 10 9 8 7 6 3 1 1 2 3 5 5
21 22 22 22 23 24 24 25 24 23 23 23 20 21 22 20 15 16 14 13 11 10 10 13 14 13 13 13 11 10 9 8 8 6 4 3 3 3 2 2 2 3 4
20 19 18 17 17 17 17 18 20 19 20 19 18 18 17 16 14 12 10 11 11 10 10 13 13 11 10 9 8 7 5 5 4 4 4 4 2 1 1 1 1 0 3
18 18 17 16 15 13 13 13 12 12 13 13 13 12 11 10 8 8 8 7 9 8 9 9 9 7 5 4 3 3 3 2 2 3 2 2 2 1 1 2 3 3 1
14 14 13 12 12 11 10 10 10 8 9 10 8 8 9 6 4 3 4 4 7 7 6 6 6 5 5 4 3 4 3 2 0 1 2 1 3 2 2 2 3 3 3
13 12 11 11 11 11 11 12 12 11 8 7 6 8 8 4 5 5 5 6 7 7 7 5 4 3 4 4 2 1 1 1 2 2 2 0 3 3 3 3 4 5 5
12 13 13 10 9 10 10 11 12 11 11 9 8 7 6 6 6 5 5 5 4 3 3 3 2 1 1 1 2 2 4 4 4 3 3 3 4 5 5 5 6 5 7
8 9 11 10 9 9 10 8 7 9 10 9 8 6 6 6 6 5 4 2 1 0 2 3 2 2 3 3 5 6 6 5 4 4 4 5 6 6 6 6 7 7 7
6 7 8 4 6 7 7 5 5 6 7 8 8 9 7 6 5 5 5 5 2 1 3 4 5 4 4 4 5 5 6 6 3 3 4 4 6 6 5 5 7 8 8
5 4 5 5 5 5 5 6 6 5 5 6 7 8 9 10 10 10 8 6 6 5 4 3 3 4 7 6 6 5 5 5 4 4 5 5 6 7 7 8 7 6 7
5 4 4 4 4 3 2 4 5 6 6 6 7 8 9 11 12 12 12 9 6 6 6 6 5 5 5 5 5 6 5 4 5 6 7 8 8 9 9 8 6 6 7
8 6 5 6 7 6 8 7 9 8 7 9 8 8 9 10 11 13 15 13 9 8 8 9 8 8 7 7 8 7 6 6 7 8 9 9 9 9 9 8 8 7 6

GFSGL_850_spd_105.txt.gz
Wind_Speed
18 19 22 19 22 24 24 22 21 20 22 22 22 22 23 21 24 29 32 33 38 40 40 44 41 46 44 49 49 50 44 34 34 24 24 29 31 27 27 25 23 23 21
12 18 17 18 20 21 21 20 19 19 18 21 21 22 22 24 25 28 32 39 41 39 41 45 45 49 47 52 51 48 45 42 38 30 30 26 32 30 26 26 22 22 25
3 13 15 19 20 20 20 17 17 18 18 20 21 21 19 21 25 29 33 36 39 41 41 45 49 49 50 48 56 48 45 41 35 34 34 33 36 33 27 26 27 25 25
8 12 11 11 13 15 14 13 13 14 15 14 13 15 15 14 17 24 27 33 38 40 38 48 46 53 44 48 54 49 46 41 39 39 35 30 28 31 32 29 28 26 30
11 12 11 14 10 8 8 7 9 10 8 7 8 9 9 9 10 13 20 24 26 26 36 36 45 43 45 44 54 53 43 40 32 37 36 36 34 38 32 24 25 24 26
15 14 10 14 14 12 9 8 8 9 8 9 10 12 11 10 10 11 12 13 17 26 33 29 33 34 40 46 47 56 43 41 38 34 32 32 31 28 28 28 28 28 35
21 21 15 9 12 13 11 11 12 10 12 12 12 15 15 15 13 13 12 10 10 20 26 31 29 27 34 40 49 55 37 37 34 34 36 33 34 32 30 33 40 34 37
25 24 21 14 5 6 9 12 14 14 13 14 16 17 17 18 18 18 16 13 10 8 16 24 27 27 29 42 43 51 44 33 40 41 44 42 42 43 39 34 34 37 31
32 29 25 22 18 11 4 4 7 8 12 13 13 14 12 13 15 15 13 13 13 11 9 8 14 16 23 23 25 26 30 33 35 41 41 39 40 36 33 33 35 35 33
36 32 27 24 20 19 17 10 9 6 7 6 8 6 8 9 10 9 7 10 13 14 13 14 14 13 13 15 16 15 19 24 26 27 31 32 33 34 34 34 27 29 31
32 31 31 29 27 23 18 16 14 13 13 11 10 9 6 3 3 4 5 7 8 10 10 10 15 17 18 19 19 20 22 23 22 19 20 20 20 19 19 19 19 19 19
32 33 32 30 28 26 24 21 17 15 13 19 20 20 18 13 10 7 4 2 5 6 8 10 10 10 12 15 16 18 19 21 17 14 13 13 12 11 10 11 11 10 10
32 33 32 30 29 27 27 27 26 25 22 24 24 28 26 22 20 17 15 10 9 10 12 12 9 7 7 11 15 16 16 14 14 13 13 13 12 10 10 9 7 6 6
29 30 29 29 27 27 27 26 27 27 24 24 23 25 24 24 22 21 21 18 20 20 18 18 17 15 15 17 16 16 15 13 12 13 14 13 11 9 9 8 8 9 7
26 26 26 26 26 26 26 25 24 23 21 22 20 20 21 23 20 17 16 13 15 14 12 14 17 17 18 17 16 16 16 15 13 13 13 12 10 8 7 6 4 3 3
25 25 23 22 21 21 20 18 17 15 14 15 15 15 16 15 12 13 13 13 13 10 9 12 15 15 16 15 15 15 14 12 12 11 10 10 9 8 6 6 4 3 2
21 20 20 19 18 17 15 14 13 12 10 9 10 11 11 11 10 10 10 10 9 7 10 13 13 12 12 11 9 9 9 9 8 6 6 6 5 4 4 3 2 2 2
19 18 19 19 18 16 15 13 11 10 10 10 10 11 10 10 9 9 8 7 6 8 10 10 9 8 7 6 6 5 5 4 4 3 3 3 3 2 3 3 3 1 1
19 18 17 17 17 17 15 14 12 11 11 11 10 9 10 11 10 8 6 6 7 8 8 7 8 7 7 7 6 6 5 5 4 3 2 2 2 1 1 1 1 1 2
17 16 16 15 15 15 15 14 13 12 12 12 11 12 11 9 7 8 8 8 7 7 8 7 7 6 6 6 5 4 4 4 3 2 1 1 1 1 1 2 3 3 4
16 15 14 12 13 14 13 13 13 13 13 13 13 13 11 10 9 8 7 6 6 5 5 5 4 4 4 4 4 4 4 3 2 1 1 2 1 2 3 3 4 4 4
15 14 13 13 12 12 11 11 12 12 13 13 14 14 14 11 9 7 6 5 4 4 3 3 3 3 3 3 3 3 3 3 2 1 1 2 3 3 4 4 4 5 5
14 13 12 11 11 11 11 10 11 11 11 12 12 13 13 13 12 10 9 7 5 4 4 3 4 4 4 4 3 3 3 4 4 3 3 3 3 4 4 5 5 5 6
14 13 11 11 11 11 11 10 11 11 12 13 13 13 12 12 12 12 11 10 9 7 5 5 5 5 4 4 4 4 3 3 4 4 3 3 3 4 4 4 5 6 6
13 12 11 11 11 11 11 12 13 12 13 13 14 13 12 12 12 12 12 11 9 8 6 4 5 4 4 4 4 5 5 4 4 4 4 4 4 5 5 6 6 7 7
13 12 12 12 12 12 12 12 10 10 11 11 11 10 11 11 11 11 10 9 8 7 7 5 5 4 4 4 5 6 7 7 6 6 6 6 6 7 7 7 7 7 8

GFSGL_850_spd_108.txt.gz
Wind_Speed
9 13 18 20 18 20 20 18 19 18 17 18 17 21 26 28 27 26 27 29 30 32 35 38 40 38 39 42 40 44 42 40 38 33 34 28 34 32 32 32 29 28 27
6 10 14 13 15 17 18 17 16 17 20 19 19 21 21 22 21 22 24 27 30 33 35 37 40 36 38 42 45 40 47 46 42 34 29 32 35 33 28 31 32 30 30
13 9 13 14 10 13 15 14 16 17 19 17 18 19 21 22 22 24 26 28 30 31 34 36 43 40 40 43 42 43 43 50 50 46 32 28 29 27 31 29 31 35 34
16 12 8 8 7 7 10 11 12 13 11 13 16 20 22 21 22 24 25 26 29 33 37 40 40 42 42 50 44 46 48 48 54 51 38 35 32 31 27 32 33 34 35
19 15 14 12 16 15 14 12 10 6 6 9 9 13 16 16 15 16 12 11 17 24 29 34 36 40 40 46 53 47 51 49 50 50 46 41 34 42 43 35 32 32 32
26 22 18 12 16 16 13 16 11 9 9 8 9 10 12 13 10 11 11 12 14 17 19 25 26 28 24 42 46 49 55 53 49 50 47 46 44 45 41 36 33 33 28
29 27 24 17 17 16 17 15 13 12 12 13 12 13 13 13 13 14 13 16 17 19 19 17 22 24 26 28 42 43 50 45 48 54 54 51 50 45 43 37 37 33 33
35 30 28 23 20 19 13 11 11 7 7 6 4 5 8 12 15 16 17 18 18 19 19 17 18 21 28 32 27 41 44 48 47 48 49 39 40 43 40 36 37 34 30
41 38 34 29 27 24 23 21 15 7 6 5 2 1 4 6 11 13 13 14 14 15 12 9 7 12 16 21 25 37 42 43 39 40 36 37 36 34 35 31 34 35 36
40 37 36 35 32 30 26 24 22 19 18 13 13 14 8 5 7 3 5 6 9 10 10 8 9 6 6 8 12 21 25 22 22 21 25 25 27 32 36 38 38 40 42
36 36 37 36 35 34 31 27 24 23 21 21 20 22 21 17 15 11 5 2 2 3 5 5 5 11 13 13 12 9 10 10 13 14 17 20 20 22 26 28 28 28 32
34 35 36 35 34 33 33 33 32 30 29 29 28 27 28 29 25 18 14 9 7 4 6 5 5 4 4 10 14 15 16 16 14 14 14 12 11 13 13 13 16 17 17
32 33 33 32 31 31 31 32 32 32 31 30 31 32 30 30 31 31 26 18 13 14 14 13 9 8 9 9 10 10 11 12 15 17 17 17 16 16 16 17 17 15 16
30 30 29 30 29 29 30 30 30 31 29 29 28 28 26 27 28 25 23 22 21 19 15 14 14 15 16 19 18 17 16 15 15 18 19 19 17 16 16 15 15 14 13
28 27 27 27 27 27 27 27 27 27 24 24 25 23 24 25 24 21 19 18 17 16 12 12 15 18 19 21 21 20 19 19 20 19 18 17 16 14 15 14 13 12 11
26 27 26 25 23 22 21 19 19 18 17 17 18 18 18 17 15 15 16 15 13 11 9 13 15 15 16 17 17 17 16 16 17 15 15 14 13 12 12 12 10 10 10
25 25 25 25 24 23 20 19 17 16 15 14 15 14 14 13 13 13 12 12 10 8 11 13 13 13 14 13 13 12 12 12 11 12 12 11 10 10 8 8 7 5 5
22 23 23 23 23 22 22 21 19 18 18 18 17 16 14 12 13 11 10 9 6 8 9 9 10 9 9 8 8 8 8 7 6 7 6 5 4 5 5 6 7 7 6
23 23 23 22 22 21 20 19 18 18 17 16 14 13 15 15 14 11 9 8 9 9 10 9 9 9 9 9 9 9 7 7 7 7 7 7 7 7 6 6 6 5 4
21 20 20 20 20 20 20 19 19 19 18 18 17 17 14 10 9 11 10 10 9 9 8 8 7 7 8 7 7 6 6 6 6 6 6 6 5 5 5 5 4 3 3
21 20 19 18 18 18 18 19 19 19 19 19 19 18 17 15 12 10 8 7 7 6 6 6 6 5 5 5 5 4 4 4 3 4 4 4 4 4 4 3 3 3 3
20 19 19 18 17 17 16 16 16 17 17 17 17 17 16 14 12 11 10 8 6 5 5 5 4 4 4 4 3 3 3 3 2 2 2 2 2 2 2 2 2 2 2
18 18 17 17 16 15 14 14 14 14 14 15 16 16 15 15 14 12 11 9 7 6 6 5 4 4 4 3 3 3 3 2 2 2 1 1 1 2 1 1 2 2 1
18 18 17 17 16 16 16 15 15 15 15 14 14 14 13 13 13 13 12 10 9 7 6 5 5 5 5 4 3 3 3 2 1 1 0 0 1 1 1 1 2 2 1
18 18 17 17 17 17 17 16 15 14 13 14 13 12 11 11 10 10 11 10 8 7 6 4 5 4 4 4 4 4 3 2 2 1 2 2 2 2 2 2 2 2 2
18 18 17 17 16 15 15 15 13 13 14 15 13 11 11 11 10 8 9 9 7 8 7 6 4 4 4 5 6 6 5 3 3 4 4 4 4 4 4 3 3 3 3

GFSGL_850_spd_111.txt.gz
Wind_Speed
2 10 18 21 22 24 26 25 25 25 22 25 27 28 30 29 27 28 27 27 28 29 31 32 32 32 35 35 36 39 39 41 38 31 36 36 39 45 44 40 38 35 34
10 10 13 16 15 17 19 19 19 20 20 24 23 22 18 18 20 23 25 26 25 26 27 30 32 34 36 39 42 42 39 41 41 37 38 35 36 44 37 42 39 35 34
18 12 11 13 12 10 12 14 15 18 19 21 21 19 17 16 17 17 19 22 21 24 26 28 33 34 38 41 43 41 45 42 43 40 42 39 35 36 40 35 40 41 40
24 19 19 14 14 13 10 11 12 12 15 16 15 14 15 15 16 18 21 23 26 28 30 35 37 39 39 36 43 40 45 44 49 46 45 46 38 38 40 40 41 45 43
32 23 23 18 18 18 17 20 22 22 19 16 14 12 11 13 17 19 21 22 21 20 19 23 28 29 35 42 45 42 47 43 47 47 44 41 43 42 42 43 42 40 40
36 34 29 23 18 23 23 23 19 17 16 14 10 8 10 16 16 15 13 14 14 15 18 18 19 22 26 28 31 38 48 48 51 48 48 48 48 52 45 46 45 40 37
40 39 32 32 26 23 22 21 21 17 12 10 13 12 13 14 15 14 14 15 16 19 21 23 22 22 25 22 29 28 40 50 47 51 49 50 51 54 54 50 48 46 42
43 41 37 34 33 27 24 25 22 16 14 14 10 7 7 10 14 14 16 16 16 17 17 20 21 22 21 17 20 26 34 36 56 53 50 48 49 52 56 56 51 51 43
45 42 38 36 35 34 33 29 26 23 23 20 17 12 5 3 5 7 8 8 10 11 10 12 16 17 16 13 12 16 23 28 36 44 48 47 46 45 49 45 44 46 41
42 40 39 38 38 37 35 36 33 31 30 27 26 26 23 21 17 9 1 2 3 4 5 6 8 11 11 9 7 10 15 16 20 30 41 44 42 40 35 43 49 51 51
37 37 37 38 37 37 36 34 34 34 32 32 32 31 31 28 26 22 21 10 8 6 4 5 7 6 5 6 7 8 9 15 10 6 8 14 22 29 34 36 34 36 39
33 35 36 35 35 34 34 34 34 33 34 34 33 32 32 32 31 30 27 26 23 17 15 14 14 13 6 0 4 5 7 10 12 12 11 11 10 8 8 16 22 24 29
30 32 32 32 32 32 32 32 33 33 33 32 32 32 31 29 27 26 26 24 23 23 23 20 15 12 10 10 11 9 9 8 10 13 17 20 17 17 15 14 15 15 17
29 30 29 30 30 30 31 31 31 31 30 29 29 28 26 25 25 24 21 19 18 18 16 17 17 16 16 15 12 11 13 15 17 20 20 20 20 20 22 21 19 19 20
28 29 29 28 28 28 28 28 27 26 24 23 23 22 22 23 22 19 18 17 16 15 12 12 14 16 18 19 18 17 17 17 18 19 19 19 18 17 18 18 19 17 20
28 28 27 26 25 24 23 22 22 21 20 18 17 17 16 14 14 15 14 14 12 11 9 13 15 16 17 17 17 16 16 16 16 16 16 15 16 17 17 17 17 17 17
25 25 25 26 25 25 23 22 20 19 18 19 19 18 16 15 13 13 12 13 10 8 10 13 14 14 14 13 13 12 13 13 11 10 10 11 12 13 13 15 14 14 15
22 23 23 23 23 22 22 22 21 21 21 20 19 18 15 15 15 13 12 9 8 9 10 10 9 9 9 8 8 8 8 8 8 8 8 8 8 8 8 8 8 8 8
20 21 21 20 20 20 20 20 20 20 20 19 18 16 16 16 14 12 10 10 12 11 12 11 11 10 10 9 9 8 6 6 6 6 6 7 8 8 9 9 9 10 9
18 18 18 18 18 19 19 19 20 20 19 20 20 20 17 14 13 13 13 11 10 9 9 9 8 8 7 7 6 6 5 5 6 7 7 8 8 8 8 8 8 7 7
18 17 17 17 17 16 16 16 16 16 16 17 18 19 19 18 16 15 13 11 9 8 7 7 6 6 5 5 4 4 3 3 4 4 4 5 6 6 6 6 6 6 6
17 17 16 16 16 16 15 15 15 14 15 15 16 16 16 16 15 14 13 11 9 8 7 6 5 4 4 3 3 3 3 2 2 2 2 3 3 3 4 4 5 6 6
17 17 17 17 17 16 16 16 15 13 13 14 15 15 14 14 13 13 12 11 10 8 7 6 5 4 4 3 3 2 1 1 1 1 2 2 3 3 4 4 4 5 5
19 19 19 19 18 18 18 18 16 15 14 14 14 14 13 12 12 11 11 11 9 8 7 6 5 4 3 3 3 2 1 0 1 2 2 3 3 3 3 3 3 3 3
19 19 19 19 19 19 17 17 17 16 15 15 14 13 12 13 12 11 10 10 8 8 7 7 6 5 4 4 4 3 1 1 1 2 2 2 2 2 2 2 2 2 3
19 19 19 19 19 19 19 18 16 16 16 16 16 15 14 12 12 13 12 10 9 8 8 8 7 7 5 5 4 4 4 2 2 2 2 2 2 3 2 2 2 2 3

GFSGL_850_spd_114.txt.gz
Wind_Speed
10 8 9 22 27 23 29 31 28 27 27 30 28 31 37 41 41 41 38 33 33 30 30 30 31 30 32 32 32 35 35 35 39 38 33 32 34 32 35 40 45 45 40
12 6 7 17 20 19 21 24 26 26 27 28 28 27 33 35 36 34 30 28 31 28 27 28 29 26 29 29 28 32 36 36 37 35 36 37 37 34 34 39 45 47 48
20 16 14 17 16 15 15 15 19 22 21 22 24 25 27 24 25 27 27 27 26 25 26 25 23 21 25 29 32 34 35 37 39 41 42 37 36 37 37 33 40 47 50
29 29 22 16 14 15 16 17 19 20 20 22 22 21 21 21 23 22 22 22 24 23 22 22 24 25 27 30 34 37 38 43 40 45 42 40 43 41 37 38 42 44 47
38 35 35 22 18 19 20 19 18 19 21 22 22 22 24 24 24 23 19 18 18 20 20 22 24 26 28 31 34 35 35 39 41 48 40 41 39 40 44 43 42 46 43
44 38 38 38 28 26 26 27 27 26 25 24 23 21 19 18 18 18 16 17 19 21 21 20 19 19 23 22 26 30 36 43 40 43 42 43 46 47 44 44 45 47 47
46 41 40 40 37 37 31 31 31 27 23 20 16 11 6 5 10 13 14 15 16 18 18 19 20 21 21 22 24 30 31 32 37 44 44 50 47 50 49 47 48 55 52
45 44 42 40 40 38 35 33 34 31 29 23 19 15 7 3 7 12 13 13 14 16 17 18 18 19 20 20 20 22 24 26 28 31 32 41 46 51 55 54 47 54 48
47 45 43 41 40 39 40 36 34 33 34 34 27 26 19 20 14 7 0 6 8 9 12 13 14 16 19 21 20 17 15 18 21 25 23 26 46 44 48 48 44 51 49
42 41 40 40 40 40 37 36 36 36 36 34 35 32 31 29 25 20 14 10 7 5 6 8 10 11 15 18 15 13 12 12 13 14 15 20 28 36 40 47 52 52 49
35 35 36 37 38 37 35 35 35 36 36 35 34 33 32 32 31 29 24 20 17 15 15 15 15 16 11 11 12 10 8 9 7 6 4 5 12 18 27 38 43 50 53
31 32 33 33 33 32 32 33 33 33 32 31 31 31 30 29 29 28 28 26 22 20 20 20 20 19 17 12 8 6 5 6 4 4 3 9 8 6 11 8 18 28 33
29 31 30 31 31 31 31 31 31 31 30 30 29 27 27 27 26 25 24 23 23 22 20 18 16 14 13 11 12 10 6 3 1 3 6 9 12 13 10 9 9 10 15
29 30 30 31 29 31 30 30 31 31 30 28 26 26 24 24 24 23 21 19 18 17 15 15 16 15 15 16 13 13 13 12 11 11 13 14 13 13 16 16 16 20 19
27 28 28 27 28 25 29 31 29 29 27 25 23 21 23 22 21 18 17 17 16 14 12 11 12 14 15 17 18 17 16 15 15 15 14 13 13 14 17 16 17 20 23
22 23 26 24 24 23 21 20 25 24 24 23 22 21 18 16 16 16 15 14 13 12 11 11 12 13 14 14 14 13 12 13 13 12 13 14 14 14 15 16 16 18 22
24 21 20 21 21 21 21 20 19 19 21 21 21 21 20 18 17 17 15 14 13 10 11 12 12 11 11 11 10 10 10 10 8 8 9 10 10 10 11 13 13 14 16
20 21 18 18 18 18 18 17 17 18 19 19 20 20 19 18 17 16 13 11 12 13 13 12 12 12 11 10 8 7 6 5 5 6 7 7 8 9 9 10 11 11 12
20 20 16 15 16 16 16 16 16 17 17 17 18 18 18 17 17 15 13 13 13 13 13 12 11 10 10 9 9 8 7 6 5 4 3 5 5 5 6 6 7 8 8
15 17 17 15 15 15 15 15 15 14 14 15 16 18 19 17 17 17 15 14 12 12 11 10 10 10 9 8 8 7 7 7 6 6 6 6 6 6 6 7 7 7 7
13 14 15 12 12 13 12 13 13 13 14 14 15 18 19 15 15 15 14 13 12 11 10 9 9 9 8 8 8 6 5 5 4 4 4 4 4 5 5 5 5 6 7
13 12 11 12 12 12 12 11 11 11 12 12 12 13 17 11 11 11 11 11 11 10 9 9 8 8 7 7 6 6 5 3 2 4 4 3 4 3 3 4 5 5 6
11 11 11 11 12 13 12 12 12 12 12 12 12 13 12 12 11 11 11 11 10 10 10 8 7 7 6 6 6 5 4 3 3 1 3 3 3 3 3 3 4 4 4
11 11 12 12 12 12 12 12 12 13 13 12 12 12 12 12 12 11 11 10 10 9 9 9 9 7 7 6 5 5 4 4 3 2 1 2 3 3 3 3 2 4 3
11 12 13 13 13 13 14 14 13 13 13 13 13 13 12 12 12 11 11 11 10 8 9 10 9 8 7 6 6 5 5 4 3 2 1 1 1 1 2 2 3 2 4
13 13 14 14 15 15 16 16 15 14 14 13 13 13 13 13 12 12 12 11 10 9 10 8 9 10 9 7 7 7 5 4 4 4 3 2 2 1 1 1 2 1 2

GFSGL_850_spd_117.txt.gz
Wind_Speed
17 15 16 21 25 30 30 33 38 40 37 32 33 32 36 42 45 43 43 42 40 39 36 33 31 33 32 32 34 34 32 32 35 39 31 27 26 30 32 30 27 28 35
14 12 14 8 4 15 21 27 32 32 30 29 29 28 27 34 38 39 40 39 40 38 33 29 33 28 31 31 31 33 33 33 35 36 35 33 32 34 34 32 32 30 33
17 18 13 10 12 11 14 15 23 22 25 24 25 24 25 26 27 30 34 36 34 31 31 30 27 27 28 29 29 30 27 26 28 31 38 34 30 29 35 34 32 34 33
32 33 30 23 17 11 10 13 12 16 22 22 21 25 27 24 29 31 33 34 31 27 25 25 21 21 21 21 24 26 27 29 32 31 31 40 37 41 38 39 37 37 39
42 43 46 35 26 20 20 20 20 20 21 22 22 23 24 23 26 28 28 25 27 23 25 23 23 23 25 29 31 32 34 34 32 30 35 37 37 37 39 35 40 39 40
45 45 46 46 42 37 30 26 26 27 25 22 21 18 18 18 20 21 23 21 20 21 22 22 23 25 27 28 24 26 28 30 33 35 39 36 40 39 46 43 40 41 41
46 47 46 46 45 46 40 37 37 33 30 29 26 22 19 15 13 12 9 12 15 18 19 19 19 20 19 22 22 23 24 26 31 33 35 37 38 28 39 46 45 46 47
46 47 47 46 45 45 45 45 44 43 40 39 36 34 24 21 13 11 8 5 4 4 8 10 14 17 19 21 21 20 21 21 21 23 25 27 32 37 39 39 49 48 49
45 45 44 44 43 43 44 45 44 41 44 43 41 41 38 37 28 20 10 8 5 6 6 4 4 6 11 14 14 17 17 17 18 19 21 25 29 29 27 34 38 42 45
40 39 38 39 39 39 38 41 40 41 42 42 40 36 38 35 33 30 25 20 17 16 14 13 15 14 12 9 10 12 13 14 15 15 16 19 20 21 22 25 29 44 50
33 34 35 36 36 36 35 36 35 36 36 36 37 36 36 32 30 30 29 25 24 22 21 20 20 20 17 15 12 9 10 11 13 13 13 12 13 11 11 14 21 29 37
32 32 35 35 35 36 35 34 34 33 33 32 32 31 30 29 28 28 25 25 23 24 24 22 20 18 17 15 15 14 13 12 10 9 8 8 9 9 7 5 9 19 27
29 32 32 32 35 35 35 35 36 35 34 32 31 29 28 27 26 24 22 22 21 19 18 17 16 15 16 16 15 14 12 11 10 9 10 10 10 9 9 6 2 6 12
28 29 30 32 30 32 34 34 34 34 33 32 30 30 27 27 26 25 23 20 18 17 16 14 13 13 14 16 15 15 16 16 15 15 15 13 11 8 7 8 6 4 5
26 27 26 24 27 25 31 33 33 33 31 29 27 24 26 26 25 22 22 22 20 17 14 13 14 14 14 15 15 14 13 13 14 14 12 12 13 13 12 10 9 12 14
21 22 25 22 23 23 22 20 27 31 30 28 26 25 22 21 19 19 18 17 16 16 16 17 18 16 17 16 15 14 14 12 12 11 12 11 11 11 11 12 12 14 18
20 19 19 20 20 21 20 20 19 19 22 26 25 24 24 23 21 19 18 17 20 15 15 15 17 18 18 17 16 14 13 13 11 11 11 10 11 10 9 10 10 10 14
19 18 17 17 17 17 17 17 17 18 20 20 22 23 22 24 25 22 17 15 17 18 17 16 15 15 15 15 14 15 14 12 11 12 10 10 9 8 8 9 8 8 9
17 17 14 14 15 15 15 15 16 16 17 17 19 21 23 21 21 22 21 18 16 15 15 14 14 14 14 13 14 11 13 12 13 12 10 11 11 9 8 8 7 7 6
13 17 14 13 14 15 14 15 16 16 16 16 18 20 26 19 20 20 19 18 16 14 14 13 13 12 11 12 12 12 10 11 10 9 11 9 8 8 7 7 7 6 6
12 13 15 14 14 14 14 14 15 15 15 16 16 21 27 18 17 16 17 16 15 14 14 13 12 13 12 11 10 9 10 7 7 8 8 7 9 6 6 5 5 5 5
12 13 13 14 14 14 15 14 14 15 15 15 16 16 19 16 15 15 15 16 14 13 12 12 10 10 11 11 11 10 8 8 9 3 6 8 6 6 5 4 4 4 5
13 14 14 14 14 15 14 15 15 16 16 16 17 16 16 15 16 16 16 15 14 14 14 12 11 9 9 8 8 9 8 6 7 8 4 5 5 3 4 3 3 2 1
13 14 14 15 15 16 16 17 16 17 17 17 16 16 16 16 16 16 16 17 16 14 13 16 11 16 15 11 9 9 10 8 7 4 3 2 1 1 2 4 2 3 3
13 15 15 16 17 17 18 18 18 18 18 18 18 17 17 17 17 16 16 15 16 16 14 14 14 13 12 14 12 11 11 9 6 4 1 4 5 5 2 1 4 2 3
14 15 16 17 17 18 19 19 20 20 20 20 19 19 20 18 17 17 17 16 15 14 15 13 13 15 16 10 13 14 12 10 7 5 2 2 1 2 3 3 2 2 1

GFSGL_850_spd_120.txt.gz
Wind_Speed
19 19 17 19 22 26 28 34 43 42 45 37 36 43 44 29 40 41 48 49 46 44 44 40 37 36 32 36 34 31 34 32 33 37 30 27 26 28 31 29 26 28 27
24 17 14 13 11 10 13 13 23 27 34 34 36 40 48 41 41 37 40 51 46 41 41 41 39 34 31 34 33 32 33 32 33 35 33 30 29 26 31 34 31 31 29
32 24 21 18 15 11 9 3 9 21 25 29 29 32 34 36 34 31 37 45 42 40 37 38 37 34 30 31 31 32 27 29 26 28 32 28 27 30 30 32 34 34 31
41 38 36 34 28 22 20 19 17 9 7 5 10 24 29 32 31 35 37 36 34 34 34 33 32 31 31 31 30 24 25 25 22 19 23 27 29 23 25 30 33 39 39
44 45 43 41 39 35 33 30 20 15 10 13 16 16 13 15 21 25 29 31 35 34 29 30 27 29 30 28 27 26 35 34 28 27 30 31 31 29 32 33 36 37 39
43 45 45 47 49 52 46 44 42 37 30 31 28 23 17 15 16 17 27 29 32 32 31 25 23 23 23 25 26 26 30 28 27 27 27 28 31 30 32 35 38 38 38
44 46 47 48 51 54 54 51 53 51 46 44 40 35 33 29 20 17 18 20 17 18 17 16 15 16 18 19 19 22 22 21 23 24 24 26 29 31 34 35 33 32 41
42 43 44 46 48 50 50 52 51 48 50 49 47 46 41 39 32 29 26 19 19 20 14 9 7 5 4 6 10 13 17 18 17 18 18 19 21 25 29 32 35 40 39
40 41 41 41 43 44 47 48 48 45 49 47 44 44 42 41 36 37 33 28 23 28 24 22 12 10 12 6 5 7 10 10 13 15 15 16 17 21 25 26 26 29 32
39 38 39 40 40 40 40 40 39 39 41 42 40 41 38 40 37 38 31 36 31 28 25 22 22 20 18 16 11 7 7 5 6 9 11 12 13 15 18 17 17 21 23
33 37 37 39 40 39 37 37 37 37 35 35 36 34 34 33 34 32 32 30 30 30 29 29 27 23 21 19 16 14 13 11 8 7 7 8 9 10 12 13 14 15 17
32 31 35 38 38 38 37 37 37 36 37 38 36 36 35 33 31 30 27 25 26 25 25 25 22 19 18 17 17 16 13 11 11 10 8 7 7 7 9 10 12 14 15
29 32 32 32 34 36 38 38 38 37 37 36 36 35 33 31 29 28 26 25 24 24 22 18 15 15 15 15 15 12 12 14 14 15 16 15 14 12 11 10 10 11 12
28 29 30 32 32 34 36 37 37 38 36 35 34 34 32 31 31 31 29 27 24 22 19 17 15 14 14 14 14 14 15 15 16 15 15 15 13 12 11 10 8 5 7
24 27 26 27 28 29 32 36 39 38 38 35 32 31 31 31 30 26 26 27 23 20 19 18 18 18 19 18 17 16 15 14 14 13 14 15 14 13 13 11 10 9 10
22 24 26 26 26 26 25 23 26 28 31 33 33 28 28 26 24 20 20 20 19 18 18 20 20 20 21 21 21 19 17 16 16 15 14 14 16 14 12 10 9 9 10
21 20 21 23 23 24 24 23 24 23 21 27 31 30 24 24 26 26 18 16 18 18 23 22 20 20 18 20 17 18 19 18 14 15 14 13 12 10 11 10 9 7 9
20 18 20 21 21 21 22 21 21 23 24 24 25 30 29 23 23 25 26 19 20 20 17 19 20 17 16 17 18 15 16 15 14 13 11 12 13 14 12 11 9 7 6
21 20 17 17 19 18 17 19 20 20 21 22 25 29 31 23 21 22 27 27 21 20 18 16 18 19 15 13 14 14 12 13 11 11 12 9 10 13 13 10 11 10 6
14 19 19 18 18 20 20 20 20 20 19 20 22 28 31 25 26 25 25 28 23 20 19 16 14 17 19 13 12 11 12 10 9 8 8 10 8 7 9 10 8 10 10
15 16 18 17 18 19 16 17 17 18 18 19 19 21 24 22 22 22 22 24 22 20 21 19 14 15 17 16 15 13 10 12 11 4 5 6 10 8 5 4 6 4 5
15 15 14 15 17 20 17 17 19 17 18 19 19 20 20 18 20 21 21 24 24 22 19 20 18 19 18 15 13 16 14 13 11 5 2 5 7 4 6 4 3 3 2
13 15 14 15 17 19 18 18 20 19 20 20 20 21 21 21 21 21 19 20 22 25 23 20 23 19 23 18 14 16 17 13 10 9 1 2 5 1 3 5 4 4 2
14 16 16 16 17 18 18 20 19 20 20 21 21 21 21 21 22 21 20 20 21 23 23 20 20 20 25 23 22 15 16 15 10 6 2 3 7 4 2 1 5 1 2
13 15 16 17 18 19 20 20 21 21 22 22 21 22 21 22 23 21 20 21 21 20 20 24 21 20 22 24 19 19 19 19 13 5 3 3 1 4 2 3 1 5 2
14 15 16 17 19 18 20 22 20 20 21 21 22 22 21 22 22 21 24 24 21 21 21 18 17 20 22 19 19 21 23 19 13 7 6 7 6 6 4 2 4 5 4

GFSGL_850_spd_123.txt.gz
Wind_Speed
25 20 18 15 14 18 21 24 28 32 33 34 37 38 42 36 32 38 43 39 36 46 49 44 42 44 40 43 40 41 38 34 35 29 27 28 29 28 27 27 28 29 27
30 28 21 13 11 11 8 9 8 17 25 25 25 26 30 33 33 42 42 48 51 45 48 45 42 44 44 41 41 37 37 34 32 28 25 25 31 30 28 29 27 26 26
34 34 30 25 21 20 16 10 6 4 5 11 17 21 27 32 34 33 28 37 36 45 44 49 46 44 44 42 42 36 35 34 29 28 26 29 32 27 25 25 26 30 30
37 39 40 38 36 30 27 26 23 20 18 15 10 11 19 26 34 34 34 32 35 40 39 42 42 43 41 41 41 36 37 33 30 26 23 25 26 21 22 26 27 29 25
38 41 44 45 43 42 40 37 37 34 34 29 23 19 11 8 9 9 24 26 32 35 35 41 43 43 41 42 39 38 35 30 27 25 25 24 24 25 25 26 30 32 30
39 41 42 46 49 49 50 49 45 47 44 29 37 37 41 33 24 15 15 18 27 31 24 22 26 37 38 38 33 29 26 27 25 24 24 27 27 29 30 30 29 28 31
38 38 40 42 45 47 47 50 52 52 52 53 51 48 48 42 36 37 33 26 29 22 19 17 13 14 15 21 28 21 20 20 19 18 21 22 23 26 26 27 29 29 30
38 39 38 38 39 41 43 45 46 48 48 51 49 49 49 45 41 41 38 37 36 34 33 32 22 16 11 4 9 7 5 8 11 12 13 15 19 20 21 23 25 28 31
42 40 39 37 37 39 41 42 42 43 44 45 45 46 45 44 42 39 39 38 37 37 34 29 29 23 19 18 8 4 4 5 5 6 7 10 11 16 18 18 18 21 24
39 39 39 40 40 40 40 41 41 42 43 43 43 42 40 41 40 38 38 36 35 35 32 30 29 32 26 14 16 13 8 7 6 4 9 6 7 9 11 13 15 15 14
30 33 35 38 39 39 39 40 40 40 40 42 43 43 42 41 39 37 35 34 33 30 32 32 30 24 20 22 20 18 19 13 11 8 6 5 6 7 7 8 10 11 11
28 29 32 34 36 36 37 37 38 39 40 41 40 41 41 40 38 36 33 31 29 29 28 25 22 19 18 16 18 16 13 11 11 11 10 10 9 8 9 9 10 11 11
25 29 30 32 34 36 37 39 40 40 40 40 40 39 38 36 35 34 31 30 29 28 24 21 19 18 17 17 18 15 12 13 14 14 15 15 15 13 11 10 9 9 10
24 26 27 30 32 34 37 39 40 42 42 39 38 37 35 32 33 33 32 29 26 25 23 21 19 18 19 18 17 17 17 16 16 15 15 14 12 12 13 12 10 8 8
21 22 25 26 29 30 33 34 35 36 35 38 36 33 35 36 32 26 26 26 24 22 20 19 20 21 22 22 21 20 18 17 17 16 15 14 14 13 13 12 10 10 9
20 23 23 24 26 27 26 25 24 26 28 29 32 27 27 25 26 24 22 21 18 18 19 22 23 23 23 23 22 21 20 19 17 16 16 15 16 15 14 12 10 9 8
19 21 22 23 22 24 24 24 23 22 21 25 31 31 23 22 24 26 27 21 18 17 21 23 23 22 21 20 19 18 19 17 15 14 13 14 14 14 14 13 11 9 7
16 17 20 22 21 20 21 21 22 22 24 26 28 31 28 23 24 24 31 26 27 26 23 21 22 22 21 19 18 18 17 16 16 14 13 11 12 12 13 14 13 11 8
17 17 19 20 20 17 17 19 21 23 23 24 27 27 28 26 27 28 31 32 30 27 25 21 18 20 21 20 17 16 16 16 14 13 11 9 8 11 10 10 11 13 9
14 16 17 19 20 20 18 22 21 21 23 24 25 27 27 26 28 29 29 30 30 31 29 25 22 20 21 20 19 17 17 17 16 11 9 7 6 8 10 9 7 7 9
12 10 11 14 18 19 18 19 20 17 20 21 22 23 23 24 24 24 25 26 27 28 29 29 24 26 23 23 20 21 20 19 15 12 7 7 7 9 8 8 7 5 3
10 11 9 11 14 16 15 16 17 17 18 19 19 19 20 20 20 22 21 22 24 26 27 27 26 28 25 27 25 21 17 16 15 11 7 7 8 6 8 8 8 6 4
10 11 11 12 13 14 14 15 15 16 17 18 18 18 18 19 17 21 21 20 22 26 26 25 26 27 23 26 28 22 18 18 17 13 8 8 8 6 7 9 11 9 8
8 10 11 12 13 15 16 16 17 17 16 16 16 17 18 19 18 18 19 17 22 23 23 23 24 23 23 25 29 23 20 21 19 12 9 9 9 7 8 8 6 5 6
9 11 14 14 14 15 16 17 16 15 17 17 17 16 15 16 17 18 18 20 19 21 21 19 20 22 23 24 26 25 24 25 19 13 10 10 11 9 8 8 6 6 5
12 14 14 14 15 16 18 18 18 19 20 18 19 20 20 21 21 21 20 19 15 14 15 16 17 22 22 22 22 24 25 21 18 15 10 10 12 10 10 8 5 4 4

GFSGL_850_spd_126.txt.gz
Wind_Speed
27 27 25 22 18 15 17 15 17 19 19 24 22 23 28 31 32 33 37 34 34 30 35 34 38 38 52 37 53 43 42 44 46 42 30 28 37 33 28 24 25 28 30
26 28 29 25 19 16 14 12 9 9 9 11 16 19 23 29 32 31 34 30 33 31 31 34 37 39 50 46 42 54 50 49 46 45 40 33 28 25 26 25 23 29 33
26 29 32 33 27 25 23 21 18 14 12 7 7 12 16 21 22 26 28 31 26 25 28 32 40 42 32 36 42 50 51 45 42 44 38 34 30 30 28 28 25 27 34
29 31 34 37 35 31 32 34 32 32 30 26 21 15 7 2 9 18 21 21 19 25 23 30 29 32 44 44 45 49 48 44 41 40 41 34 32 32 30 29 30 29 30
30 32 35 37 39 39 38 36 40 37 38 39 38 34 26 8 9 2 8 15 13 14 21 23 25 26 44 43 44 45 45 39 39 35 36 37 35 32 27 28 27 26 26
30 32 33 37 39 42 44 44 44 44 43 43 46 47 46 43 32 20 17 13 9 10 11 12 13 24 28 26 38 39 42 39 38 35 35 31 28 26 25 27 28 30 29
32 33 32 34 35 39 39 41 43 45 44 46 46 46 47 45 40 40 38 37 38 33 24 20 15 10 8 7 10 8 21 27 32 38 32 30 27 27 28 30 30 31 34
33 34 33 34 36 38 38 39 39 39 40 42 44 44 44 43 40 40 38 38 37 36 37 34 31 25 21 17 10 4 12 9 10 6 19 22 23 22 23 23 23 27 28
34 34 34 32 34 36 38 38 38 39 40 41 41 42 41 42 38 36 35 34 36 39 38 36 33 30 25 20 17 16 13 12 11 7 7 1 4 12 14 15 18 19 20
32 32 33 33 33 35 35 36 36 37 39 38 39 40 40 40 38 36 34 33 34 32 34 33 35 30 24 22 23 19 15 16 14 11 9 8 5 7 9 10 11 13 12
24 27 30 32 34 35 34 34 34 36 36 37 38 38 38 40 37 37 35 34 33 32 32 32 29 25 24 25 22 19 20 15 13 11 10 9 9 8 7 7 8 8 10
21 24 27 29 31 33 34 35 35 36 37 38 38 37 38 37 35 33 32 32 30 31 31 28 25 22 22 20 19 17 14 12 13 14 12 13 12 12 12 10 9 10 11
19 23 25 26 29 30 33 34 37 37 38 39 39 39 36 35 34 32 31 30 29 29 26 23 21 21 20 18 17 14 13 15 15 14 16 17 16 16 14 12 11 10 10
17 20 22 25 26 29 32 35 35 37 37 38 37 38 36 34 34 32 30 28 27 26 23 21 20 20 19 18 18 18 18 17 17 16 16 16 15 15 15 15 13 11 9
18 19 22 23 25 26 27 29 31 31 32 31 31 29 32 32 30 27 28 28 25 23 21 20 22 23 23 23 22 20 19 18 17 16 16 16 16 15 16 16 15 14 14
16 16 17 18 21 22 22 21 20 22 26 28 25 25 24 23 25 27 26 24 22 22 22 26 28 28 27 25 23 21 20 19 18 18 16 16 15 15 16 15 15 15 15
15 17 17 17 19 20 21 22 23 23 26 28 28 24 24 22 25 28 31 28 26 25 27 27 26 25 25 24 23 22 21 19 17 15 15 14 14 13 15 17 16 16 13
14 16 17 17 16 17 19 19 20 23 25 27 27 28 26 24 23 28 30 27 30 31 31 29 27 26 25 23 22 22 22 19 17 15 14 13 12 13 14 15 17 17 16
10 12 13 15 16 14 16 18 18 21 22 24 24 25 26 26 27 29 31 32 32 32 32 30 28 27 24 23 22 19 20 20 19 17 12 12 12 12 12 12 13 14 15
8 9 11 13 13 15 14 16 17 18 19 20 22 24 23 24 26 28 30 30 30 32 32 30 29 29 26 25 24 23 21 21 20 16 13 12 11 12 13 13 12 14 12
6 6 8 10 12 13 12 14 15 15 16 17 18 19 19 20 19 22 24 24 25 28 29 29 29 29 26 26 27 26 22 20 20 18 15 12 12 11 11 12 12 12 12
6 6 7 9 10 10 12 12 13 14 15 15 15 15 16 17 17 19 20 19 19 22 22 24 26 27 27 27 28 28 25 23 22 20 15 13 13 13 13 13 14 15 15
8 8 9 10 10 11 12 13 14 15 14 13 14 16 16 17 17 17 18 16 13 16 19 21 21 22 23 25 25 26 26 26 25 23 18 15 13 14 14 14 13 15 14
9 10 11 12 12 13 14 15 16 14 14 15 16 15 15 16 18 18 19 18 19 20 19 16 18 18 20 22 23 23 24 26 24 21 19 17 15 14 14 13 13 13 14
11 12 13 14 15 15 16 16 16 16 17 17 17 17 17 19 20 20 20 20 18 15 12 12 13 14 18 19 21 21 22 23 23 21 20 18 16 16 16 13 12 11 12
13 14 15 15 16 16 16 17 18 19 18 18 19 19 20 20 22 25 23 22 21 20 18 16 14 14 14 17 18 18 19 20 22 21 20 17 15 15 13 11 10 10 9

GFSGL_850_spd_129.txt.gz
Wind_Speed
25 22 22 26 21 17 15 13 13 13 14 13 12 11 6 11 14 19 21 22 27 29 30 28 27 27 30 34 38 49 49 35 37 43 38 39 35 37 40 37 33 33 34
25 21 21 25 23 19 18 16 17 16 14 12 10 7 5 7 11 15 19 20 19 20 24 26 22 26 30 31 34 44 55 41 34 34 45 43 40 38 37 34 34 33 34
27 24 22 25 28 27 26 26 25 24 24 20 18 14 11 6 5 9 12 14 17 22 20 23 27 26 28 30 34 34 44 39 40 46 47 45 46 38 39 38 36 33 32
27 27 28 29 29 31 31 33 37 36 35 34 31 29 24 18 11 6 2 10 11 14 15 18 21 27 29 32 33 30 33 39 40 42 45 52 44 37 36 39 37 36 33
26 27 30 32 33 35 38 38 40 42 43 43 40 39 37 32 27 20 14 11 10 9 8 9 11 21 27 29 33 35 39 39 44 41 42 42 40 40 43 42 40 37 33
28 29 28 29 31 34 36 38 40 43 44 44 45 44 43 44 34 32 27 25 18 16 15 12 6 2 6 19 27 29 38 43 40 35 36 38 35 37 40 42 41 38 33
26 27 29 31 33 34 35 35 36 38 39 42 43 44 43 40 37 37 39 37 35 31 27 23 21 16 14 12 7 5 9 29 30 36 32 25 28 29 30 34 37 35 34
25 26 27 28 30 31 33 35 37 38 39 40 41 39 39 38 34 35 35 37 38 37 36 32 28 25 21 18 16 16 16 13 12 10 3 6 4 13 15 25 21 26 30
24 26 26 26 28 29 32 33 34 34 36 37 37 38 38 38 36 32 30 32 33 34 33 32 30 29 24 21 19 19 19 20 17 11 11 5 6 12 9 6 9 13 14
23 24 24 25 25 28 28 30 31 32 34 34 34 36 36 36 35 33 31 32 30 30 29 30 30 26 24 23 22 23 23 22 16 12 10 8 5 4 6 8 7 4 3
17 20 22 24 26 27 27 28 29 30 30 32 34 34 35 34 34 35 34 33 31 29 29 28 25 22 21 21 22 22 22 16 18 17 14 14 13 11 9 7 6 7 4
14 17 20 23 24 25 27 28 29 29 31 33 32 33 34 34 33 32 31 31 29 28 28 25 23 21 19 18 20 18 17 16 17 16 15 16 17 18 17 15 13 10 8
12 17 19 21 22 25 28 30 31 32 34 33 34 33 33 32 32 30 28 27 27 27 25 22 20 19 19 20 21 18 17 19 19 18 19 19 18 16 13 12 13 13 11
12 14 17 19 21 24 27 28 29 31 31 31 30 32 31 32 33 32 30 28 26 24 21 21 21 21 22 21 20 21 21 21 21 20 19 18 16 16 18 17 15 13 10
10 14 16 18 19 20 22 25 27 27 25 26 26 26 29 31 28 27 29 29 27 26 23 22 24 25 25 25 24 23 22 20 20 20 19 19 19 18 18 18 18 17 15
10 12 14 15 17 18 19 20 22 22 22 21 21 23 23 22 23 28 30 28 27 25 24 28 28 29 29 29 28 28 27 25 24 21 18 18 19 19 19 19 18 17 18
10 12 13 14 16 17 18 20 22 21 22 23 23 21 21 21 24 29 29 27 27 26 30 32 31 31 30 28 28 28 28 27 24 21 20 20 18 17 17 18 19 19 19
9 11 13 13 12 14 15 17 18 20 22 23 22 22 21 22 25 26 27 25 30 32 33 32 32 31 30 30 29 28 26 25 24 23 20 19 18 18 18 18 18 20 20
7 9 11 11 12 13 14 15 16 17 19 20 20 20 20 21 21 23 25 27 28 29 29 30 30 29 29 28 28 28 27 26 25 23 21 19 18 19 18 18 18 17 17
5 6 9 12 13 14 15 15 16 17 18 19 20 21 21 21 22 24 24 22 22 24 24 25 27 27 27 28 29 29 28 28 27 26 24 21 18 17 18 18 18 20 20
7 9 10 12 14 15 15 17 17 18 19 19 18 19 20 21 22 22 22 21 19 20 21 23 24 24 25 27 28 28 28 28 28 27 25 21 19 18 16 16 17 18 19
8 10 11 12 14 15 16 17 17 18 18 17 17 18 19 19 19 19 19 19 19 20 21 22 20 19 21 23 25 27 29 30 30 28 26 23 20 18 18 17 17 17 18
8 10 12 13 15 15 16 17 17 17 16 17 18 19 19 20 20 20 20 20 20 21 21 20 17 16 16 17 21 23 25 26 27 28 28 27 23 20 19 19 19 19 18
10 11 13 14 16 17 18 18 18 17 18 19 19 18 20 21 22 22 22 23 22 21 20 19 16 17 18 16 15 17 21 22 23 26 27 27 24 22 20 19 18 17 16
11 13 14 15 17 17 17 17 18 19 19 20 20 21 21 22 24 25 24 24 23 22 20 19 19 19 18 19 18 16 17 19 20 23 26 24 23 21 20 20 16 14 13
12 14 15 16 16 16 16 17 18 19 20 21 22 22 23 24 25 26 26 26 26 25 23 22 21 21 22 23 21 18 14 16 18 22 25 24 21 19 20 18 15 13 13

GFSGL_850_spd_132.txt.gz
Wind_Speed
29 25 22 21 21 18 16 16 14 16 15 12 11 7 4 4 6 9 12 14 17 22 26 32 35 31 30 29 29 29 39 35 37 30 36 46 54 38 31 31 30 29 34
27 26 22 22 21 22 22 21 22 23 24 20 17 13 8 3 3 7 9 11 11 12 14 21 23 28 31 30 29 29 31 34 31 39 42 39 46 43 44 36 31 33 36
24 27 26 25 26 28 30 30 30 31 32 29 26 24 18 14 8 5 4 7 10 13 16 17 21 23 23 27 30 31 30 32 33 41 40 43 47 45 46 41 35 34 35
23 25 26 26 28 29 32 36 37 37 40 38 37 35 30 24 19 15 12 12 10 7 7 11 16 18 26 22 22 26 26 30 31 38 50 40 43 48 45 46 41 37 38
25 27 28 26 27 29 32 35 36 39 42 42 42 43 42 39 32 26 23 23 20 18 18 17 6 6 14 20 21 23 26 33 32 31 38 41 40 38 41 43 39 40 41
23 25 25 26 28 30 30 32 34 37 40 40 43 43 44 44 37 35 31 32 32 29 26 20 16 14 9 3 14 20 24 28 29 30 30 29 33 34 35 37 33 32 36
21 23 24 25 27 29 30 33 35 37 38 40 40 40 41 39 38 39 37 36 36 38 36 32 27 22 17 13 12 3 7 14 16 19 19 21 23 23 32 35 40 39 32
22 23 23 24 26 26 29 32 34 36 37 38 40 39 41 41 37 33 33 34 35 35 35 35 32 30 27 21 20 19 20 17 14 11 8 7 4 10 14 14 18 24 23
22 24 23 24 25 27 29 31 33 34 36 37 36 38 39 40 37 36 34 34 34 33 31 31 31 28 25 22 22 23 22 22 20 17 16 13 9 5 2 1 8 5 9
21 21 22 23 24 26 28 30 32 33 34 34 36 37 36 37 37 35 34 33 33 32 31 32 31 28 24 23 22 22 24 23 19 16 14 15 15 15 13 9 9 5 2
17 17 18 21 23 24 26 27 29 31 32 33 34 35 35 35 34 33 33 34 34 32 32 32 30 27 25 23 23 24 24 19 20 20 20 20 20 20 20 19 15 12 10
13 15 18 20 22 23 24 26 29 30 31 33 33 34 35 34 33 32 32 31 29 29 30 29 28 26 25 24 24 21 18 17 17 18 20 23 23 23 22 20 16 14 12
11 15 17 18 21 23 26 28 30 32 33 34 35 35 36 35 34 32 31 30 30 30 28 25 22 21 21 22 24 22 22 23 23 23 24 24 23 21 17 14 14 11 12
11 14 15 17 20 22 24 26 28 31 31 32 33 33 32 33 34 34 33 31 29 27 24 23 22 23 24 24 23 24 25 26 25 25 24 22 19 19 20 20 19 17 12
9 12 15 17 19 21 24 25 26 26 26 27 28 27 30 31 29 29 30 31 30 28 25 24 26 28 29 29 29 29 28 26 26 25 24 23 23 22 22 22 22 22 21
8 11 13 15 17 19 20 22 23 22 21 21 21 22 23 22 23 26 28 28 27 26 27 31 32 32 32 33 33 32 31 31 30 27 25 24 24 23 22 22 21 21 21
8 11 12 14 15 17 19 20 21 20 19 19 18 18 19 19 21 24 26 26 26 26 30 32 33 33 33 32 32 32 32 31 29 28 27 25 24 22 23 23 22 21 21
8 10 12 14 14 15 17 17 17 18 19 20 20 19 18 17 20 22 22 22 26 29 29 30 30 30 30 30 30 31 30 30 30 29 27 25 24 24 23 22 22 22 22
7 9 11 13 13 13 14 14 15 16 18 18 17 17 18 18 19 20 20 21 21 22 23 24 25 26 26 26 27 28 29 30 29 28 28 26 24 23 22 21 22 21 21
6 8 10 11 12 12 13 14 15 17 17 17 18 19 20 20 22 22 20 20 19 19 20 20 20 20 21 22 24 26 27 30 30 29 28 26 25 22 22 21 21 22 22
5 7 8 10 11 12 13 14 15 16 17 17 18 20 21 22 22 22 22 21 21 21 21 20 18 17 17 17 19 22 24 27 28 29 28 27 26 24 21 20 20 20 21
4 6 8 9 11 12 13 14 15 16 16 17 18 19 20 21 21 22 22 22 22 22 22 22 20 17 16 17 18 19 20 22 25 27 28 29 28 26 23 22 21 20 19
3 5 8 10 12 13 14 14 15 16 17 18 19 19 20 22 22 22 23 23 23 22 22 22 22 21 19 18 17 18 18 19 21 24 27 28 28 27 25 24 23 21 19
4 7 9 11 12 13 14 14 15 16 17 18 19 20 21 22 23 23 23 23 23 22 22 22 22 23 23 23 21 19 19 18 18 20 23 26 27 26 24 23 23 20 18
6 8 10 12 13 13 13 14 15 17 18 19 20 20 21 22 22 23 24 24 25 25 25 24 24 24 23 23 22 22 20 18 18 19 20 24 25 24 23 22 22 20 17
8 9 11 13 13 13 14 15 16 17 18 19 20 20 21 22 23 23 24 26 28 28 28 27 25 24 22 21 20 19 17 17 15 16 18 22 24 22 21 21 20 19 18

GFSGL_850_spd_135.txt.gz
Wind_Speed
26 26 25 23 21 18 18 18 18 18 20 20 18 14 8 4 2 1 4 10 5 8 13 21 27 34 35 33 35 35 39 43 58 55 33 33 48 47 54 58 54 46 33
20 22 23 22 22 22 23 24 24 25 25 25 25 20 16 12 8 2 3 5 9 12 11 14 17 25 23 25 30 32 34 32 36 33 37 38 33 51 56 47 38 40 26
19 18 20 22 24 25 26 29 31 32 33 33 33 31 27 24 20 17 13 10 6 5 3 4 7 16 20 22 22 23 20 25 27 28 31 30 30 37 38 39 43 36 39
20 23 23 23 23 24 26 29 32 34 38 40 40 39 36 32 29 27 23 21 20 17 14 11 8 2 9 16 21 23 22 19 22 26 25 25 23 24 29 27 34 34 34
19 21 24 24 23 23 24 25 28 32 35 38 39 41 41 40 36 32 32 30 29 26 26 25 22 17 10 3 12 15 14 16 16 14 18 22 23 22 30 29 29 28 35
17 20 21 22 22 23 24 26 29 31 33 34 37 38 39 40 36 35 33 34 34 34 32 30 28 25 23 19 16 9 8 5 10 8 6 8 12 13 18 21 31 37 33
17 19 20 21 22 25 26 27 29 32 32 35 37 39 39 36 33 32 33 33 33 36 35 34 33 32 29 26 24 20 15 9 7 9 7 5 9 13 20 20 21 23 23
18 20 20 21 23 25 26 30 31 32 34 35 38 37 38 38 35 34 34 34 34 33 33 33 32 31 30 27 24 25 25 23 22 20 17 15 13 10 9 12 15 17 22
18 20 21 21 22 24 26 28 30 31 32 34 34 36 37 38 36 34 33 34 35 36 35 35 33 31 28 25 22 25 25 25 22 19 16 14 13 9 9 4 5 5 7
17 19 19 20 22 23 25 27 28 30 32 33 34 35 36 36 35 34 34 34 35 34 34 36 36 34 31 28 26 25 22 24 18 15 14 14 14 14 14 14 17 14 7
15 17 17 19 22 23 23 25 27 29 29 31 32 33 33 34 33 33 34 35 35 33 34 34 33 30 28 27 26 28 27 21 20 19 18 18 18 18 16 16 16 19 15
11 13 17 19 20 20 22 26 27 28 30 31 32 33 35 35 35 34 34 33 31 31 32 30 28 25 24 23 24 22 19 19 20 21 21 22 22 23 21 19 15 13 14
9 14 17 17 18 20 23 26 28 29 30 30 30 30 30 32 34 34 34 32 32 31 28 25 23 23 24 24 23 21 21 22 23 23 25 24 23 20 17 14 13 9 10
9 12 13 14 17 19 22 24 26 27 28 28 26 28 27 29 31 31 32 31 30 28 26 25 26 26 26 26 25 27 28 27 25 24 24 22 20 20 20 20 18 16 13
8 11 12 15 17 19 21 22 23 23 22 21 25 23 24 25 26 25 27 28 27 27 26 27 29 31 32 33 32 31 30 28 28 27 25 23 22 21 20 20 20 19 18
7 9 11 12 15 17 18 19 20 20 19 19 20 21 18 19 19 21 24 25 25 25 27 31 32 32 32 33 33 34 34 33 32 28 26 24 23 22 20 19 19 19 19
7 9 10 11 12 14 15 16 17 17 17 18 18 17 17 17 17 19 21 23 24 25 27 27 28 27 26 27 29 30 31 31 29 28 28 27 25 22 21 19 18 18 18
7 8 8 9 10 12 13 15 15 16 16 17 17 16 16 18 18 19 20 20 22 24 21 19 20 20 20 20 25 26 27 28 29 28 28 27 27 23 19 17 17 19 19
6 7 7 8 8 10 12 12 13 14 14 14 13 14 17 17 17 17 19 21 22 22 21 20 18 16 16 16 20 23 23 26 27 28 28 28 27 24 21 20 18 19 18
4 5 6 6 7 8 9 10 11 12 13 13 15 17 18 19 20 21 22 21 21 21 21 20 19 18 18 18 18 17 18 20 24 25 27 28 28 24 21 21 20 20 19
3 3 4 5 6 7 8 9 10 11 11 13 15 16 18 18 19 20 21 21 22 22 22 22 21 19 18 18 18 19 19 20 21 24 26 28 29 25 22 20 21 20 19
2 1 2 4 6 7 7 8 9 10 11 12 13 15 16 16 17 19 20 20 21 21 21 22 22 21 21 21 20 20 19 19 19 21 23 26 28 25 24 21 21 20 18
2 1 2 4 6 7 8 8 9 10 11 12 13 14 15 17 18 18 19 20 21 21 21 22 23 23 22 21 20 20 19 19 19 19 20 23 26 27 25 22 20 20 19
3 3 4 5 6 7 8 8 9 10 11 12 13 14 15 16 17 18 19 20 20 21 22 23 23 23 22 21 20 19 18 18 18 17 17 19 23 26 26 25 20 20 19
4 4 5 6 7 7 7 8 9 10 11 12 13 14 15 16 18 18 20 21 22 23 23 23 24 23 22 20 18 18 17 16 15 14 13 16 20 23 25 23 21 19 19
5 5 6 7 7 7 7 8 9 10 11 11 13 14 16 17 18 20 21 22 23 24 25 25 24 22 19 17 15 16 15 15 12 10 9 13 17 21 23 21 19 18 18